GFSWCAN_sfc_temp_003.txt.gz
Temp
53 54 54 54 54 54 54 54 55 55 55 55 55 56 56 57 57 48 45 49 46 43 43 49 52 46 46 46 42 51 49 52 49 46 48 48 46 53 55 57 51 49 52 48 48 48 47 66 64 61 61 61 62 64
54 54 54 54 54 53 54 54 54 54 55 55 55 55 56 56 56 53 45 50 54 44 43 50 53 57 55 53 48 50 48 49 48 46 46 47 48 49 50 49 58 51 54 49 50 48 57 58 60 61 61 65 62 66
53 53 53 53 53 53 54 54 54 54 54 55 55 55 55 55 56 53 49 44 45 40 42 39 47 55 54 58 59 46 51 54 50 51 46 47 46 47 44 50 55 59 60 52 53 57 57 59 62 63 63 63 65 66
53 53 53 54 53 53 53 54 54 54 54 54 55 55 55 55 55 54 47 44 47 44 37 40 56 53 59 54 55 56 54 56 53 49 50 46 46 51 47 49 50 56 59 54 55 59 61 62 60 62 65 67 69 69
53 53 53 53 54 54 53 53 54 54 53 54 54 55 55 55 55 50 44 44 49 44 37 39 50 54 53 56 57 56 53 52 51 48 47 47 50 49 46 49 48 53 54 51 48 56 55 57 62 66 65 66 66 67
53 53 52 53 53 53 53 53 54 53 53 53 54 54 55 55 53 45 44 48 52 52 42 35 46 50 54 54 53 50 51 51 50 50 50 51 53 50 44 43 52 52 55 59 54 57 59 60 62 66 65 66 65 64
52 52 52 53 53 53 53 53 53 53 53 54 54 54 54 53 46 43 42 48 50 48 42 39 38 50 54 52 50 48 49 52 51 50 50 50 53 51 44 42 50 53 59 57 57 57 57 60 58 63 65 65 63 64
52 52 52 53 53 53 53 53 53 53 53 53 53 53 53 53 50 42 51 53 52 45 43 37 38 44 50 48 47 49 48 48 51 51 50 50 49 51 46 48 51 55 57 57 58 60 59 59 60 60 61 61 60 60
52 52 52 52 52 53 53 53 53 53 53 53 53 53 46 44 40 43 57 54 48 45 39 39 36 39 50 48 48 50 51 47 52 49 49 51 43 39 44 45 50 53 52 53 56 58 59 57 57 58 59 59 57 57
52 52 52 52 52 53 53 53 53 53 53 53 46 44 38 47 57 55 47 42 41 43 41 37 41 40 47 46 48 50 49 47 46 48 51 48 46 47 48 48 49 52 53 54 53 51 52 52 53 55 55 57 57 56
52 51 52 52 53 53 53 53 53 53 50 43 41 42 47 53 45 44 40 39 40 39 40 42 43 43 51 46 46 49 46 46 44 45 46 46 44 46 50 52 52 53 54 54 54 53 53 53 53 54 55 55 56 57
51 52 52 53 53 53 53 53 53 47 47 46 45 46 44 42 38 35 34 39 39 40 43 44 48 47 50 50 48 49 47 47 44 50 45 42 46 50 51 53 53 53 55 56 57 56 57 57 55 54 54 54 55 56
52 52 52 53 53 53 53 53 53 52 50 47 42 39 38 35 27 33 34 37 37 43 46 48 48 47 49 49 47 47 47 45 51 43 43 44 48 51 51 52 52 53 55 56 56 56 56 56 57 55 54 54 54 54
52 52 53 53 53 53 53 52 52 50 46 41 36 30 33 31 40 40 40 41 44 44 44 48 47 46 47 47 45 45 48 49 42 40 41 46 48 49 51 52 51 50 52 53 53 54 55 54 53 54 54 53 52 52
52 52 52 52 53 52 52 52 52 48 42 37 38 33 38 43 42 46 46 44 46 47 44 46 47 46 43 45 45 46 44 39 42 41 46 47 47 48 48 49 49 50 50 51 52 53 54 53 52 51 52 51 51 52
52 51 50 52 52 52 52 49 46 44 40 39 42 40 41 40 41 43 44 43 47 45 46 46 42 42 42 41 43 40 42 39 42 45 45 46 46 47 48 49 50 51 50 50 50 51 51 51 51 51 51 51 52 52
50 44 52 52 52 52 52 45 43 42 41 42 41 44 42 40 40 41 43 45 47 45 40 42 41 39 43 40 38 43 42 44 46 45 45 45 46 47 48 49 50 51 51 51 50 51 51 51 50 50 50 50 51 52
44 47 53 53 51 48 44 44 42 42 41 44 40 42 41 42 41 42 44 44 45 42 42 41 43 39 37 38 39 44 45 43 44 45 45 46 47 48 49 48 50 50 50 50 50 50 50 49 49 48 48 50 50 55
46 48 53 53 50 45 40 43 43 40 43 41 41 41 41 43 43 44 44 46 44 43 43 41 39 37 41 43 41 41 41 43 43 44 46 48 48 48 49 49 50 50 51 50 50 50 50 49 49 48 48 48 48 49
53 53 53 53 51 41 40 38 44 39 37 39 41 40 41 40 41 42 43 42 41 42 41 41 40 40 41 42 43 43 44 45 44 44 44 46 48 49 49 49 49 48 49 51 51 48 49 50 50 50 49 49 48 49
50 49 52 49 44 43 41 39 39 39 38 37 39 39 39 40 40 39 39 41 41 38 39 41 42 43 44 44 45 45 45 45 44 45 44 45 50 48 48 49 49 49 48 52 50 51 48 49 50 50 50 51 51 50
47 52 46 48 43 42 39 43 38 40 37 37 37 38 37 37 37 37 39 38 38 39 40 41 41 42 43 44 45 47 50 51 50 48 46 48 48 51 51 51 48 50 51 50 47 48 49 49 49 50 50 50 49 50
50 48 44 44 39 36 35 41 41 39 35 37 39 37 36 41 39 39 36 37 39 41 42 44 46 48 46 47 49 50 51 51 49 49 49 50 53 50 49 50 49 47 46 48 46 47 48 47 49 50 50 50 50 50
50 42 39 38 38 34 39 37 38 39 38 37 35 34 37 39 42 40 38 41 43 45 46 48 49 50 51 51 50 50 51 49 48 49 50 50 49 47 46 45 46 46 46 46 46 48 49 49 47 49 50 50 49 48
39 39 38 34 38 36 37 38 39 38 36 38 35 36 38 41 38 39 41 44 45 47 49 51 50 49 48 49 50 49 50 48 48 48 48 47 46 45 44 44 45 44 45 46 46 46 46 47 47 48 48 48 47 47
34 37 36 39 37 37 37 36 37 39 40 38 38 42 39 41 41 39 41 46 46 49 50 50 48 48 47 47 47 49 49 48 49 47 47 47 48 46 43 42 42 44 46 44 45 46 46 47 47 48 47 46 44 46
37 40 41 41 40 40 40 43 42 39 41 39 39 42 42 39 42 44 46 47 51 53 51 50 49 48 47 49 51 49 48 48 48 49 48 46 46 47 46 44 43 45 46 47 46 46 46 46 46 46 45 45 45 45
43 44 42 43 42 44 43 42 42 41 43 44 44 42 42 43 44 48 49 52 52 53 53 54 55 54 51 48 48 51 50 49 50 48 47 47 45 44 45 45 45 44 44 45 45 46 45 45 45 46 45 44 43 44
43 48 49 47 48 47 48 47 47 48 50 48 46 45 47 49 52 52 53 52 53 55 52 51 51 51 50 49 49 47 47 46 46 43 42 42 42 44 45 45 45 45 43 44 44 44 45 45 44 44 45 43 43 42
50 50 50 51 50 47 50 50 51 52 53 52 52 51 51 52 53 53 53 53 52 50 49 49 48 49 47 47 46 48 48 45 46 45 42 42 43 43 43 43 43 43 43 44 43 43 43 43 42 42 42 41 40 39
49 51 50 49 49 51 51 52 54 53 54 53 53 54 51 51 54 53 52 50 52 52 51 49 47 47 47 46 44 43 43 45 45 46 44 43 42 43 43 42 41 41 42 42 41 40 40 39 39 38 39 39 40 38
50 49 47 45 47 50 52 53 54 55 55 53 51 54 53 50 48 55 57 58 55 50 47 47 47 47 47 46 45 44 43 43 44 44 43 43 42 41 40 40 41 42 41 41 40 39 39 38 37 37 36 36 36 38
49 49 50 49 47 48 50 51 51 49 50 49 48 50 50 47 44 49 53 51 50 48 46 48 49 46 46 45 45 44 43 43 43 42 40 39 38 39 39 39 41 42 40 39 38 37 37 36 35 35 35 34 34 34

GFSWCAN_sfc_temp_006.txt.gz
Temp
54 54 54 54 54 55 54 54 54 54 55 55 55 56 56 56 56 49 44 48 44 40 44 48 49 45 45 45 41 47 46 46 45 43 43 43 44 50 50 55 52 52 48 46 47 47 45 60 61 59 61 60 61 64
54 54 54 54 54 54 54 54 54 54 55 55 55 55 55 55 55 53 43 45 50 42 43 49 50 53 52 52 46 48 44 43 46 42 43 43 45 46 46 48 58 51 53 47 49 48 54 56 55 59 62 66 65 62
53 53 54 54 54 54 54 54 54 54 54 55 54 55 55 55 55 52 44 42 42 42 43 43 45 53 56 56 57 43 49 49 50 48 43 44 44 46 43 48 54 56 56 53 51 55 55 56 59 61 61 61 63 63
53 53 54 53 53 54 54 54 54 54 54 54 55 55 54 54 55 54 46 45 46 43 37 39 52 49 56 54 55 56 56 54 52 49 44 43 44 48 45 49 49 52 57 54 51 55 57 60 59 58 61 63 63 63
52 53 53 54 53 53 54 54 54 54 54 54 54 54 55 54 54 51 45 45 46 41 37 38 48 52 52 52 53 54 51 49 47 44 44 47 47 47 46 48 47 49 50 51 48 56 56 55 59 61 61 61 62 62
52 52 53 53 53 53 54 54 54 54 54 54 53 54 54 54 53 43 41 44 46 48 41 35 43 46 51 51 52 50 50 48 46 43 46 49 50 48 46 45 50 51 54 54 52 54 57 59 62 64 61 61 63 62
52 52 53 52 53 53 53 54 54 54 53 54 54 54 54 53 45 42 42 46 50 48 41 36 36 46 51 51 51 49 48 48 47 46 47 49 52 48 45 42 49 51 54 55 56 57 56 57 56 61 62 63 62 63
52 53 52 52 53 53 53 53 53 53 53 53 53 53 53 53 49 43 50 51 51 46 43 34 37 42 48 47 47 48 47 45 46 48 48 48 50 48 43 48 52 55 56 56 56 59 57 59 60 59 60 61 60 58
52 52 52 52 52 53 53 53 54 53 53 53 53 53 45 43 40 46 55 53 46 43 38 40 36 37 48 46 47 48 47 43 46 45 46 49 45 41 46 47 51 52 54 55 56 57 57 56 56 57 57 56 55 56
52 52 52 52 52 53 53 53 53 53 53 52 45 43 39 46 56 53 45 40 39 40 39 35 40 37 45 45 46 46 45 43 40 44 50 47 45 50 49 50 52 52 53 54 52 50 52 52 53 53 54 55 56 56
52 52 52 52 53 53 53 53 53 53 50 43 41 42 46 52 45 41 39 39 38 37 38 40 40 40 48 44 45 48 43 42 40 43 46 45 43 47 50 52 52 54 55 53 53 52 51 52 52 53 54 55 55 56
52 52 53 53 53 53 53 53 52 48 46 46 45 46 43 41 37 36 33 37 38 39 43 41 45 43 44 46 45 47 44 44 40 47 44 42 46 48 50 51 52 51 54 54 55 54 54 55 54 54 54 54 54 54
52 52 52 53 53 53 53 52 52 52 50 44 41 37 36 34 32 34 32 37 36 42 45 43 43 44 45 47 46 47 45 41 47 44 42 44 48 50 49 50 51 53 55 54 54 55 55 55 56 54 53 54 54 54
52 52 52 52 52 53 52 52 52 49 43 38 37 33 35 32 37 39 39 39 44 43 43 43 45 44 44 47 45 44 45 46 42 40 39 45 48 50 49 50 51 51 52 53 53 54 54 54 54 54 54 53 52 53
52 52 52 51 52 52 52 52 52 45 41 37 38 33 35 41 43 43 44 42 45 45 43 43 46 45 42 45 45 47 43 39 41 41 45 47 48 49 50 51 50 50 50 50 52 52 53 53 52 52 53 52 53 53
52 50 47 52 52 52 52 49 45 44 40 41 41 39 42 40 41 42 42 44 46 42 43 45 42 42 40 40 41 40 41 36 41 45 46 47 47 48 48 49 50 50 50 50 50 51 52 52 51 50 51 52 53 53
50 43 51 52 53 52 51 44 43 42 43 42 40 43 41 39 39 41 42 42 45 43 39 42 39 37 42 39 39 43 41 43 45 46 45 46 46 46 47 48 50 50 50 50 50 50 51 52 51 50 51 52 54 55
43 45 51 52 51 47 44 43 42 42 40 42 39 41 43 40 39 41 44 44 44 43 43 40 43 39 38 39 39 43 43 44 43 44 45 46 47 48 49 48 49 49 49 50 50 50 51 51 50 49 49 50 51 54
46 47 52 53 50 43 41 41 43 37 39 40 41 41 39 41 41 42 43 45 43 44 44 42 40 39 39 41 41 42 42 43 43 44 45 47 48 49 50 49 50 52 52 50 50 50 50 50 51 50 50 49 50 51
53 52 53 53 50 40 39 37 42 37 36 38 38 38 38 39 40 41 42 43 40 41 40 39 39 41 41 43 43 44 45 45 44 44 45 49 50 51 50 49 49 49 49 51 50 48 50 51 51 51 52 51 52 53
48 48 51 48 43 41 39 37 37 37 37 36 37 37 37 39 39 38 38 40 40 37 39 41 42 43 44 44 45 45 45 45 45 45 47 47 51 50 49 52 49 49 49 49 48 48 48 48 49 50 51 52 52 52
45 52 44 45 40 40 37 39 36 38 36 36 36 37 36 36 37 36 37 37 37 39 40 41 42 43 44 44 45 47 48 50 50 49 46 47 48 51 50 48 48 47 46 46 47 47 48 48 49 51 52 52 51 53
49 46 42 42 37 34 34 39 37 37 34 35 36 34 34 38 38 39 36 36 39 40 42 44 47 49 47 47 49 50 51 51 50 50 50 50 51 48 47 47 46 47 46 46 46 47 48 46 48 50 50 52 51 51
49 42 38 35 35 35 39 38 39 39 37 38 37 34 37 38 42 41 39 42 45 46 48 49 50 50 51 51 48 48 48 48 47 47 47 48 46 45 46 46 46 47 46 46 47 47 48 48 46 49 50 50 49 48
36 35 36 33 34 36 36 38 39 38 36 38 35 35 39 41 39 40 41 44 45 46 47 48 48 48 47 48 48 47 47 47 47 46 46 49 46 45 46 46 46 46 47 48 47 47 47 47 48 48 48 48 48 48
34 36 35 35 33 35 34 36 37 36 39 36 38 40 39 41 41 41 42 45 47 48 49 49 48 47 45 45 46 47 47 46 48 49 48 47 47 47 46 45 45 46 48 46 46 46 47 48 48 48 48 48 44 48
37 41 42 39 39 38 39 40 41 38 38 38 39 39 40 38 42 45 46 47 46 49 49 49 48 47 46 47 47 48 47 47 48 48 46 46 46 47 47 47 46 47 46 48 47 47 47 47 47 48 48 48 48 48
44 44 41 42 41 42 41 41 42 41 43 43 44 42 43 44 44 48 48 51 50 50 51 51 50 49 48 48 48 50 51 49 50 48 48 48 47 46 46 47 46 42 45 46 46 48 47 47 46 47 47 46 47 48
43 45 44 42 41 42 42 43 46 47 47 45 45 44 46 49 49 49 50 50 52 55 52 50 50 50 50 50 49 47 46 46 47 45 44 43 43 46 45 45 45 46 45 46 43 43 45 45 44 44 44 44 44 45
47 47 46 48 47 46 48 48 49 50 50 50 50 50 51 50 52 53 53 53 52 49 48 48 46 46 45 44 44 45 45 44 43 43 42 42 43 44 44 44 43 43 44 45 44 44 42 44 43 44 43 42 42 41
48 48 47 46 47 49 52 52 52 55 54 53 53 51 48 50 53 54 53 52 51 52 50 47 46 45 44 44 42 42 42 45 43 43 43 43 43 43 43 42 43 43 43 43 42 42 41 41 40 39 39 39 39 39
47 49 47 47 47 50 50 49 49 50 52 50 50 51 49 47 44 47 49 49 46 47 47 46 44 42 43 43 43 43 40 41 43 41 41 42 41 41 41 42 42 43 42 41 40 40 39 39 38 37 37 37 37 37
47 47 47 46 47 49 49 48 48 47 48 48 47 48 48 46 43 48 53 50 48 48 45 44 43 43 42 42 42 42 41 42 40 38 38 38 38 38 40 40 41 41 40 39 39 38 38 37 37 36 36 36 36 36

GFSWCAN_sfc_temp_012.txt.gz
Temp
54 54 54 54 54 54 54 55 55 55 55 55 56 56 56 56 56 51 48 52 45 40 43 51 54 50 48 47 47 54 51 54 53 50 53 62 64 69 69 71 66 64 64 66 68 61 59 70 73 65 69 78 81 84
54 54 54 54 54 54 54 55 55 54 55 55 56 56 56 55 54 52 45 54 53 43 45 57 58 61 60 59 55 54 52 52 55 51 54 56 59 68 67 63 75 66 73 68 69 68 67 70 65 71 76 78 81 83
53 53 53 54 54 54 54 55 54 54 55 55 55 55 55 54 53 52 47 50 46 42 44 50 54 64 67 64 65 51 55 57 54 59 53 52 49 66 58 65 71 71 76 70 65 63 67 69 71 73 76 77 81 84
53 53 53 53 54 54 54 54 54 54 55 55 55 55 55 55 55 54 48 52 48 44 38 55 67 62 68 69 64 63 61 60 55 58 51 51 52 66 61 62 63 64 67 68 64 63 64 64 68 72 74 76 76 80
53 53 53 54 54 54 54 54 54 55 54 55 55 55 55 54 52 52 52 54 53 43 43 51 60 66 68 65 63 63 60 53 49 45 45 48 64 62 67 62 49 53 56 68 65 63 63 58 63 68 71 72 74 74
53 53 53 53 53 54 54 54 55 54 54 54 54 54 54 54 53 56 49 47 53 55 43 38 61 60 64 64 62 59 60 56 49 48 46 47 63 62 53 47 52 56 62 61 68 63 62 64 68 71 68 71 74 75
53 53 53 53 54 54 54 54 54 54 54 54 54 54 54 53 55 51 47 54 51 51 39 38 50 63 62 61 61 60 62 60 58 51 44 44 53 58 49 44 53 57 63 63 64 61 57 60 54 63 67 72 71 75
53 53 53 53 53 54 54 54 54 54 54 54 53 53 53 53 53 52 54 51 54 44 44 39 43 52 65 62 57 63 58 50 57 50 48 46 52 54 44 50 56 57 59 55 55 58 62 65 62 63 64 64 66 68
53 53 53 53 54 54 54 54 54 54 54 53 53 53 58 56 54 53 53 53 54 44 38 43 42 44 66 65 62 59 58 49 58 48 49 54 52 43 46 50 53 56 57 55 55 56 56 57 57 59 65 67 70 66
53 53 53 53 53 54 53 53 54 53 53 53 57 56 51 60 55 58 49 49 46 48 49 46 58 50 58 65 59 59 59 49 45 52 59 49 44 49 51 52 52 53 55 58 53 51 53 56 58 57 59 65 69 68
53 53 53 53 53 53 53 53 53 53 55 57 50 51 60 58 59 56 48 43 43 43 52 54 54 50 62 53 58 63 58 58 47 51 49 44 42 48 53 53 55 56 56 56 56 55 57 56 61 65 63 67 69 71
53 52 52 53 53 53 53 53 53 57 55 52 49 53 58 56 53 46 47 51 44 48 57 54 54 57 59 62 59 62 59 60 49 61 54 40 44 51 56 55 59 58 60 61 63 62 60 62 65 64 67 66 69 71
52 52 52 53 53 53 53 53 53 52 54 58 52 49 49 48 37 38 38 43 42 55 58 58 55 59 59 62 62 63 55 51 64 54 45 44 50 52 54 55 60 65 63 64 64 66 67 67 69 69 65 68 69 68
52 52 52 52 53 53 53 53 53 54 53 48 43 33 35 37 40 42 43 45 55 57 58 59 61 59 65 61 62 54 59 63 49 46 40 46 50 54 56 59 60 63 66 64 66 67 66 69 68 69 70 69 68 69
52 52 52 54 53 53 53 52 52 60 51 42 40 33 37 43 48 54 58 59 61 61 59 60 64 62 60 58 60 57 52 44 42 40 45 52 54 56 59 61 62 64 66 65 67 67 68 68 69 69 70 71 70 70
53 53 59 53 53 53 52 56 61 62 53 50 48 44 49 49 54 57 56 57 62 61 62 60 57 54 52 54 49 45 44 37 42 46 48 53 57 59 60 62 64 64 65 67 68 68 70 70 67 68 71 71 71 70
52 60 54 53 53 53 53 60 60 54 55 51 51 57 55 56 54 56 57 57 62 62 56 58 49 47 56 49 42 42 37 40 47 50 56 58 57 57 61 63 65 66 66 67 68 69 68 70 71 71 67 68 70 70
60 61 55 53 54 58 64 62 58 57 50 56 52 53 56 58 56 57 58 59 59 58 58 52 57 46 42 39 42 48 49 52 54 54 56 60 60 60 62 63 65 66 65 67 68 69 70 69 70 71 70 70 73 72
56 56 53 53 54 56 55 57 58 51 53 56 56 58 57 58 60 59 60 60 60 61 62 58 50 46 46 50 50 53 55 57 56 58 63 61 62 62 63 64 65 65 66 65 65 69 71 68 69 72 74 73 72 73
52 53 53 53 55 57 53 54 61 54 50 53 57 55 57 56 59 61 61 61 63 60 55 51 51 54 56 57 60 60 61 62 59 61 60 60 66 66 63 64 66 67 69 67 68 59 69 70 71 72 71 70 71 71
56 59 56 59 61 58 57 54 55 54 53 54 57 56 56 59 57 57 56 63 58 56 54 57 58 60 60 59 60 61 61 61 61 60 57 58 62 67 67 67 67 67 66 66 66 66 63 66 68 69 70 70 71 72
59 54 59 60 56 55 56 57 54 56 55 56 55 57 54 52 52 53 54 53 50 49 52 53 56 58 57 58 60 61 60 60 61 59 51 54 60 65 64 65 66 65 65 64 65 65 65 66 66 67 68 68 65 70
53 55 58 56 49 45 46 57 49 49 44 48 54 51 47 47 50 52 45 49 49 56 59 58 58 59 61 63 63 63 63 64 62 63 60 59 65 62 64 65 67 64 63 64 66 65 65 56 63 65 67 67 67 67
52 51 48 48 48 44 53 50 54 52 50 45 42 41 44 47 52 47 47 50 54 57 56 58 61 62 65 63 63 63 64 68 68 69 68 68 67 65 67 67 68 67 65 66 66 65 65 65 56 65 65 64 64 64
43 42 46 38 47 47 49 50 50 52 47 49 46 49 51 53 48 48 47 52 55 56 60 63 64 63 62 63 64 65 65 66 65 65 66 67 67 68 69 70 69 67 67 64 63 63 63 64 64 63 63 63 61 60
39 49 43 52 53 50 51 50 51 50 51 51 52 58 59 55 50 47 50 52 54 59 61 61 62 61 60 62 61 61 62 65 64 63 63 65 65 63 62 62 62 63 65 64 62 61 61 62 62 60 61 60 51 58
47 53 58 59 56 54 54 57 55 54 51 51 55 55 57 50 48 51 55 58 57 62 64 65 64 63 61 61 62 63 65 65 63 63 65 65 65 63 62 59 57 59 62 63 62 61 60 60 60 60 59 60 60 60
56 55 54 59 56 60 54 57 55 54 57 61 59 52 50 50 47 56 59 62 60 63 65 65 65 65 63 62 62 62 62 63 64 65 66 67 67 66 62 62 62 45 59 59 58 59 57 57 56 56 54 54 55 54
58 63 56 56 58 60 60 59 61 62 62 62 57 54 52 54 56 58 60 61 62 59 56 53 52 61 62 62 63 63 62 59 55 52 51 53 55 56 60 60 60 60 60 59 41 48 52 53 53 53 54 54 55 56
62 67 59 59 58 57 60 66 63 64 63 60 57 51 48 49 53 56 54 51 49 47 51 57 58 58 57 57 57 57 60 58 56 53 50 50 52 56 56 56 56 56 57 56 56 56 47 51 51 55 52 52 52 50
67 67 63 62 59 61 64 66 65 63 61 56 53 48 47 48 50 53 54 54 56 61 61 59 59 58 56 55 54 52 52 55 54 53 51 54 54 53 53 53 54 54 54 53 53 52 51 50 50 49 48 47 45 45
66 61 60 59 60 62 64 64 60 55 51 51 53 57 56 53 51 55 60 62 62 60 52 57 56 54 56 56 56 54 44 53 50 50 47 48 48 49 51 52 53 52 51 51 51 50 49 48 47 44 44 44 45 45
67 67 66 65 63 62 63 60 57 52 55 55 54 57 59 56 50 53 62 62 59 59 57 57 58 57 54 54 53 53 49 54 45 38 38 37 36 39 48 50 50 50 49 49 49 49 47 45 44 45 45 44 42 43

GFSWCAN_sfc_temp_015.txt.gz
Temp
54 54 54 55 55 55 55 55 55 55 55 56 56 57 57 57 56 56 53 57 46 40 44 53 57 52 54 53 48 45 58 55 55 47 50 57 58 64 64 69 69 67 67 68 70 64 61 79 81 74 74 80 84 86
54 54 54 54 54 54 55 55 55 55 55 56 56 57 56 56 56 55 47 53 50 42 47 59 61 63 60 62 58 59 56 51 59 49 50 50 50 59 64 59 78 69 75 72 70 68 73 77 77 79 81 81 83 86
54 54 54 54 54 55 55 55 55 55 55 56 56 56 56 56 56 54 48 51 47 43 48 55 56 66 69 67 69 55 61 63 59 59 54 49 46 50 55 64 72 62 81 78 72 71 73 75 79 80 81 81 84 87
54 54 54 54 54 55 55 55 55 55 55 56 56 56 56 56 55 54 47 51 47 43 38 54 71 66 73 74 68 67 61 66 62 58 51 48 47 54 50 52 61 51 59 73 69 70 72 74 76 78 79 81 79 77
54 54 54 54 54 55 55 55 55 56 55 55 55 55 55 56 52 51 50 54 50 42 38 51 63 70 74 71 68 68 65 62 57 50 44 47 56 53 57 56 47 52 52 54 58 71 70 68 73 78 75 76 78 76
53 53 54 54 54 54 55 55 55 55 55 55 55 55 55 55 54 53 45 51 56 50 42 45 63 64 69 70 67 65 65 61 56 44 45 49 62 59 50 47 54 57 61 67 67 74 72 73 73 74 72 76 78 78
53 53 54 54 54 54 54 55 55 55 55 55 54 54 54 54 57 47 46 52 57 54 41 38 47 56 68 68 68 66 66 61 50 44 48 50 53 46 48 45 54 57 62 66 73 70 63 67 65 70 69 72 72 77
54 54 54 54 54 55 54 55 55 54 55 54 54 54 54 54 54 48 51 54 56 46 43 38 43 52 68 60 60 67 62 59 51 49 49 47 47 49 44 51 54 57 60 60 64 67 66 64 61 64 65 64 68 71
54 54 54 54 54 54 54 54 54 54 54 54 54 54 59 57 55 53 54 53 52 45 37 37 36 41 65 50 63 65 64 54 55 46 44 45 45 42 47 49 51 53 54 55 58 56 55 55 57 57 59 63 63 68
53 53 53 54 54 54 54 54 54 54 54 54 58 54 49 60 55 59 49 45 43 45 46 43 57 50 56 65 63 59 59 47 40 44 50 46 43 49 51 53 54 54 55 56 52 52 52 52 54 57 58 60 68 64
53 53 53 53 54 54 54 54 54 53 57 63 58 56 63 61 61 51 44 43 45 42 51 54 55 54 60 48 51 50 48 48 41 45 47 43 39 47 52 53 56 56 56 55 55 56 55 56 54 56 57 61 65 72
53 53 53 53 53 54 54 53 53 59 60 54 54 57 59 56 49 44 41 46 45 42 47 51 57 61 61 59 51 57 54 46 43 49 46 38 45 51 54 55 55 57 58 58 60 57 57 59 63 65 68 68 70 72
53 53 53 53 53 53 53 53 53 53 54 59 52 51 53 52 39 40 37 41 43 52 53 54 55 66 64 60 61 53 52 51 62 47 40 43 48 55 56 55 59 64 66 66 65 65 63 64 68 68 67 72 73 72
53 53 53 53 53 54 53 53 53 56 58 50 47 37 40 39 46 50 49 51 58 63 64 62 60 62 67 61 57 50 56 57 49 39 40 46 50 52 59 65 65 66 68 69 69 70 69 68 68 71 72 71 71 70
53 53 53 55 55 54 54 53 53 63 59 49 48 36 43 49 54 56 58 61 66 69 67 63 62 65 63 60 61 58 52 41 41 40 45 50 52 56 61 64 66 67 67 67 68 70 71 72 72 71 71 71 72 70
53 54 61 55 54 54 53 59 65 67 61 56 53 48 55 54 58 62 62 63 68 68 70 64 61 57 53 50 46 42 41 35 40 45 50 54 53 59 62 65 66 68 69 70 70 70 70 70 70 71 73 72 72 72
52 66 54 54 53 53 56 63 68 62 61 55 55 64 61 58 58 62 63 64 70 67 62 63 51 48 56 50 45 43 38 41 46 48 52 57 57 60 62 63 66 67 67 68 70 71 71 72 73 72 68 71 73 72
63 65 56 54 55 61 71 69 65 63 55 61 57 60 62 64 61 63 65 66 65 64 64 57 61 53 48 42 43 47 49 52 57 57 58 60 62 63 63 62 64 65 65 68 70 69 69 70 71 72 72 73 73 74
58 58 53 53 56 58 62 63 64 57 61 62 63 64 64 64 66 68 69 69 69 70 67 61 54 49 48 50 53 56 57 57 56 58 60 63 64 64 66 68 68 68 68 68 69 71 70 71 71 72 74 75 74 73
52 53 54 54 57 63 59 61 68 61 57 60 63 62 63 61 65 67 68 68 67 64 59 54 54 57 57 60 63 61 59 59 59 56 59 67 69 68 67 69 70 70 71 71 70 61 72 72 73 73 73 72 73 72
59 62 58 63 68 66 63 61 61 62 62 60 64 63 60 62 59 60 58 66 61 55 53 55 55 57 59 60 63 60 61 63 61 59 60 61 66 69 70 72 71 71 70 70 69 68 66 69 70 71 72 72 72 73
63 55 65 67 63 62 61 63 59 61 55 60 61 61 54 50 54 52 59 57 50 50 52 52 55 58 59 60 61 63 65 65 65 63 54 59 66 66 67 69 70 69 70 69 69 68 68 69 69 69 70 70 66 72
56 58 64 64 56 51 52 67 55 57 51 53 60 52 49 51 57 62 50 49 51 54 58 61 64 66 65 66 66 65 67 67 69 69 69 71 70 70 71 71 72 68 66 68 70 69 68 59 65 68 70 69 69 69
51 56 54 55 57 49 64 58 64 60 62 56 54 48 54 55 57 48 46 50 55 61 65 65 68 66 68 65 66 65 66 69 69 70 69 69 69 70 71 72 72 71 68 68 68 68 68 67 60 68 67 66 67 66
47 46 54 43 59 56 56 56 57 61 54 57 53 54 58 61 52 49 47 51 58 61 64 66 66 65 63 64 65 66 66 68 66 65 67 68 68 69 69 70 70 68 69 66 65 65 65 66 66 66 66 66 63 63
42 57 48 60 61 59 59 55 55 56 59 56 58 65 65 58 52 48 47 54 59 63 64 64 63 63 63 64 62 63 64 68 67 65 66 68 67 64 63 62 63 64 66 65 64 62 62 64 64 63 64 61 53 59
50 58 65 69 66 66 62 67 66 63 56 55 60 59 61 50 44 48 53 55 55 61 65 65 64 62 60 63 64 65 66 66 64 64 68 70 70 68 64 60 59 59 64 64 63 62 60 59 59 59 59 60 61 60
62 63 58 64 65 70 61 62 60 59 60 66 61 53 51 48 44 56 59 63 63 61 59 61 61 62 64 64 66 66 66 66 66 66 67 69 68 66 64 64 64 47 61 60 60 60 59 57 56 56 56 56 58 60
64 72 68 62 65 64 62 59 59 65 66 64 56 50 46 49 53 55 55 55 56 52 50 57 63 66 67 67 67 66 64 61 56 53 52 55 56 58 61 61 61 61 61 61 44 51 54 55 55 55 56 57 57 56
67 74 63 63 61 58 63 69 66 68 66 63 59 52 48 49 51 57 60 64 64 64 65 66 65 64 61 61 60 60 62 60 57 53 48 49 53 57 57 57 57 58 59 58 58 58 48 54 54 57 54 53 52 51
71 68 64 62 61 66 69 69 69 67 65 63 62 54 49 52 58 60 67 68 68 66 64 63 63 62 59 58 56 54 54 58 56 54 51 53 54 54 55 56 57 57 57 56 56 56 54 53 52 50 49 48 48 48
72 67 67 61 64 69 69 62 63 63 64 61 59 58 55 51 48 59 64 66 64 63 55 60 59 58 59 59 59 59 45 57 54 53 50 50 51 52 54 55 55 55 55 55 55 54 52 50 49 48 47 46 46 46
71 71 69 68 68 66 69 63 58 58 60 62 60 64 62 59 51 60 68 67 63 62 61 62 63 62 59 58 57 57 53 56 45 38 39 38 37 41 49 53 53 54 53 53 52 51 49 48 47 46 46 45 45 47

GFSWCAN_sfc_temp_021.txt.gz
Temp
54 55 55 55 55 55 55 56 56 56 56 57 57 57 57 57 57 53 52 54 46 40 43 48 49 46 46 47 41 45 41 41 41 36 40 39 38 46 45 51 49 47 41 48 55 49 48 73 74 68 64 70 73 74
54 55 55 55 55 55 55 56 55 56 56 57 57 57 57 57 57 55 48 54 51 43 43 52 52 54 52 53 49 47 43 42 42 39 41 43 41 42 44 41 55 46 50 46 57 57 65 70 70 72 73 70 70 70
54 54 55 55 55 55 55 56 56 56 56 56 57 57 57 56 56 55 49 50 48 42 42 46 48 57 60 56 60 44 50 52 46 47 43 43 40 46 40 45 49 54 56 52 55 63 68 70 73 72 71 69 70 71
54 55 55 55 55 55 55 55 55 55 56 56 56 56 56 56 56 55 50 50 46 43 36 42 60 56 65 62 60 58 55 57 48 45 41 42 41 48 44 45 46 50 52 52 54 58 58 67 69 69 69 70 68 68
54 54 54 55 55 55 55 55 55 55 55 56 56 56 56 56 55 55 52 51 49 41 36 39 49 57 59 59 59 62 56 55 46 43 43 42 46 46 48 48 47 50 51 49 49 52 53 57 63 67 67 67 68 66
54 54 54 54 54 55 55 55 55 55 55 55 55 55 55 55 55 51 43 50 51 48 40 35 53 54 54 56 60 58 58 55 54 48 45 47 52 46 43 43 50 53 54 56 54 55 55 58 64 66 67 68 69 67
54 54 54 54 54 54 55 55 55 55 55 54 54 54 55 54 53 46 44 50 53 51 41 38 41 55 59 61 60 59 59 56 50 46 44 44 46 48 45 42 51 53 56 57 57 57 54 55 56 63 67 69 69 70
54 54 54 54 54 55 55 55 55 55 54 54 54 54 54 54 52 48 54 55 54 46 43 36 39 46 52 49 52 59 54 53 48 46 45 44 46 47 43 48 51 53 55 56 56 57 56 57 58 61 63 65 64 64
54 54 54 54 54 54 54 54 54 55 54 54 54 54 54 51 47 49 56 53 51 45 38 39 35 37 52 46 49 49 55 45 48 44 44 44 44 42 46 49 50 52 52 52 55 56 56 55 56 57 58 59 57 59
54 54 54 54 54 54 54 54 54 54 54 54 54 55 48 50 56 54 48 43 42 43 41 36 41 36 48 47 46 47 49 43 39 41 46 41 41 48 50 51 51 51 53 54 51 51 53 52 53 55 55 57 58 57
54 54 54 54 54 54 54 54 54 54 54 59 54 53 56 57 51 46 41 39 40 38 40 40 43 39 50 43 44 47 44 42 33 40 41 38 39 45 50 50 52 53 53 53 54 54 55 54 54 55 56 57 59 58
53 53 53 53 53 54 54 54 54 56 57 52 50 54 56 54 49 43 41 39 36 35 44 44 46 48 49 50 45 46 42 42 38 47 41 35 42 49 50 51 52 53 54 54 56 55 56 57 59 58 59 59 59 59
53 53 53 53 53 53 54 54 54 54 54 59 52 50 52 49 39 40 37 39 40 45 47 48 46 48 48 47 45 45 42 41 48 41 35 39 45 48 50 52 53 55 55 57 57 61 62 62 64 62 61 63 62 60
52 52 53 53 53 54 55 54 54 55 56 54 51 38 45 43 45 44 46 47 48 48 50 52 50 49 48 46 46 44 46 46 39 34 35 45 48 51 52 54 54 56 60 62 64 64 62 62 63 63 64 62 62 62
52 52 53 55 55 55 55 54 54 59 57 53 53 37 48 55 58 57 60 59 60 61 55 51 50 52 51 49 49 46 41 36 37 39 43 48 50 51 53 57 59 60 61 61 63 63 63 63 63 62 63 63 62 62
52 53 59 55 56 55 54 56 62 61 62 58 57 53 58 54 53 57 59 59 64 63 61 57 53 48 45 44 40 37 37 34 39 45 48 50 51 52 53 54 56 60 60 58 59 61 62 63 62 62 63 63 63 64
52 54 56 56 54 53 57 61 66 64 61 58 55 62 53 51 52 57 60 61 66 61 52 53 46 43 46 40 37 40 37 42 45 48 50 52 53 54 56 57 59 61 61 60 61 63 61 63 64 62 59 60 61 62
55 62 57 55 53 57 66 65 64 62 57 59 55 58 57 58 51 59 61 63 61 58 56 51 55 46 41 40 42 46 46 48 49 49 52 52 54 57 58 57 59 59 59 60 60 61 61 62 61 61 59 62 62 63
55 55 54 52 53 52 60 64 64 55 58 58 55 61 60 56 57 61 63 62 63 62 58 54 48 43 43 47 47 49 50 50 50 52 54 58 59 59 59 61 61 60 59 58 59 61 60 58 59 61 62 61 59 61
52 53 53 55 55 59 61 61 66 60 53 56 59 57 57 55 57 61 61 61 59 56 51 47 46 48 48 50 53 52 53 54 53 51 53 59 61 60 60 60 61 61 61 59 61 57 60 60 61 61 61 58 59 58
58 63 59 63 64 63 62 61 60 60 56 54 56 57 54 59 57 56 56 60 55 51 48 51 53 56 57 57 58 59 55 56 59 56 54 58 61 61 61 63 63 63 61 60 59 58 57 57 58 60 59 60 61 61
64 59 63 68 64 64 62 65 61 63 58 57 57 58 55 54 54 55 58 54 51 51 52 53 55 58 56 54 55 56 57 58 58 60 57 61 61 61 62 63 63 60 60 60 59 58 58 57 58 61 59 59 58 59
59 58 63 67 60 50 50 67 60 61 55 57 59 55 53 53 54 59 52 53 52 55 58 60 58 59 58 58 57 57 57 57 59 60 60 61 62 62 63 61 60 57 57 58 60 59 58 54 58 59 60 60 59 58
54 59 58 58 56 49 65 56 63 61 60 59 55 52 52 53 57 53 48 50 56 59 58 56 59 58 59 57 58 57 58 60 59 60 60 61 60 58 59 58 58 58 58 59 59 58 58 58 54 57 58 57 57 56
48 49 52 39 58 56 57 59 60 60 56 59 55 50 46 48 47 47 45 50 54 55 57 58 58 58 56 57 59 59 59 59 57 55 59 61 60 59 58 58 56 56 59 56 55 55 55 55 54 54 54 54 53 54
41 60 47 59 53 51 54 54 57 57 58 56 55 54 51 48 46 43 46 51 53 56 56 57 57 57 58 59 58 58 57 59 57 54 56 60 57 55 53 51 50 51 57 56 54 53 53 53 52 52 52 53 49 52
47 47 53 51 51 54 54 59 62 61 57 55 56 56 53 43 41 46 53 57 57 60 61 62 61 61 59 59 60 60 59 58 54 54 57 58 57 56 54 51 49 51 56 56 55 54 52 51 51 52 52 52 52 51
50 51 54 55 53 59 58 59 59 56 57 61 60 51 46 44 43 54 57 62 63 63 62 63 64 64 62 61 61 60 58 57 56 55 56 57 57 56 55 56 55 47 54 53 54 54 52 52 51 51 50 49 49 50
54 61 57 56 63 64 62 59 58 59 61 61 54 50 49 53 57 57 60 63 64 62 61 62 61 63 61 61 60 60 57 54 49 44 43 45 47 50 54 54 54 55 55 55 46 50 51 50 51 50 51 49 49 49
64 69 63 59 61 59 62 66 62 64 63 60 59 57 57 58 62 65 65 64 62 61 62 63 62 59 56 56 54 55 55 53 51 46 43 43 46 51 52 52 52 53 54 54 54 53 48 51 49 50 49 48 47 46
75 72 66 65 63 66 68 70 69 68 66 63 64 58 56 58 61 65 65 64 64 63 61 60 60 59 56 55 53 51 50 52 51 50 49 50 50 50 50 51 52 52 52 52 52 50 49 49 48 47 47 46 46 45
72 69 67 64 64 69 70 65 63 63 62 61 58 57 57 54 52 59 64 64 61 59 55 58 57 55 57 57 56 56 50 52 50 51 50 49 49 49 50 51 51 51 50 51 51 50 49 48 47 46 46 45 45 45
71 71 70 69 66 63 67 64 63 62 60 59 58 58 57 57 54 60 65 64 61 59 58 59 60 59 56 56 55 55 51 53 48 42 41 40 39 42 47 50 49 50 50 50 50 50 48 47 46 46 45 45 44 44

GFSWCAN_sfc_temp_024.txt.gz
Temp
55 55 55 55 55 55 55 56 56 56 56 57 57 57 57 57 57 48 44 47 44 40 42 48 46 40 41 37 35 37 39 37 34 34 35 33 32 37 37 46 46 44 42 43 48 46 46 64 66 64 64 63 69 69
55 55 55 55 55 55 55 55 55 56 56 56 57 57 57 57 56 54 43 47 47 42 39 49 48 49 47 47 40 37 39 40 41 35 35 37 36 38 36 37 50 42 47 45 47 47 56 60 59 64 67 64 63 64
54 54 55 55 55 55 55 55 55 56 56 56 56 57 57 56 56 54 44 45 46 42 42 41 39 48 51 50 53 39 44 48 42 45 37 37 34 42 36 40 46 50 53 49 50 54 54 54 58 63 64 62 64 64
54 55 55 55 55 55 55 55 55 55 55 56 56 56 56 56 56 55 43 47 46 42 35 38 50 46 54 51 51 51 48 50 45 43 36 34 34 44 41 43 45 49 52 50 50 53 55 56 57 59 62 65 64 63
54 54 54 54 54 55 55 55 55 55 55 56 56 56 56 56 55 51 46 47 49 42 36 38 45 47 49 52 51 52 49 47 42 39 37 37 43 43 46 45 45 49 48 48 47 52 49 53 58 64 62 62 63 63
54 54 54 54 54 55 55 55 55 55 55 55 55 55 55 55 54 43 40 49 49 47 40 35 42 45 49 49 48 50 52 49 48 44 40 44 48 45 40 42 48 52 53 53 52 55 53 57 60 62 61 64 65 64
53 54 54 54 54 55 55 55 55 55 55 55 55 55 54 54 49 43 42 48 52 48 39 36 37 46 51 48 46 45 51 48 45 43 43 43 44 46 44 40 48 52 55 55 57 56 54 55 54 60 60 62 64 66
53 53 54 54 54 55 55 55 54 54 55 55 54 54 54 53 52 47 51 53 52 44 42 35 36 40 50 45 45 51 49 48 46 44 44 43 45 45 41 47 50 53 54 55 55 56 56 56 57 58 59 58 60 60
53 53 53 54 54 54 54 54 54 55 55 54 54 54 51 48 45 47 54 53 49 44 38 37 35 34 49 46 47 47 48 42 47 42 43 44 43 41 46 48 49 51 51 51 54 54 55 53 53 55 57 56 56 56
53 53 53 53 53 53 53 54 54 54 54 54 50 47 43 47 56 54 48 43 42 42 41 34 39 36 43 46 44 44 46 42 38 41 44 40 41 47 48 50 51 52 52 54 51 50 51 51 51 52 53 56 56 57
53 53 53 53 53 53 53 53 54 54 54 48 43 42 48 56 49 45 40 36 37 35 37 35 38 38 47 41 40 46 41 40 33 39 40 37 39 45 49 50 51 53 53 53 53 53 53 53 54 54 55 56 57 58
53 53 53 53 53 53 53 53 54 48 46 47 47 49 46 46 44 42 39 37 33 35 42 42 43 43 46 48 43 43 38 39 36 46 39 34 42 47 49 49 50 51 53 53 54 54 55 57 58 57 58 59 59 59
52 52 52 53 53 53 53 54 54 53 51 48 45 45 44 43 38 39 35 38 40 44 46 46 45 46 47 46 43 43 40 40 47 37 33 38 45 48 49 51 52 53 54 54 55 56 56 58 59 59 60 59 61 60
52 52 52 52 53 53 55 54 54 52 48 44 43 38 41 40 43 43 44 45 50 48 49 48 47 46 47 45 46 42 42 43 37 34 37 45 48 50 51 53 53 54 56 56 58 60 61 60 60 59 58 59 58 58
52 52 52 52 55 55 55 54 53 49 48 45 45 34 39 45 48 52 55 56 58 59 52 48 47 49 45 44 44 44 40 34 35 36 43 48 50 51 51 53 55 56 57 57 56 58 59 61 61 60 58 58 60 59
52 52 53 55 55 54 53 53 53 51 50 51 49 46 49 46 48 52 54 53 57 59 54 50 46 44 42 41 39 37 36 34 40 44 47 49 50 51 52 53 55 56 57 55 58 60 59 61 59 58 61 60 61 62
52 47 54 55 54 52 54 52 54 53 53 53 47 51 46 46 45 49 53 54 60 57 49 47 42 40 45 41 40 41 39 42 45 47 48 49 50 51 52 54 54 58 58 59 59 60 58 60 60 59 57 60 61 61
47 51 55 54 52 51 52 54 54 55 51 48 43 46 47 48 47 51 55 57 54 50 50 45 50 42 40 38 40 44 46 48 50 49 49 51 52 53 54 53 56 59 57 57 57 57 58 58 57 56 57 57 60 58
50 51 53 53 51 48 48 55 54 48 50 49 46 48 48 48 50 55 55 57 58 56 48 46 44 41 41 44 45 47 48 48 48 49 51 54 53 55 55 55 55 53 53 52 54 52 52 51 51 53 55 52 50 53
53 53 54 55 54 49 51 49 54 50 48 49 49 49 49 48 51 54 54 55 50 48 47 41 42 44 44 42 42 46 48 49 45 45 47 55 57 54 53 53 52 51 52 51 51 50 53 54 53 53 51 52 51 49
54 56 57 55 51 50 51 49 49 51 51 48 48 48 46 48 49 49 50 49 50 46 41 42 43 44 47 48 51 53 51 45 47 47 44 49 54 54 55 55 56 54 53 49 48 48 49 49 49 53 51 51 51 50
52 57 53 57 54 54 50 52 50 50 48 48 47 47 45 44 44 45 47 48 45 46 48 48 46 46 49 49 48 49 48 52 51 54 53 50 50 50 51 52 53 50 50 48 47 48 50 52 52 53 52 49 50 48
54 53 52 55 52 43 47 52 49 49 46 47 49 47 46 46 47 51 42 43 46 48 51 49 47 48 48 49 49 49 49 51 51 51 51 48 48 50 51 51 53 51 49 51 51 50 49 47 49 50 50 49 47 46
54 50 49 49 48 42 52 49 52 51 50 48 45 42 44 45 48 46 42 44 49 53 49 49 48 48 48 47 46 48 49 49 49 51 51 48 47 47 48 48 50 50 46 47 49 47 47 47 46 47 48 48 48 46
44 47 47 38 49 49 51 51 52 48 46 48 46 42 41 43 44 44 40 42 45 46 46 47 48 52 45 44 44 46 47 46 45 46 48 48 46 48 46 45 45 47 45 46 44 44 43 45 45 45 46 46 45 45
41 50 44 48 46 46 46 46 48 50 50 48 47 43 43 43 41 38 39 41 43 45 46 46 47 48 45 44 42 42 42 44 46 44 42 46 45 42 40 39 40 43 44 44 43 44 44 44 45 45 45 45 43 44
42 47 48 48 48 48 46 48 51 49 48 48 49 46 44 42 37 40 44 46 47 51 53 53 51 47 46 44 44 44 44 47 43 40 42 44 45 45 42 40 39 40 44 46 45 45 44 44 43 43 42 42 43 42
48 48 47 49 49 51 50 50 49 46 46 49 48 43 43 44 39 44 46 53 55 53 53 54 51 50 47 45 45 44 42 43 44 43 42 42 43 43 43 43 44 44 44 44 45 44 44 43 42 43 42 40 40 41
49 50 51 48 52 53 52 51 48 48 49 47 44 42 41 44 47 48 50 51 51 51 48 46 46 47 46 47 47 44 42 40 39 36 35 34 35 38 42 43 42 44 43 44 44 44 45 43 43 42 42 40 40 40
55 56 51 53 53 51 52 53 50 51 50 49 48 46 46 47 50 52 50 49 48 46 46 47 45 45 42 42 40 39 40 40 39 36 33 33 34 38 40 40 41 42 41 42 42 42 43 43 42 41 41 39 37 37
59 57 56 56 54 54 56 56 56 54 52 50 50 50 49 47 50 52 51 49 49 48 47 45 44 44 43 42 40 37 35 38 40 40 39 38 38 39 39 40 40 40 40 42 41 41 40 39 39 38 39 38 39 38
60 59 55 54 53 55 55 52 53 52 52 49 48 49 48 46 44 47 50 50 48 46 47 46 43 42 43 43 43 42 42 41 40 41 39 39 39 39 39 39 39 41 41 42 42 41 41 39 38 38 37 38 38 38
59 60 59 57 54 54 54 52 53 50 50 49 48 49 49 47 45 47 51 50 48 46 46 46 46 45 45 45 44 43 43 42 43 42 42 41 40 39 37 38 40 41 41 40 41 41 40 40 38 38 38 38 37 37

GFSWCAN_sfc_temp_027.txt.gz
Temp
55 55 55 55 55 56 55 56 56 56 56 56 57 57 57 57 57 49 44 46 43 39 42 45 46 41 41 40 34 35 35 34 32 32 32 34 30 35 33 39 38 39 39 38 42 41 37 57 57 50 53 58 66 66
55 55 55 55 55 55 55 55 56 56 56 56 57 57 57 57 56 54 42 49 48 42 41 46 47 48 47 46 40 40 36 35 36 33 34 34 34 35 32 31 43 38 43 41 46 46 52 55 57 58 58 57 59 65
54 54 55 55 55 55 55 55 56 56 56 56 56 57 57 56 56 54 46 44 44 41 43 42 39 47 49 49 52 38 43 43 39 44 39 37 34 37 34 35 40 45 48 45 49 51 54 56 59 59 60 58 59 60
54 54 54 54 54 55 55 55 55 56 56 56 56 56 56 56 56 55 45 44 44 42 35 38 48 42 49 48 47 48 46 44 46 43 38 35 34 40 35 39 39 46 48 48 49 52 56 57 57 58 59 61 61 61
54 54 54 54 54 54 55 55 55 55 55 56 56 56 56 56 55 52 47 47 47 41 36 37 45 46 48 47 47 46 45 43 42 38 37 36 39 38 38 38 41 49 47 46 45 51 51 52 55 58 57 58 59 59
53 53 54 54 54 54 55 55 55 55 55 55 55 56 55 55 54 47 39 45 47 47 39 34 41 43 47 47 47 45 44 41 43 42 39 41 44 40 36 34 43 49 52 51 50 53 54 55 56 58 57 59 61 60
53 53 54 54 54 54 54 54 55 55 54 55 55 55 55 54 50 43 41 46 50 48 39 35 37 45 50 47 44 43 45 42 41 40 40 40 41 41 35 37 45 48 52 53 55 55 52 54 54 58 59 61 61 62
53 53 53 54 54 54 54 54 54 54 54 54 54 54 54 53 52 47 49 50 50 44 41 35 35 39 50 44 43 47 43 42 42 42 43 41 44 43 37 44 49 52 54 55 55 56 55 56 56 55 59 60 59 59
53 53 53 53 53 54 54 54 54 54 54 54 54 54 50 48 45 46 53 52 49 44 36 36 34 35 47 44 45 45 46 40 45 41 43 43 39 34 43 47 49 51 51 51 53 54 54 53 52 54 55 55 55 56
53 53 53 53 53 53 53 54 54 54 54 54 50 46 43 45 56 53 47 43 42 42 39 33 38 36 42 44 44 43 45 41 38 41 44 39 40 47 48 49 51 51 52 54 50 49 51 50 50 52 53 55 55 55
53 53 53 53 53 53 53 53 54 54 52 45 41 40 46 55 49 45 39 35 35 33 34 35 35 36 45 39 40 45 39 39 33 38 39 37 36 44 49 50 51 52 53 53 53 52 53 52 52 52 53 55 56 56
52 52 52 52 53 53 53 53 54 49 44 47 47 50 46 43 44 42 39 37 34 35 40 38 40 41 44 47 42 42 36 38 34 45 38 33 38 46 49 50 52 52 53 54 54 54 55 57 57 56 57 57 57 58
52 52 52 52 53 53 53 54 54 54 51 47 43 44 42 42 39 39 35 40 41 45 46 46 45 46 45 45 42 42 40 38 45 36 32 39 45 48 50 52 52 54 55 55 56 56 56 57 59 57 57 58 60 60
52 52 52 52 53 53 55 54 54 51 47 44 42 37 41 40 42 42 43 44 48 48 48 47 45 46 47 44 45 41 42 42 36 33 37 45 47 49 51 52 52 53 55 56 57 58 57 57 57 59 59 57 58 57
52 52 52 52 54 55 54 53 53 48 48 45 46 36 40 45 46 50 51 51 54 57 50 46 46 47 42 42 43 41 39 34 35 37 43 47 49 50 51 52 54 55 56 56 56 57 58 58 57 56 57 58 57 57
52 51 52 53 54 53 52 52 52 50 49 50 47 44 45 45 47 50 50 50 56 56 51 48 45 42 42 42 41 37 35 34 40 44 47 48 50 51 51 52 52 54 56 54 56 57 57 57 57 59 59 60 60 60
52 46 54 54 53 52 52 52 53 54 51 49 46 46 43 44 42 45 50 51 56 53 45 46 41 40 44 40 39 42 40 43 46 47 48 49 49 50 51 54 53 55 54 56 57 57 56 57 58 56 54 56 57 58
46 49 53 53 51 49 51 52 53 54 50 48 43 45 44 45 45 49 51 54 50 45 45 43 47 39 38 38 39 44 46 47 48 48 48 48 48 49 50 49 53 54 51 52 54 55 55 54 51 50 52 54 54 55
48 51 52 53 51 47 49 52 53 49 46 45 46 45 45 45 49 52 53 54 55 51 43 41 41 38 38 41 41 43 44 44 44 45 45 47 48 49 49 49 51 51 50 48 49 49 50 48 47 48 49 50 48 48
52 54 54 55 53 49 50 48 50 48 45 46 46 46 45 44 46 51 51 50 47 43 42 38 41 42 41 41 39 39 39 40 41 43 43 47 49 51 49 48 47 47 49 50 49 48 50 49 50 48 48 47 47 45
52 54 55 53 51 50 49 47 47 47 46 45 45 45 44 45 47 48 48 49 48 44 41 40 40 42 47 46 42 45 47 44 42 40 39 41 47 48 48 49 49 49 47 45 45 45 46 44 45 47 46 46 45 45
49 54 51 54 52 51 48 48 48 47 46 45 46 48 43 43 42 42 43 40 43 44 44 44 42 41 43 43 43 42 42 45 46 47 47 47 46 47 46 45 47 46 45 43 43 42 42 43 44 45 44 43 45 45
52 52 50 52 49 45 47 49 48 48 47 47 45 43 43 45 44 46 39 42 45 48 48 49 47 46 43 43 46 45 43 44 44 44 44 43 43 43 44 45 46 45 44 44 43 44 43 42 43 43 43 44 44 43
52 49 48 46 46 42 49 47 47 46 46 45 41 37 40 43 48 45 37 38 42 43 43 43 42 42 41 41 39 38 39 40 41 43 42 40 40 39 39 40 40 41 41 41 41 40 41 41 42 43 43 43 42 41
45 46 45 37 45 46 47 46 47 47 45 44 41 40 39 44 44 38 35 38 41 42 42 43 42 41 38 37 37 38 39 38 38 39 39 38 38 39 39 39 39 38 39 40 39 40 39 40 41 42 42 40 40 39
40 47 43 46 44 45 44 44 45 45 45 46 42 42 41 40 38 35 37 40 41 42 46 47 42 39 38 38 37 37 38 38 38 38 37 37 37 36 35 35 35 38 39 38 40 41 41 41 41 41 40 40 40 40
41 45 46 47 46 45 45 45 46 45 45 43 42 43 41 37 34 38 41 44 46 48 45 45 43 41 39 37 38 38 38 37 38 38 37 37 37 37 36 36 35 37 38 42 41 41 41 40 40 39 39 38 38 39
48 46 47 46 46 47 47 46 45 43 44 44 43 39 39 40 38 42 44 46 46 45 43 43 42 41 40 39 38 38 38 37 39 38 38 38 37 37 38 38 39 41 39 40 41 41 40 40 40 40 39 38 37 38
47 47 48 47 48 48 48 48 46 46 46 44 42 39 40 42 44 45 46 45 43 44 42 41 39 39 39 38 37 36 36 36 36 33 32 30 32 34 36 37 38 39 38 39 41 41 42 41 40 39 39 37 36 37
51 50 48 49 50 48 48 49 48 48 45 45 45 43 43 44 47 47 46 45 44 43 42 41 40 39 36 35 35 35 36 35 34 34 31 31 32 34 35 36 37 37 36 38 38 39 41 40 39 38 38 36 35 34
53 51 51 51 50 51 51 50 49 49 48 47 46 44 43 44 47 46 45 44 43 43 42 40 39 38 37 36 35 34 33 36 36 37 36 35 34 35 36 36 36 36 37 37 38 38 37 37 36 36 36 36 36 35
52 52 51 49 48 50 52 49 49 50 48 46 45 45 44 43 42 44 45 44 43 42 42 41 39 39 39 39 39 38 40 38 38 39 39 37 36 36 36 35 36 37 38 38 38 37 38 38 37 36 35 35 35 35
54 53 52 51 48 50 49 49 48 47 46 45 45 46 45 44 42 45 46 45 45 43 42 42 41 41 41 41 40 40 40 39 40 40 40 40 40 38 36 35 36 38 38 38 38 39 38 38 36 36 36 35 35 35

GFSWCAN_sfc_temp_030.txt.gz
Temp
55 55 55 55 55 55 55 56 56 56 56 56 57 57 58 57 57 50 48 44 43 39 41 45 46 40 41 40 33 36 33 33 33 30 30 29 32 32 30 35 34 31 31 30 33 33 34 56 56 52 53 56 58 58
55 55 55 55 55 55 55 55 55 56 56 56 57 57 57 56 56 54 45 46 47 42 41 47 47 48 47 46 41 40 39 34 38 33 34 33 32 34 31 28 39 33 39 36 40 40 49 54 54 56 57 58 59 58
54 54 54 54 54 55 55 55 55 56 56 56 56 57 57 55 55 54 46 47 44 41 38 38 39 46 49 49 51 38 42 45 41 39 34 34 33 36 28 31 37 41 44 41 43 49 52 54 56 57 59 59 60 59
54 54 54 54 54 54 55 55 55 55 55 56 56 56 56 56 55 55 47 47 45 41 34 36 47 42 46 45 46 47 46 45 44 43 38 36 33 38 33 36 35 39 40 40 42 50 52 54 55 55 58 60 59 60
53 54 54 54 54 54 55 55 55 55 55 55 55 56 56 56 55 52 49 47 48 40 34 38 44 44 44 43 43 45 44 41 39 38 37 36 39 38 38 37 34 40 39 36 38 49 50 51 54 57 58 58 58 58
53 53 54 54 54 54 54 54 55 55 55 55 55 55 55 55 54 47 41 46 48 47 39 34 40 45 49 46 43 41 41 41 41 39 38 41 44 38 33 33 42 45 47 48 46 53 52 54 56 58 57 58 59 59
53 53 53 54 54 54 54 54 54 54 54 54 55 55 55 54 50 44 41 46 49 47 39 35 37 44 47 43 43 41 43 42 41 39 37 38 39 40 33 32 42 44 46 49 52 54 52 54 53 55 57 60 60 61
53 53 53 54 54 54 54 54 54 54 54 54 54 54 54 54 51 47 49 50 50 44 41 34 36 37 44 40 40 42 38 40 42 40 42 40 41 39 32 38 42 45 45 48 52 56 55 55 54 54 56 56 57 58
53 53 53 53 53 53 53 54 54 54 54 54 54 54 50 49 46 46 53 52 49 43 35 35 33 33 43 41 43 44 45 40 45 40 42 41 37 33 39 43 47 48 45 47 54 54 54 53 54 54 55 54 53 54
53 53 53 53 53 53 53 53 54 54 54 53 47 44 42 46 55 53 47 42 41 41 38 33 38 35 41 43 43 43 44 40 36 40 43 38 36 44 47 49 50 51 53 53 50 50 52 52 53 54 54 55 55 54
52 52 52 52 53 53 53 53 53 54 52 44 41 39 47 53 49 46 38 36 34 33 33 35 36 36 44 39 40 43 38 37 32 38 38 35 36 43 49 50 52 53 53 53 53 53 52 53 53 54 54 55 56 57
52 52 52 52 52 53 53 53 53 52 45 48 47 50 48 45 45 42 39 37 35 35 38 38 40 39 42 46 41 42 35 36 33 43 37 33 42 48 49 50 52 54 54 54 55 55 55 56 56 56 55 56 56 57
52 52 52 52 52 53 53 54 53 53 50 48 44 43 45 44 38 39 35 39 42 46 45 45 44 45 44 45 42 42 40 38 44 36 32 40 46 48 48 48 49 50 51 54 55 56 57 57 57 56 56 58 60 58
52 52 52 52 52 54 54 53 53 51 47 43 43 37 40 40 42 42 41 42 47 48 47 45 45 44 46 42 42 41 42 42 36 32 36 42 45 47 47 48 48 48 49 50 51 53 54 55 54 55 56 56 58 57
52 52 52 52 55 54 53 52 53 48 47 44 44 35 39 45 46 47 47 47 52 53 48 45 43 44 42 42 44 41 38 33 34 38 42 46 48 48 47 47 49 52 53 53 51 52 53 53 52 54 55 56 56 55
52 52 52 54 54 53 52 51 51 50 48 49 46 41 44 43 45 48 48 47 54 52 49 48 44 41 41 42 41 38 34 34 40 44 46 48 48 49 48 49 50 53 55 53 52 54 55 55 54 53 55 56 56 56
52 47 54 53 53 52 53 53 53 51 48 47 43 43 41 40 40 42 47 49 50 51 42 45 40 39 44 39 36 40 38 40 43 44 44 45 45 45 47 50 50 51 51 52 52 52 52 54 54 52 51 52 54 53
45 49 53 53 52 49 52 51 52 52 46 44 41 43 42 42 42 46 47 51 46 41 42 39 42 38 36 34 35 39 41 43 45 43 42 43 44 44 46 45 47 47 47 48 49 49 48 48 47 47 49 50 51 50
48 51 52 53 52 48 50 52 51 45 45 43 43 43 43 43 46 48 51 51 50 44 42 39 38 35 36 39 39 39 40 40 40 43 44 43 45 44 45 47 47 46 46 45 46 46 48 47 46 47 48 49 47 47
52 53 54 54 53 49 50 47 48 47 44 44 44 44 42 42 43 46 49 50 45 41 38 36 36 38 41 38 37 36 37 38 41 43 41 44 45 45 43 43 43 43 46 47 47 46 46 46 47 46 46 45 45 44
52 53 54 52 51 49 48 45 46 45 43 43 43 43 43 43 42 41 41 43 41 38 37 40 41 42 45 43 40 39 39 39 38 38 38 40 43 43 45 46 46 46 44 43 43 43 43 42 42 44 45 44 44 44
48 53 50 53 50 50 47 46 46 45 45 44 43 44 45 45 41 41 41 43 44 42 41 40 40 39 40 40 40 39 39 41 41 41 43 42 40 41 41 42 43 42 42 41 41 41 42 42 43 44 44 43 45 45
51 51 50 51 48 44 46 47 47 45 43 42 42 41 41 45 45 44 38 38 40 42 41 40 41 40 39 40 41 40 40 39 38 38 40 39 39 39 40 40 41 41 41 40 40 41 41 41 42 43 44 44 44 43
52 48 47 45 44 41 48 46 45 44 44 42 40 37 39 42 47 39 36 38 41 41 41 40 40 40 39 39 37 37 37 37 38 38 37 39 38 38 38 39 40 41 40 41 41 41 41 42 42 43 43 43 42 42
45 45 45 37 44 45 45 45 45 44 42 41 40 39 39 43 40 36 35 38 40 42 42 41 40 39 38 37 37 37 38 37 37 37 37 37 38 39 39 39 40 39 40 42 41 42 41 42 42 43 43 42 42 41
39 45 43 44 43 44 43 43 43 43 43 42 41 41 40 39 37 35 37 40 40 42 43 43 40 38 37 37 37 38 38 37 37 37 37 36 37 37 37 36 36 39 40 40 42 43 42 42 42 42 42 42 40 42
40 45 45 45 45 44 43 44 44 43 42 41 41 41 40 36 35 38 41 41 42 44 44 43 42 40 39 37 37 38 37 37 38 38 38 37 37 37 38 37 36 38 39 42 43 44 43 42 42 42 41 41 41 42
47 45 47 46 45 45 45 44 44 43 43 42 42 40 39 40 38 42 43 45 44 41 40 39 39 40 39 38 38 39 40 38 38 38 37 38 38 38 38 39 39 39 40 42 43 43 43 43 42 42 41 40 40 41
47 46 47 46 47 46 47 47 46 45 45 43 43 40 41 42 44 44 45 45 42 43 42 40 38 38 37 37 37 37 37 37 38 35 34 33 34 37 38 38 39 40 39 42 40 41 43 42 42 42 41 41 40 40
49 48 47 48 48 48 49 48 47 46 44 45 46 44 44 45 46 46 45 43 42 43 42 41 39 39 38 38 37 38 38 37 37 37 35 35 36 38 37 38 39 38 38 41 42 42 40 42 41 42 41 40 40 39
49 48 49 49 48 49 49 47 47 47 47 46 46 45 45 45 46 45 45 44 43 41 41 40 39 39 38 38 37 37 37 39 38 40 39 38 38 38 39 39 38 39 40 41 41 41 41 40 40 40 40 39 39 39
49 49 49 48 48 48 49 47 47 47 46 46 45 45 44 44 43 45 45 44 43 42 42 42 41 40 41 41 40 39 40 40 40 41 42 40 40 40 39 39 39 41 41 41 41 41 41 40 39 39 39 38 38 38
50 49 49 48 46 47 48 48 46 46 44 43 44 45 47 46 43 46 46 46 46 45 43 43 43 43 43 44 43 42 40 41 41 39 39 39 39 39 40 40 40 41 41 41 41 41 40 40 39 39 39 39 38 39

GFSWCAN_sfc_temp_033.txt.gz
Temp
55 55 55 55 55 55 55 55 56 56 56 56 57 57 57 58 57 52 47 48 46 40 42 46 47 39 41 41 34 42 41 40 40 34 34 37 36 41 37 45 44 42 38 38 42 40 38 65 67 58 64 66 67 68
54 55 55 55 55 55 55 55 55 55 56 56 56 57 57 57 56 55 47 47 48 42 42 52 53 54 51 51 44 41 42 41 42 36 35 35 35 39 38 32 49 39 46 44 46 48 59 63 62 70 68 64 67 67
54 54 54 54 55 55 55 55 55 55 55 56 56 56 56 56 56 54 48 46 46 41 42 45 47 54 56 54 56 38 42 47 45 47 41 39 33 41 34 37 42 48 52 45 47 53 56 60 64 66 67 67 68 69
54 54 54 54 54 54 55 55 55 55 55 55 56 56 56 56 56 55 49 47 45 42 35 43 55 50 57 56 53 52 51 52 48 42 36 35 35 44 38 42 42 48 50 47 46 51 52 56 61 65 68 68 68 66
54 54 54 54 54 54 55 55 55 55 55 55 55 56 56 56 55 54 51 48 48 42 36 39 49 53 54 53 50 50 48 46 43 37 37 36 39 39 41 40 36 47 45 42 42 53 53 56 62 67 63 66 66 60
53 53 53 54 54 54 54 54 54 54 54 55 55 55 55 55 54 49 44 48 49 47 39 35 51 49 51 48 48 47 46 45 43 38 37 40 47 39 35 35 47 51 52 53 50 55 55 56 60 65 63 64 62 59
53 53 53 53 54 54 54 54 54 54 54 54 54 55 55 54 51 46 42 47 50 49 40 36 39 52 53 49 44 43 46 42 41 38 36 37 39 39 33 32 42 45 46 49 53 53 49 54 55 64 62 64 59 61
53 53 53 53 54 54 53 53 54 54 54 55 54 54 54 53 52 47 49 50 50 44 41 35 37 43 51 45 44 47 41 40 39 37 39 37 39 36 31 39 42 44 46 45 46 50 52 56 61 61 58 59 58 60
53 53 53 53 53 53 53 53 53 54 54 54 54 54 56 51 46 47 54 52 49 44 37 36 34 36 51 46 47 44 41 36 41 36 39 40 34 32 38 41 44 50 47 47 50 52 53 55 55 56 56 57 59 62
53 52 53 53 53 52 53 53 53 54 54 53 54 54 48 48 55 53 47 42 41 42 39 34 39 36 44 43 43 42 44 38 35 38 43 35 33 43 46 50 52 52 54 52 49 51 53 53 54 55 55 57 61 64
52 53 53 52 52 53 53 53 54 54 54 54 48 47 52 54 49 46 38 37 36 34 35 35 37 36 44 38 40 42 38 36 33 38 36 33 34 41 46 47 52 55 55 54 55 54 54 54 54 56 59 60 62 63
53 52 52 52 53 53 53 54 54 54 51 50 49 51 51 50 47 44 41 40 37 37 40 38 41 39 41 45 42 43 38 38 35 43 37 32 40 44 45 46 47 50 53 52 52 52 54 56 56 57 58 58 59 62
52 52 52 52 53 53 54 53 53 53 52 52 49 51 49 48 38 38 35 38 40 46 48 47 46 45 46 47 44 44 41 38 46 37 32 37 43 46 46 47 48 49 49 50 51 51 51 51 53 55 56 58 59 59
51 52 52 52 53 54 53 53 53 53 55 51 47 37 44 40 40 40 41 42 49 49 50 49 49 46 48 46 46 41 42 43 38 33 33 40 45 48 48 49 49 47 48 48 48 49 49 49 49 50 52 53 54 53
51 52 52 55 54 54 53 53 53 58 58 50 48 38 45 49 49 51 52 52 56 56 51 49 51 52 49 47 45 42 41 34 35 36 42 46 49 47 47 49 51 52 50 49 49 49 50 50 49 48 50 52 55 55
52 53 58 54 53 53 52 56 61 62 57 55 51 47 50 50 49 51 51 51 56 54 58 56 49 46 44 42 39 36 35 33 37 41 44 46 46 46 47 49 50 51 52 52 53 52 51 50 53 52 54 54 55 55
52 59 54 53 53 53 54 64 63 57 55 53 50 53 48 48 47 51 53 53 57 56 49 51 40 38 46 39 36 36 34 37 42 44 45 45 45 45 49 49 49 51 51 52 52 52 53 54 55 54 51 52 54 54
55 57 54 53 53 55 62 61 60 58 51 53 51 51 52 51 50 54 55 56 54 53 52 46 51 41 37 36 39 44 44 46 47 47 49 48 48 48 50 49 50 50 50 51 52 52 52 54 53 53 53 55 56 56
54 54 53 53 54 58 59 59 60 53 54 55 55 56 55 55 55 57 57 58 58 55 54 51 45 42 42 46 45 47 47 47 46 49 51 50 50 50 50 51 51 51 50 49 50 51 52 51 51 54 55 56 54 54
52 53 53 55 56 59 58 56 58 57 54 55 56 55 53 55 55 57 57 56 55 53 48 45 45 47 49 50 49 47 47 47 50 51 51 53 53 52 49 50 51 53 55 54 54 49 53 53 54 54 52 51 52 52
56 58 56 58 60 59 58 57 56 56 55 54 52 50 51 53 54 54 53 56 53 49 46 47 50 51 51 51 51 51 51 50 49 49 49 51 53 54 53 53 55 55 53 53 53 53 51 51 52 53 52 52 53 54
58 54 60 60 59 58 57 56 57 55 56 54 53 55 53 52 51 52 54 51 49 48 50 51 51 53 52 49 49 49 49 50 50 52 48 49 49 50 51 52 53 53 52 52 52 52 51 52 54 53 53 52 52 52
55 56 59 59 57 50 49 55 54 53 51 51 53 50 50 51 52 55 49 50 51 52 53 53 50 50 49 49 51 51 49 49 50 50 51 51 52 51 53 52 53 51 51 52 53 53 52 47 50 54 54 54 53 53
53 56 54 53 52 46 56 54 55 53 53 51 49 47 48 49 52 50 46 51 55 55 54 51 52 52 53 50 51 50 49 50 52 51 49 51 51 50 51 51 52 53 52 53 53 53 53 53 48 53 53 52 51 51
49 48 50 39 53 53 52 52 52 53 49 49 48 47 48 50 47 45 45 51 54 55 55 54 52 52 51 52 52 51 49 50 50 49 49 49 50 53 52 53 53 51 53 54 52 52 52 53 52 51 51 50 49 49
42 52 47 53 51 52 51 50 50 49 51 49 48 49 49 48 45 43 49 54 55 56 56 55 54 52 51 52 52 51 51 51 50 49 48 49 49 48 47 47 48 51 52 51 52 52 51 51 50 49 49 48 42 48
47 53 53 53 54 54 53 54 54 52 50 49 50 48 49 44 44 50 55 55 55 58 56 55 56 55 55 52 51 52 52 51 49 49 49 50 50 49 48 46 46 48 50 51 54 53 51 50 49 49 49 49 49 49
56 54 55 55 54 56 53 53 52 51 53 53 53 48 47 48 50 57 56 57 57 52 53 53 54 56 54 53 53 54 53 52 51 50 50 51 52 51 49 51 51 41 49 52 53 54 53 52 51 49 48 48 48 49
55 56 56 54 55 55 55 56 57 59 58 56 54 53 53 56 58 57 56 57 55 54 54 52 50 52 52 51 52 53 53 52 48 44 43 44 46 47 50 50 51 51 52 53 40 45 50 51 51 50 48 48 49 51
58 59 57 55 55 56 59 60 60 58 58 60 57 54 53 55 57 57 55 54 54 55 56 55 53 53 53 52 52 51 53 53 52 49 45 44 46 49 49 49 49 50 51 52 53 51 41 49 47 51 49 49 49 48
59 58 57 58 57 60 59 59 57 57 56 56 56 56 53 51 55 53 53 56 57 56 54 53 53 53 53 53 52 50 50 53 51 50 51 52 52 51 50 50 50 51 51 51 51 51 50 49 48 47 46 46 46 45
58 57 58 56 58 58 57 58 58 57 56 54 55 55 53 52 50 54 51 54 54 54 50 54 56 55 55 56 55 54 41 54 53 53 50 52 51 51 51 52 52 51 51 50 49 49 47 46 46 45 45 44 45 45
59 59 58 58 57 55 58 56 54 54 54 53 54 54 54 55 51 54 53 56 57 59 57 57 57 56 54 54 53 53 46 54 48 40 39 39 37 41 49 52 52 51 50 49 47 47 46 45 45 45 45 44 44 45

GFSWCAN_sfc_temp_036.txt.gz
Temp
55 55 55 55 55 55 55 56 56 56 56 56 57 57 57 57 57 53 49 49 45 39 45 52 51 44 43 45 39 47 47 49 50 42 43 47 46 52 47 52 51 50 48 49 50 48 46 72 72 63 71 75 76 75
55 55 55 55 55 55 55 55 55 55 56 56 56 57 57 56 56 55 48 49 49 43 45 57 57 57 54 51 45 44 47 46 50 42 43 41 43 46 46 43 57 46 54 53 55 55 66 70 69 72 72 70 72 73
54 54 55 55 55 55 55 55 55 55 55 56 56 56 56 56 56 55 50 47 46 42 43 49 54 62 65 62 61 42 46 50 50 54 46 46 37 51 45 48 51 55 60 53 54 59 61 66 69 71 72 71 74 76
54 54 54 55 55 55 55 55 55 55 55 55 56 56 56 56 56 55 50 48 47 43 37 51 62 57 63 62 59 57 54 54 52 49 41 40 39 53 45 51 50 56 58 54 54 59 61 64 67 68 68 71 72 74
54 54 54 54 54 54 55 55 55 55 55 55 55 55 56 56 55 55 52 49 50 44 39 46 57 62 62 60 56 55 52 49 46 39 37 36 40 41 46 47 47 55 52 50 49 59 59 60 66 69 68 69 71 73
54 54 54 54 54 54 54 54 54 55 55 55 55 55 55 55 55 54 50 51 54 49 41 40 59 55 57 53 51 51 50 47 44 39 37 39 46 38 35 35 47 51 54 58 54 60 62 64 66 68 65 66 69 73
54 54 54 54 54 54 54 54 54 54 54 54 54 55 55 54 58 56 50 51 52 51 41 38 48 59 57 52 46 45 46 43 40 36 35 37 38 39 34 32 43 47 48 48 52 53 51 58 60 65 66 68 70 73
54 53 53 53 54 54 54 54 54 54 54 54 54 54 53 53 52 50 51 51 52 46 44 37 45 52 54 45 43 44 39 39 37 35 36 35 37 36 32 39 43 46 48 47 48 49 51 57 60 63 65 64 68 68
53 53 53 53 53 53 53 53 54 54 54 54 54 54 59 55 49 50 54 53 52 45 37 37 36 37 54 47 47 43 42 35 40 35 35 39 34 33 34 40 47 55 56 53 53 50 50 51 55 56 57 63 62 59
53 53 53 53 53 53 53 53 54 54 54 54 57 62 54 50 56 54 48 44 43 42 40 35 39 36 43 43 43 43 43 38 36 39 44 36 35 42 44 47 47 50 52 54 50 48 52 54 53 57 61 59 56 57
53 53 52 52 52 53 53 54 54 54 53 63 64 59 55 55 48 47 43 39 39 36 38 38 39 38 47 39 40 43 39 39 35 42 41 37 35 41 45 47 49 49 50 50 52 53 58 59 57 54 57 57 58 57
52 52 52 52 52 53 54 54 54 62 64 58 58 56 59 53 55 50 43 44 41 41 50 42 44 43 44 46 43 47 43 46 39 50 41 33 40 46 46 46 48 50 50 49 50 49 50 51 55 56 57 55 56 57
52 52 52 52 53 53 54 54 53 54 55 58 54 58 56 53 39 39 36 40 42 54 54 54 48 50 49 50 48 49 47 43 52 42 33 38 47 50 50 48 48 50 50 50 49 50 50 50 50 50 52 55 59 57
52 52 52 53 53 54 54 53 54 56 64 61 54 38 50 48 48 46 46 48 55 56 60 59 59 56 59 52 47 44 44 47 39 33 34 45 48 51 51 53 52 51 50 49 49 49 48 49 49 49 50 51 52 52
52 52 53 56 55 54 54 54 55 70 68 58 58 42 50 55 60 60 62 62 64 64 63 63 64 64 58 53 51 45 43 36 36 36 40 50 50 51 51 53 54 55 54 54 54 54 55 52 50 49 50 53 54 51
53 53 64 55 54 54 53 64 72 73 67 62 58 55 58 58 59 61 61 61 66 66 67 67 57 53 52 51 42 36 36 33 36 42 49 49 48 52 53 55 55 56 56 56 58 59 58 57 56 54 55 55 56 56
51 70 54 54 53 54 57 74 72 65 63 59 59 63 61 59 59 61 62 62 67 64 58 59 46 43 57 48 42 47 41 43 47 48 54 52 50 51 55 55 56 57 55 57 58 59 60 62 60 59 55 57 57 57
66 68 56 54 55 65 75 73 69 64 57 63 59 60 63 62 61 62 64 65 63 61 59 53 58 49 45 41 45 52 54 57 57 57 55 53 53 55 57 55 55 56 55 57 58 60 60 61 60 61 60 61 62 61
60 59 54 53 57 66 69 67 69 60 63 66 64 65 65 64 64 66 66 66 66 66 64 59 51 48 48 53 52 54 55 55 55 58 59 56 55 56 56 58 59 58 58 57 57 58 59 59 59 61 63 61 59 60
52 53 53 55 58 71 64 65 69 65 62 64 65 65 64 62 64 65 64 64 63 60 55 53 52 54 55 56 57 57 57 58 58 56 57 57 59 58 56 58 59 60 61 60 61 53 60 60 61 61 60 58 59 58
59 64 59 64 72 72 69 68 66 65 67 63 66 62 63 67 63 61 60 64 59 56 53 57 58 59 58 59 60 59 57 57 56 56 55 56 59 59 59 61 61 61 59 59 59 58 56 57 59 60 60 60 61 60
69 56 69 70 70 67 67 68 66 67 65 65 64 65 62 60 60 60 63 59 56 57 59 60 59 60 60 56 57 57 56 56 57 58 53 55 57 57 58 59 59 58 58 58 58 58 58 59 60 61 60 59 58 58
58 62 70 69 64 56 54 68 61 63 58 61 64 59 59 59 60 64 59 61 59 63 62 62 60 58 57 59 58 58 57 56 57 57 57 58 60 59 59 59 59 57 56 57 59 59 58 51 57 59 60 59 59 59
53 64 62 62 62 53 65 62 67 63 62 60 58 53 56 58 62 60 55 60 61 65 63 59 61 59 60 56 59 58 57 59 58 59 58 56 56 57 59 59 60 60 59 60 60 59 59 58 52 58 58 57 56 56
51 52 57 41 63 60 58 59 59 62 56 57 54 55 58 60 56 54 53 60 63 63 63 64 64 62 58 60 63 60 58 58 56 54 57 57 56 57 57 58 59 58 60 58 58 58 57 58 57 56 55 55 53 54
43 59 50 61 61 59 61 56 57 57 59 56 57 61 61 57 51 50 59 63 64 64 63 62 60 60 62 61 58 58 57 59 57 56 56 56 55 54 53 52 54 56 59 59 58 57 56 56 55 54 54 51 44 52
50 59 65 66 66 65 63 65 65 62 57 56 61 57 57 51 52 59 64 65 66 68 67 67 64 62 61 61 61 62 61 59 56 55 57 57 57 57 54 52 50 54 57 58 59 57 55 55 54 54 54 55 55 54
65 64 60 64 63 68 60 62 59 57 62 66 64 55 54 55 58 66 67 68 68 66 65 64 65 65 64 63 64 63 63 63 58 59 59 59 61 59 56 57 57 43 54 57 57 58 57 56 55 54 53 53 53 52
63 68 67 62 64 64 64 63 65 71 72 68 62 62 62 67 69 70 68 69 70 66 63 60 60 63 63 63 63 64 63 61 55 50 48 51 52 54 57 57 57 58 59 59 37 46 52 53 53 53 52 51 50 51
66 70 65 63 62 63 70 73 70 73 73 72 71 66 66 66 70 71 65 62 61 61 61 64 63 63 64 63 61 61 64 63 61 55 51 50 52 56 57 56 56 57 57 58 57 55 42 50 50 53 50 50 50 50
73 69 64 66 66 72 72 73 72 70 69 68 69 64 65 66 66 67 64 64 66 63 59 60 63 66 64 62 59 57 57 61 59 57 57 59 59 57 55 55 57 57 56 55 53 52 51 50 51 48 48 47 47 46
69 65 66 63 68 72 69 68 70 68 69 65 66 68 66 64 59 62 62 65 62 59 53 62 66 61 63 63 62 61 41 60 62 61 56 59 57 57 57 57 57 56 53 52 52 51 50 48 47 46 46 46 46 46
69 69 67 67 67 64 69 66 64 63 65 65 65 65 66 63 57 60 63 64 63 66 65 66 64 63 60 60 59 59 51 60 50 40 43 39 37 42 52 58 57 55 52 50 49 49 47 46 46 46 46 45 45 46

GFSWCAN_sfc_temp_042.txt.gz
Temp
55 55 56 56 56 56 56 56 56 56 56 57 57 57 57 57 57 54 52 52 46 40 44 50 52 47 49 48 41 51 51 46 49 41 43 44 43 49 53 54 53 53 50 50 54 52 50 72 74 63 68 73 74 75
55 55 55 55 55 56 56 56 56 56 56 56 56 57 57 57 57 56 49 53 51 43 46 55 58 59 57 57 50 49 48 50 52 41 43 47 46 51 51 45 62 51 55 53 57 58 69 71 71 74 77 73 73 73
55 55 55 55 55 55 55 55 55 55 56 56 56 57 57 57 56 56 52 50 47 43 45 50 55 63 65 63 65 48 53 55 53 56 49 51 45 53 46 51 51 56 62 56 58 63 66 70 74 75 75 74 75 76
54 55 55 55 55 55 55 55 55 55 55 56 56 56 57 57 56 57 52 51 50 45 39 54 66 58 65 63 62 60 55 55 54 51 44 43 42 52 46 49 49 55 57 54 55 61 65 68 70 72 72 73 74 75
54 54 55 55 54 54 55 55 55 55 55 55 56 56 56 57 56 59 60 57 55 46 41 50 58 60 60 56 53 54 50 47 44 40 38 37 41 41 48 50 48 56 50 46 47 56 55 57 64 69 70 72 73 73
54 54 54 54 54 54 55 55 55 55 55 55 55 56 56 56 55 59 51 58 60 56 43 40 61 54 55 51 49 48 46 45 43 39 37 39 44 39 35 37 50 50 50 52 48 54 56 59 63 66 65 68 72 73
54 54 54 54 54 54 54 54 54 54 55 55 55 56 57 56 62 58 51 54 56 58 46 45 47 54 53 50 46 45 46 41 39 37 35 36 37 39 35 33 41 42 45 45 47 47 46 52 55 63 65 67 68 71
54 54 54 54 54 54 54 54 54 54 55 55 55 55 55 53 53 56 61 56 58 53 49 40 48 53 56 47 42 44 40 40 39 38 38 36 37 36 32 38 43 46 48 53 55 58 52 55 59 61 64 64 63 64
53 53 53 54 53 53 54 54 54 55 55 55 55 55 61 60 59 57 56 56 61 55 42 47 39 44 62 52 45 43 41 36 40 36 38 37 33 33 37 42 44 45 46 48 57 59 58 54 53 58 60 61 61 62
53 53 53 53 53 53 53 54 54 55 55 55 58 59 54 62 56 57 53 49 52 57 56 45 52 45 57 52 48 45 42 43 37 44 45 41 37 45 47 47 47 46 48 53 52 50 51 50 51 55 57 61 62 63
53 53 53 52 53 53 54 54 55 55 54 62 63 64 63 56 58 53 55 53 54 46 49 49 55 51 60 48 47 52 50 51 41 47 45 39 36 43 50 49 49 49 49 50 51 51 51 54 56 56 58 61 60 57
53 52 52 52 53 53 54 54 54 59 73 66 69 70 65 57 59 58 54 57 52 50 62 60 59 54 60 59 48 53 49 54 46 56 43 33 42 48 51 52 52 51 50 49 51 50 51 51 51 51 51 52 52 52
53 52 52 53 53 54 55 54 55 56 54 72 68 65 65 64 46 51 47 52 53 64 65 66 51 51 59 60 55 56 53 49 60 45 35 42 48 52 53 54 54 56 55 51 50 51 51 51 51 50 50 51 52 52
53 53 53 53 53 55 55 55 56 58 63 70 64 41 59 56 61 62 60 62 68 69 69 68 51 53 61 60 60 49 53 54 42 34 35 45 49 52 56 56 54 53 55 56 55 51 50 49 49 50 51 51 51 51
52 53 53 55 55 55 55 55 56 66 72 66 66 46 59 67 71 71 71 70 70 72 71 67 66 65 61 56 57 55 48 38 37 36 43 50 51 51 55 57 56 55 56 56 57 58 55 52 50 49 50 51 51 51
53 54 66 55 55 55 55 60 63 74 75 71 69 64 69 67 66 68 67 66 72 71 73 70 63 56 55 55 50 46 42 35 43 45 50 55 54 53 53 55 59 58 57 57 57 58 60 58 56 54 55 53 52 53
51 75 55 55 54 54 57 73 80 71 72 66 68 73 70 67 65 67 68 68 73 69 62 65 55 52 59 50 46 51 46 52 56 55 58 56 56 53 55 56 58 60 58 59 58 59 59 61 61 60 56 57 59 58
67 75 58 54 55 66 82 81 77 73 66 70 67 69 71 71 67 68 70 71 69 66 65 60 64 54 50 46 49 55 58 60 61 61 59 59 58 59 58 59 60 61 60 59 58 60 60 60 59 59 59 59 60 59
63 60 55 53 56 65 75 75 75 68 70 73 72 74 72 71 72 72 72 71 72 72 67 64 57 54 54 57 56 58 59 58 58 60 63 61 62 62 62 63 62 62 61 61 59 61 62 61 62 63 62 62 59 58
52 53 53 54 58 73 71 73 77 71 68 70 70 69 69 69 71 72 71 71 69 66 61 58 57 59 59 59 61 60 60 59 59 58 59 61 64 63 63 63 63 63 64 63 62 57 63 63 64 63 62 61 60 59
63 68 61 68 77 77 75 73 72 72 72 66 73 71 68 71 69 68 68 72 66 61 60 63 63 63 63 63 64 62 61 59 58 59 59 59 62 63 64 64 64 65 63 63 62 60 59 60 62 64 63 63 62 61
75 59 75 75 75 75 73 78 72 74 70 70 70 72 66 65 66 66 70 66 64 63 64 64 63 63 63 61 61 62 61 60 61 63 55 59 61 62 62 64 63 62 62 62 62 61 60 62 61 64 63 63 62 61
63 66 75 76 70 60 58 77 68 71 64 66 69 64 65 66 68 72 63 68 67 69 68 66 64 63 62 64 64 64 63 61 62 63 63 63 63 64 64 64 64 62 60 62 64 63 62 55 60 61 61 62 62 61
54 71 69 69 69 56 73 68 74 69 69 64 63 60 63 66 69 63 61 66 68 71 68 64 67 66 66 63 64 65 64 65 63 63 64 62 60 61 63 63 64 64 62 63 64 63 63 62 57 61 59 59 59 60
55 55 58 41 68 67 66 66 66 67 63 66 63 61 65 69 61 59 60 66 68 67 66 66 66 67 65 65 66 65 65 64 61 59 62 62 61 61 61 62 63 62 63 61 61 61 61 61 61 60 59 58 56 54
43 65 51 68 68 66 68 63 64 64 66 64 65 69 69 63 59 56 62 66 67 66 64 63 62 59 58 65 63 63 63 65 62 59 60 62 61 59 57 56 57 57 62 62 61 59 59 60 59 58 58 55 49 55
49 66 72 77 73 73 69 70 70 68 61 59 66 66 57 47 54 62 68 71 68 68 68 70 66 63 61 64 66 66 68 67 62 62 64 64 65 63 60 57 55 57 61 62 61 59 58 58 57 57 56 56 55 55
71 72 66 65 70 74 67 63 58 57 54 64 70 60 55 57 54 60 72 74 72 73 71 70 69 68 68 68 67 67 67 68 67 66 67 65 66 64 63 63 62 46 59 60 59 60 58 57 57 56 55 54 54 55
69 71 71 69 71 71 68 58 64 72 74 68 67 65 67 65 54 63 73 75 75 72 68 66 68 69 70 70 69 70 70 67 61 57 55 56 58 59 63 62 62 61 61 59 42 49 54 54 55 55 55 55 55 55
69 76 71 71 68 66 70 71 69 79 80 79 77 75 72 69 73 76 75 72 70 69 69 70 70 69 67 67 65 65 69 68 65 61 56 55 57 61 61 60 60 60 60 57 56 55 45 52 50 54 53 54 53 53
78 77 73 72 70 69 76 78 82 81 76 76 77 70 69 68 60 65 71 71 72 70 69 69 68 69 67 65 63 61 60 65 64 63 62 63 62 61 60 59 60 59 59 57 55 54 53 54 53 52 51 51 51 50
77 70 71 68 72 78 80 75 76 74 75 72 73 74 72 67 59 66 69 71 71 69 58 65 67 64 66 67 66 65 45 63 62 60 58 58 58 58 59 59 60 58 56 55 54 53 52 51 51 50 51 50 50 50
76 75 76 74 72 72 76 75 72 71 72 68 61 67 69 65 60 65 70 72 70 70 69 69 69 68 65 65 64 64 55 57 48 41 42 40 38 43 56 57 57 57 54 52 51 50 49 49 49 49 50 49 50 50

GFSWCAN_sfc_temp_045.txt.gz
Temp
54 55 55 56 56 56 56 56 56 56 56 57 57 57 57 57 57 54 51 51 45 40 44 49 49 43 44 43 38 44 44 44 41 36 36 34 36 41 42 46 42 44 43 43 44 44 37 60 64 55 59 65 66 66
54 55 55 55 55 56 56 55 55 55 56 56 57 57 57 57 57 56 49 53 51 43 45 52 52 54 53 53 46 46 42 44 46 38 38 40 39 42 43 33 48 38 43 35 45 44 58 63 61 67 67 64 62 63
54 55 55 55 55 55 55 55 55 56 56 56 56 57 57 57 57 55 51 49 47 43 45 48 49 55 57 57 59 43 46 49 45 48 43 42 38 43 36 40 42 48 53 43 45 50 54 59 58 59 59 61 65 65
54 55 55 55 55 55 55 55 55 55 55 56 56 57 57 57 57 56 52 51 50 46 40 48 60 52 58 56 53 50 48 50 49 48 41 39 37 43 37 41 39 46 48 41 43 49 49 55 55 56 57 59 62 64
54 54 55 54 54 55 55 55 55 55 55 55 56 56 56 57 57 58 57 55 56 47 40 45 53 55 55 55 52 50 47 45 42 38 37 35 39 39 41 42 41 47 41 36 35 43 43 45 52 54 52 54 57 60
54 54 54 54 54 55 55 55 54 55 55 55 55 56 57 57 56 54 48 54 58 55 44 41 56 53 53 51 49 47 46 44 42 38 36 38 42 38 33 32 43 44 45 44 40 47 47 48 50 52 50 53 57 60
54 54 54 54 54 54 54 54 54 54 55 55 55 57 57 56 57 54 50 54 57 57 46 45 47 53 53 50 47 45 45 41 40 37 35 35 37 39 33 31 40 42 44 46 49 50 46 48 45 53 55 58 60 62
54 53 53 54 54 54 54 54 54 54 55 55 56 56 54 53 52 55 57 55 56 52 50 43 48 49 55 47 43 45 41 42 40 38 38 35 37 35 31 36 43 44 47 50 52 53 49 52 53 54 55 57 56 57
53 53 53 53 53 53 54 54 54 55 55 55 56 56 57 54 57 56 58 57 57 52 45 47 41 44 55 51 46 43 42 38 40 37 38 37 32 32 37 42 43 44 44 46 53 53 52 51 51 54 54 55 54 55
53 53 53 53 53 53 53 54 55 55 55 55 56 57 55 58 57 57 54 50 51 52 53 44 50 46 56 49 47 44 42 41 39 43 43 39 37 46 46 47 47 47 47 48 45 46 49 49 50 53 54 55 54 55
53 53 53 53 52 53 53 54 55 55 55 58 58 60 58 56 57 52 50 50 52 43 49 46 50 47 53 48 46 50 45 46 36 42 42 37 36 43 49 48 50 50 48 48 48 49 49 50 50 50 50 52 52 51
53 53 53 53 53 53 54 54 55 55 64 59 58 66 61 56 55 54 52 55 50 46 57 53 50 51 53 55 47 50 45 47 41 49 40 34 41 47 49 50 51 51 51 49 49 48 48 49 49 49 49 49 50 50
53 53 53 53 53 53 54 55 55 55 56 65 62 61 60 57 45 52 47 51 51 59 62 59 53 53 51 54 49 50 47 44 54 41 33 40 45 49 50 51 52 54 53 52 50 50 49 48 49 49 48 50 49 48
52 53 53 53 53 54 55 55 56 56 59 59 61 41 53 54 55 57 57 57 62 62 63 61 55 53 57 52 54 48 50 48 39 34 34 41 46 48 51 53 52 52 53 53 51 50 49 48 48 49 49 49 49 47
53 53 53 54 55 55 55 56 56 60 61 63 63 42 57 64 66 65 65 64 64 66 64 55 59 60 56 53 53 51 45 37 37 37 42 45 48 49 50 52 53 52 53 53 54 53 50 49 48 48 49 49 49 48
53 53 63 56 55 55 55 56 57 64 69 67 66 62 65 62 62 64 62 61 66 65 66 63 58 53 51 51 47 44 40 35 42 46 48 51 50 50 50 52 53 53 53 53 54 55 55 51 49 49 50 49 49 49
52 67 55 55 54 55 55 67 70 69 68 65 62 70 66 64 61 63 64 63 67 63 57 58 51 50 55 47 45 49 44 47 50 51 53 53 51 51 52 53 54 54 53 53 53 54 55 57 56 55 51 53 54 54
61 70 59 55 54 61 74 71 73 70 66 68 64 65 67 66 63 64 65 65 63 60 59 57 59 52 48 45 45 49 51 53 53 53 54 54 54 54 55 53 54 54 53 53 53 55 54 54 54 53 53 53 54 53
59 57 54 53 54 57 70 73 72 64 67 69 68 68 67 66 67 67 67 65 65 65 61 57 53 49 49 51 50 52 52 52 51 53 54 55 55 54 56 56 55 54 54 53 52 54 56 55 53 54 54 54 52 52
52 52 53 54 56 67 69 69 74 66 64 66 69 67 67 66 68 68 67 66 63 62 57 54 53 54 54 54 55 54 53 53 53 52 52 54 55 54 56 55 54 55 55 54 53 53 54 54 56 55 54 52 51 51
62 68 61 61 69 66 71 69 63 65 68 66 66 68 65 67 66 64 64 66 61 57 55 58 57 57 58 57 58 57 55 54 52 53 52 53 55 56 56 56 57 56 55 55 54 53 52 51 53 54 55 53 53 54
70 62 71 72 70 73 70 73 68 69 67 67 67 66 63 62 63 63 65 62 59 59 59 58 58 58 58 57 57 57 57 56 55 56 54 55 54 55 55 57 56 55 55 55 54 53 53 53 53 55 55 54 53 53
62 65 70 73 68 54 53 73 66 67 62 64 66 63 63 63 64 67 60 62 61 62 62 60 61 60 57 60 60 58 58 56 56 55 56 57 57 56 57 57 58 55 54 54 57 56 54 52 53 54 54 54 54 53
56 67 66 63 64 52 70 66 68 67 67 64 61 60 62 61 63 58 57 59 62 63 61 62 61 60 60 57 58 56 57 58 57 57 57 56 55 54 56 57 58 57 55 56 58 56 56 55 52 54 53 52 52 53
52 52 55 39 65 64 63 65 66 65 58 57 60 62 58 51 45 52 52 60 62 61 60 62 60 59 57 57 59 58 58 58 56 54 55 56 55 56 55 56 55 55 57 55 55 55 54 55 55 53 52 52 51 50
42 61 51 65 66 64 65 62 62 47 49 48 56 63 60 52 50 50 48 55 59 61 62 62 61 59 58 60 58 58 58 60 57 55 55 57 56 54 52 51 51 51 56 55 55 54 54 55 54 53 52 52 48 51
46 62 68 72 71 70 65 55 56 55 54 51 55 60 58 52 46 44 50 55 60 64 66 64 62 62 61 61 61 61 62 61 57 57 58 59 59 58 55 53 50 52 56 57 55 55 53 53 53 53 52 51 51 51
67 69 64 68 68 67 49 49 51 55 61 62 62 60 58 56 48 51 53 54 65 67 67 67 66 66 65 64 64 64 63 63 61 61 61 61 61 60 58 58 55 48 53 52 53 54 53 52 52 52 51 50 49 51
67 71 70 64 67 66 59 56 59 61 67 67 62 63 59 58 57 57 60 66 68 69 67 66 64 66 67 65 65 66 65 63 58 54 53 52 54 55 58 58 57 57 56 53 44 48 50 50 50 50 52 51 52 50
68 74 68 68 65 65 67 70 68 72 76 75 70 63 62 59 63 63 65 69 67 66 67 68 68 66 64 62 61 61 62 62 60 56 52 52 53 57 57 56 56 56 55 55 53 53 46 49 50 51 51 50 49 49
77 72 63 66 69 73 76 77 75 73 73 57 56 53 53 57 57 62 68 68 70 68 67 65 64 64 62 60 58 57 55 58 57 56 55 57 57 55 55 55 56 56 54 53 53 52 51 50 50 50 50 48 48 48
74 70 70 66 70 77 78 75 73 73 65 59 54 54 57 54 53 62 66 68 67 65 57 62 61 60 63 63 62 57 51 54 53 53 52 52 51 53 55 55 55 55 53 51 50 50 50 49 48 48 47 48 48 49
73 68 72 72 68 71 75 73 71 70 68 61 57 61 63 61 57 62 68 69 67 66 65 64 65 64 62 61 56 55 52 51 45 40 40 40 40 45 51 51 52 53 52 50 49 49 49 48 48 48 48 48 48 48

GFSWCAN_sfc_temp_051.txt.gz
Temp
54 54 55 55 55 55 55 55 56 56 56 56 57 57 57 57 57 52 49 50 46 41 43 48 48 42 43 41 35 40 39 39 36 32 31 31 31 34 33 34 33 33 32 33 34 35 34 50 50 41 44 50 50 49
54 55 55 55 55 55 55 55 55 55 56 56 56 57 57 57 56 55 48 51 50 45 45 45 50 52 48 47 43 43 40 40 37 34 34 35 34 34 35 30 41 32 34 33 34 36 47 48 47 50 52 50 49 48
54 54 55 55 55 55 55 56 55 55 55 56 57 57 57 57 57 55 49 49 48 43 40 40 44 51 52 51 52 41 43 41 40 43 37 36 33 35 31 32 38 40 44 35 36 43 44 49 50 49 50 50 52 52
54 54 55 54 55 55 55 55 55 55 55 56 57 57 57 57 56 53 47 49 46 40 34 40 51 47 52 49 51 50 47 48 41 39 34 33 34 38 35 35 36 38 40 36 39 44 45 50 51 50 49 51 52 53
54 54 54 54 54 55 55 55 55 55 55 56 56 56 56 56 55 52 47 46 45 42 35 37 43 44 47 48 47 47 45 43 40 38 35 34 38 37 37 36 35 39 36 34 35 44 42 44 50 51 49 48 50 51
54 54 54 54 54 54 55 54 55 55 55 55 56 57 57 56 56 50 45 46 47 45 39 38 46 44 46 45 45 43 43 41 39 37 36 37 41 37 33 32 39 43 45 45 43 48 49 49 51 52 49 50 51 52
54 54 54 54 54 54 54 54 55 55 55 55 56 55 56 55 49 47 44 48 50 46 39 38 42 46 48 44 40 40 41 38 39 38 36 37 37 37 33 32 40 44 45 46 48 49 48 50 48 51 53 54 52 52
54 54 54 54 54 54 54 54 55 55 55 55 55 55 54 54 52 47 49 53 50 43 41 37 43 45 47 42 39 38 37 37 38 37 39 37 37 35 30 38 42 45 46 46 47 49 47 49 50 50 51 52 52 51
54 54 53 53 54 54 54 54 55 55 55 55 55 55 50 46 44 47 57 54 46 43 42 43 39 40 49 45 39 39 37 37 38 36 39 39 33 33 36 39 41 44 44 45 49 49 49 46 47 48 48 47 46 47
53 53 53 53 53 54 54 54 54 55 55 55 50 48 45 47 57 55 46 45 46 41 39 40 41 42 45 45 43 42 38 36 37 39 42 38 37 42 43 43 42 44 47 47 44 43 45 45 45 46 46 47 47 46
53 53 53 53 53 53 53 54 54 54 54 48 46 46 47 55 46 47 45 41 41 40 42 39 41 40 48 43 43 45 41 38 31 36 36 35 35 39 43 43 43 44 46 47 46 47 47 46 45 45 45 45 46 46
53 53 53 53 53 53 53 53 54 49 48 49 48 50 47 45 43 40 40 41 39 39 43 42 43 43 44 46 44 43 40 41 32 39 37 31 35 41 42 43 44 44 46 48 47 45 45 45 44 44 45 45 45 45
53 52 52 53 53 53 53 54 54 53 51 49 48 46 46 45 39 42 39 40 40 45 46 46 43 44 46 43 42 41 39 34 39 32 32 35 38 41 41 42 44 44 47 46 47 46 46 45 46 44 43 45 46 45
52 52 52 53 52 54 54 54 54 53 48 48 47 38 44 43 48 48 43 42 46 45 46 44 43 43 43 44 41 38 37 38 30 22 27 35 39 41 41 43 43 44 45 45 46 46 45 45 45 45 45 45 45 44
53 52 52 52 54 55 54 54 54 50 50 48 48 40 49 52 50 49 48 46 49 47 45 45 45 43 41 41 39 38 36 27 29 27 34 37 40 41 41 43 43 44 44 47 47 45 46 46 45 44 45 45 46 46
53 52 54 55 54 54 53 54 51 51 51 50 49 48 47 46 47 47 47 46 47 46 45 45 42 41 39 38 37 34 32 24 31 35 38 39 42 42 42 43 44 44 44 44 45 45 46 46 45 45 46 46 46 47
52 51 55 53 53 53 53 52 53 53 53 53 50 51 48 50 47 47 46 49 46 46 42 43 41 38 40 37 35 36 33 35 37 38 38 39 41 42 43 44 44 45 44 43 44 45 45 46 46 45 45 47 46 47
49 54 55 53 52 51 54 53 56 56 54 52 51 54 49 50 48 48 49 48 49 45 44 43 43 39 36 35 34 37 37 38 38 38 39 41 42 43 44 43 44 43 44 43 43 43 43 43 43 43 43 45 45 46
50 52 52 52 51 49 54 57 56 52 55 52 51 49 50 51 49 50 50 49 48 46 46 43 41 38 38 38 38 38 37 36 38 39 40 41 41 42 43 45 45 43 43 43 42 41 40 40 41 41 42 44 42 43
52 52 53 53 52 52 55 54 55 53 52 52 50 49 49 50 51 49 50 49 47 46 45 42 42 42 41 42 42 41 40 40 39 40 41 43 43 42 43 42 41 42 43 42 41 43 42 42 41 41 41 42 42 42
52 55 54 52 50 52 53 52 52 51 51 50 50 49 49 49 49 49 49 46 46 45 42 43 45 46 45 46 44 43 43 45 43 41 41 39 42 40 41 42 42 41 42 42 41 40 41 41 39 39 41 41 41 43
52 56 54 54 55 56 52 54 53 52 51 52 51 51 47 47 47 49 49 47 46 48 47 46 46 45 45 45 46 45 50 48 42 41 43 42 40 40 39 40 41 41 40 41 41 41 40 40 39 41 41 41 42 41
54 54 55 58 55 48 50 53 53 52 51 54 54 51 46 45 48 50 45 45 47 49 49 50 50 48 46 47 45 46 48 45 42 41 40 39 38 39 39 40 40 42 42 42 40 41 41 41 41 41 41 41 41 40
55 54 53 52 52 48 54 53 52 50 49 47 46 47 46 45 47 45 43 43 45 50 50 51 51 47 49 46 43 43 43 43 41 39 39 41 39 38 38 39 40 41 40 41 41 42 42 42 41 41 41 41 41 39
46 45 48 39 49 51 52 52 50 49 46 46 46 46 45 47 44 42 41 43 45 48 46 48 45 49 45 41 40 41 42 43 42 41 40 41 39 38 39 39 39 38 39 41 40 41 41 42 43 43 41 41 41 40
40 49 46 52 52 51 54 50 48 46 46 46 47 48 48 46 44 44 43 45 46 47 46 48 47 47 42 42 42 41 46 43 41 40 41 41 41 40 38 37 37 40 40 39 41 42 42 42 43 43 42 42 41 42
41 49 51 52 52 50 48 48 47 45 46 45 44 46 47 43 43 45 45 46 46 48 48 48 46 49 45 43 44 47 45 43 43 45 44 43 43 46 44 40 39 40 41 44 43 43 42 42 42 42 41 40 40 41
52 52 52 52 50 49 49 46 46 45 46 46 46 44 44 44 43 46 46 49 51 49 47 45 45 47 45 44 44 46 43 49 48 46 45 43 44 43 45 43 42 42 44 46 43 43 43 42 41 41 41 41 40 40
51 53 54 53 51 48 48 48 48 48 49 46 46 43 45 47 48 48 49 49 49 47 46 46 45 48 50 51 49 48 45 43 43 41 39 37 38 42 41 41 41 42 43 43 41 43 45 43 43 43 43 42 43 41
53 56 57 54 54 52 54 50 49 49 48 48 48 47 48 48 50 49 47 48 47 45 45 48 48 50 47 44 40 41 41 39 39 39 36 35 36 37 40 42 45 44 40 41 42 43 43 42 44 43 41 39 37 37
57 55 56 54 53 52 52 53 51 50 49 48 48 46 48 48 48 48 46 47 46 47 48 43 42 42 42 39 38 37 36 37 39 39 37 36 36 37 38 39 39 40 40 41 41 40 39 39 39 40 40 39 39 38
56 56 54 53 51 51 55 53 50 48 48 47 47 49 47 46 46 46 48 46 46 44 45 43 42 39 39 40 39 39 39 37 37 38 38 37 37 37 37 38 39 40 40 40 40 39 40 38 38 38 38 39 39 39
55 54 55 54 53 53 54 53 50 48 48 47 47 48 48 47 46 47 47 46 47 46 43 42 43 42 43 43 41 39 38 38 39 39 39 39 39 37 36 37 39 40 40 39 38 39 39 39 38 38 38 38 37 38

GFSWCAN_sfc_temp_054.txt.gz
Temp
55 55 55 55 56 55 56 55 56 56 56 56 56 57 57 57 57 50 46 50 47 42 41 43 48 43 43 41 34 40 39 36 36 32 31 30 31 33 32 34 32 32 31 32 33 32 33 44 48 41 44 47 48 47
55 55 55 55 55 55 56 55 55 56 56 56 56 57 57 57 57 54 47 51 51 45 44 43 45 50 48 47 43 43 40 40 39 34 35 34 33 33 33 30 38 32 35 32 33 34 42 45 43 47 48 46 46 46
54 54 55 55 54 55 55 56 55 55 56 56 57 57 57 57 57 53 48 49 48 43 40 41 43 45 47 45 49 41 43 44 39 42 37 36 33 34 31 32 35 38 41 35 35 40 43 45 49 51 50 47 49 50
54 54 55 54 55 55 55 55 55 55 56 56 56 58 57 57 57 53 46 47 42 39 35 41 50 44 49 48 48 47 45 43 39 37 33 33 33 37 33 34 35 37 38 34 35 42 44 46 49 51 50 51 50 51
54 54 54 54 54 55 55 55 55 55 56 56 56 57 57 56 55 50 46 45 44 43 39 41 43 45 44 46 47 47 44 41 39 36 35 33 37 36 37 36 34 41 36 34 34 43 43 44 48 51 49 49 50 49
54 54 54 54 54 54 54 54 55 56 55 55 56 57 56 56 55 50 44 45 45 44 38 39 46 42 44 44 44 42 42 40 39 36 36 38 42 37 33 32 39 43 44 44 43 48 48 49 49 49 50 51 52 50
54 54 54 54 54 54 54 54 54 56 55 55 56 56 56 55 48 47 44 47 49 44 38 36 43 48 46 40 39 39 40 39 39 39 37 36 37 37 33 32 40 43 44 45 47 47 44 46 44 49 49 51 53 52
54 54 54 54 54 54 54 54 55 56 55 55 55 55 55 54 51 46 47 51 48 42 39 36 41 46 48 40 37 37 36 37 39 38 39 37 38 36 31 39 42 45 46 46 46 48 47 48 49 49 50 49 47 46
54 54 53 53 53 54 54 54 55 55 55 55 56 55 49 46 44 46 56 52 45 43 40 42 39 38 44 44 40 38 36 36 37 37 39 39 33 33 37 40 41 44 44 44 48 48 48 46 46 46 47 46 44 44
54 53 53 53 53 53 53 54 54 54 54 55 50 47 44 46 56 53 45 45 46 44 40 39 41 40 42 43 44 42 37 34 36 39 42 38 36 42 44 42 42 44 46 46 43 42 43 43 44 44 44 46 45 45
53 53 53 53 53 53 53 53 54 54 53 47 45 45 46 54 46 48 45 42 42 40 41 40 42 38 46 44 41 45 39 37 31 38 36 32 28 38 43 42 43 44 47 47 46 44 43 43 43 43 44 45 45 45
53 53 53 53 53 53 53 53 53 49 47 48 48 48 46 44 42 40 39 39 38 38 41 40 41 42 42 46 44 41 41 39 31 38 33 24 34 41 42 43 44 43 45 46 47 45 45 45 43 42 42 43 45 45
53 53 53 52 52 53 53 53 53 53 51 48 47 45 46 43 38 42 37 39 39 43 44 43 41 43 46 42 41 39 38 33 37 32 31 33 37 41 42 43 43 44 46 47 46 47 46 45 45 44 42 44 45 45
53 53 53 52 51 52 54 54 53 52 47 46 46 37 42 41 47 44 43 42 45 43 44 41 40 41 41 42 38 36 36 37 30 20 25 34 38 41 42 43 43 43 44 45 46 47 47 46 45 45 44 43 43 43
53 53 53 52 52 54 54 54 54 49 48 47 46 37 43 48 47 47 46 44 46 44 42 41 41 41 39 40 37 37 35 28 27 27 33 37 39 40 41 42 42 43 43 45 45 45 46 46 45 44 45 45 45 44
53 53 53 53 53 53 53 53 51 49 49 48 46 45 47 45 45 46 45 45 45 43 42 42 40 40 37 36 37 34 33 25 32 34 37 38 41 41 41 42 43 43 43 43 44 45 46 46 45 45 45 45 46 45
52 51 53 53 52 52 53 50 50 51 51 49 48 47 51 46 47 46 45 47 44 45 41 41 40 37 39 36 36 36 34 36 37 38 38 36 38 41 41 42 43 44 44 44 44 44 45 46 46 45 43 43 45 45
48 52 54 53 52 51 51 49 52 53 50 50 48 53 49 48 47 46 46 46 47 43 43 43 42 39 37 35 34 37 37 39 38 37 38 38 40 40 42 41 43 43 43 43 43 43 42 43 43 42 41 43 44 44
50 51 52 52 52 47 51 54 53 50 52 49 50 47 50 48 46 47 47 46 45 45 44 43 42 38 38 38 39 39 38 38 38 39 39 40 41 40 42 43 43 43 43 43 42 42 41 41 42 42 43 43 43 43
52 53 53 53 52 50 53 52 52 50 49 50 47 47 48 48 48 47 46 45 45 47 48 45 45 44 42 41 41 42 41 40 40 40 41 42 41 41 41 40 41 41 42 41 42 43 43 43 42 42 43 43 43 43
52 53 53 51 49 50 51 50 50 49 49 48 49 47 47 48 49 47 46 44 45 46 45 45 44 45 47 45 43 42 41 41 41 41 41 40 41 40 40 41 41 41 43 43 43 42 43 42 41 43 44 43 43 44
50 55 52 52 53 53 50 52 51 49 48 50 48 47 47 46 47 46 45 44 43 44 46 46 45 47 47 47 44 43 45 43 41 40 42 40 40 40 40 40 42 43 44 44 43 43 43 43 42 43 44 44 43 44
53 52 53 55 52 47 49 51 51 50 48 48 47 47 45 45 47 47 44 44 45 46 48 50 48 49 45 44 44 45 45 43 41 40 40 39 39 39 40 41 41 43 43 42 41 42 42 41 43 44 44 44 44 43
53 53 52 50 50 46 52 50 50 48 47 46 44 43 45 45 48 46 43 43 44 45 49 51 48 45 45 44 42 43 43 42 42 40 39 40 40 39 39 40 41 42 42 41 42 43 44 44 42 45 45 45 43 43
44 47 47 39 47 49 50 50 48 47 45 44 44 44 43 45 42 42 40 42 42 45 45 46 47 47 44 42 41 42 42 43 42 42 41 41 41 39 41 41 42 42 42 44 43 44 44 45 45 45 45 45 44 43
39 47 45 49 49 49 50 48 47 46 45 45 44 45 44 42 41 41 41 43 44 45 45 45 45 44 44 42 42 42 45 44 42 42 43 41 42 42 41 43 42 45 45 44 44 45 45 45 45 45 45 45 42 44
40 48 49 49 49 49 46 46 46 45 46 44 43 44 43 40 40 43 44 45 45 49 47 47 45 44 43 42 44 48 49 45 45 46 45 43 44 43 45 44 43 44 45 47 47 45 45 45 45 45 45 44 44 44
49 49 49 50 48 48 48 45 45 45 45 45 45 43 44 43 42 45 46 48 48 47 44 41 40 43 44 45 45 43 43 43 43 43 44 44 44 43 42 43 44 42 45 45 45 45 45 44 45 45 45 44 44 45
49 51 51 50 50 47 47 47 47 47 48 46 45 43 44 46 48 47 48 46 46 43 44 44 42 43 44 43 42 41 40 42 45 42 40 38 39 42 42 45 46 47 45 46 41 44 46 45 46 46 46 45 46 44
51 52 51 51 51 50 52 49 48 48 47 47 47 47 47 47 48 47 45 45 44 43 43 43 43 42 40 41 39 40 39 39 40 40 38 38 38 38 41 44 43 43 42 44 44 45 42 45 45 46 44 43 43 43
54 52 52 52 52 50 50 49 49 49 48 47 47 47 46 47 47 46 45 43 43 43 43 41 40 40 41 40 39 39 38 38 39 39 38 38 39 40 41 41 42 43 43 43 43 43 43 43 43 43 43 42 42 42
53 53 52 51 49 49 52 51 49 47 47 47 46 47 47 47 45 46 45 45 44 43 43 42 42 40 40 40 39 40 38 39 39 40 40 40 40 40 41 42 43 44 43 43 43 43 43 42 42 42 42 42 42 42
53 52 52 51 47 48 50 51 49 47 47 46 46 48 48 47 46 47 46 45 46 44 42 42 41 41 41 41 41 40 40 41 40 39 39 38 38 38 41 42 43 43 43 42 42 42 42 42 41 41 41 41 41 42

GFSWCAN_sfc_temp_057.txt.gz
Temp
55 55 55 55 55 55 56 56 56 56 56 56 57 57 57 57 56 54 51 54 48 44 51 50 50 44 45 43 37 42 44 41 37 33 33 33 32 34 33 36 34 34 32 33 34 30 29 43 43 43 49 55 52 54
55 55 55 55 55 55 55 56 55 55 56 56 57 57 57 57 57 54 49 53 52 46 49 53 54 53 51 49 43 46 41 42 39 34 35 35 33 34 35 31 38 33 36 35 36 35 42 45 43 49 55 53 51 52
54 55 55 55 55 55 55 55 55 56 56 56 57 58 58 57 57 55 51 51 51 47 50 52 53 55 57 53 54 44 48 47 46 44 38 36 33 34 31 33 34 37 40 35 34 40 42 45 48 53 55 55 53 54
54 55 55 54 55 55 55 55 55 56 56 56 57 58 57 57 57 55 53 54 52 48 44 52 58 54 57 57 54 53 51 50 47 45 41 37 34 39 34 33 34 37 39 35 37 42 43 44 47 50 54 55 54 54
54 54 54 54 55 55 55 55 55 56 55 56 57 57 57 56 55 55 55 55 55 50 46 51 56 56 55 55 52 52 50 47 44 42 38 35 40 36 40 38 35 40 39 35 35 43 44 42 46 49 50 52 54 53
54 54 54 54 54 55 54 55 55 55 55 55 57 57 57 56 55 53 52 55 55 56 47 44 53 52 53 53 51 50 48 46 45 41 39 42 43 39 35 33 38 43 45 44 42 46 46 46 48 49 49 50 50 50
54 54 54 54 54 54 55 55 55 56 55 55 56 56 56 55 57 54 53 55 53 55 48 47 48 49 51 50 48 49 48 45 46 42 40 40 40 40 36 32 40 44 45 46 47 47 45 46 44 48 49 50 51 50
54 54 54 53 54 54 54 54 55 55 55 55 55 55 55 54 54 55 58 53 54 53 50 43 46 49 52 47 44 44 45 47 45 43 45 40 39 39 33 43 44 45 48 48 48 48 47 48 48 48 49 49 47 46
54 54 53 53 53 54 54 54 55 55 55 55 55 55 56 55 53 55 56 55 55 51 46 45 42 45 52 49 48 43 45 42 44 42 44 44 35 33 41 46 47 45 46 46 50 49 49 47 46 46 46 46 45 44
54 53 53 53 53 53 53 53 54 54 54 55 56 54 53 55 56 56 52 48 47 46 47 41 49 44 52 51 50 44 44 44 38 43 46 42 40 49 49 49 48 49 50 51 46 44 45 45 45 45 45 46 45 45
53 53 53 53 53 53 53 53 53 54 54 56 54 53 55 54 54 51 48 46 46 43 45 44 45 45 52 48 50 50 43 43 35 40 42 40 39 46 52 51 51 51 52 51 50 50 50 49 48 46 47 47 46 46
53 53 53 53 53 53 53 53 53 55 57 56 55 55 55 53 50 49 49 48 44 48 51 48 50 46 51 52 48 49 45 44 38 48 44 35 46 50 51 52 52 53 52 52 52 51 51 51 50 49 48 48 49 48
53 53 53 53 53 52 52 53 53 53 53 56 55 53 52 52 43 49 46 51 52 57 57 56 51 51 48 51 49 48 43 41 49 44 34 44 49 51 52 53 53 54 54 53 53 52 52 52 53 52 50 52 52 51
53 53 53 53 52 51 52 54 53 53 54 55 53 40 51 50 53 55 56 56 60 56 57 55 51 50 50 48 50 44 45 48 40 34 37 49 50 52 53 54 53 53 53 54 54 54 53 53 53 53 53 53 53 51
53 53 53 53 52 53 53 53 53 54 56 54 54 43 52 59 58 59 58 57 59 58 55 54 54 54 53 49 50 47 42 37 39 40 47 51 50 49 52 53 54 54 55 56 55 55 55 56 55 54 55 54 54 54
53 53 55 53 53 53 53 53 55 57 57 55 53 54 58 55 60 60 59 59 60 58 55 55 53 50 48 50 46 43 41 36 44 47 51 52 49 50 52 53 54 54 54 56 57 56 56 57 55 54 56 55 55 55
52 59 53 53 52 53 53 57 57 55 57 55 58 60 59 56 56 60 60 62 58 59 55 53 49 47 49 47 44 46 45 50 52 53 54 50 50 51 52 52 53 54 54 56 56 55 55 56 57 56 53 54 55 55
54 59 54 53 53 53 57 57 58 59 56 61 58 63 57 60 59 57 58 58 58 56 53 52 51 48 46 43 43 49 48 49 52 53 53 52 51 52 52 52 53 53 54 55 55 55 55 56 55 55 53 54 55 56
55 54 53 53 53 55 58 59 59 58 61 62 61 60 60 59 54 52 53 52 53 54 53 51 47 43 40 44 48 50 49 50 54 54 54 53 52 52 52 53 53 53 54 55 55 57 56 53 54 56 57 57 55 55
52 53 54 53 53 58 58 60 61 58 59 62 60 60 59 56 53 54 52 53 53 55 53 48 45 43 43 46 50 50 53 55 54 55 56 57 55 53 53 52 54 53 55 54 56 50 57 57 56 56 56 54 55 55
54 57 53 56 57 58 60 61 60 60 61 59 59 57 55 55 53 53 55 53 57 51 48 48 46 46 48 50 50 53 53 53 56 56 54 55 55 54 55 55 55 56 56 57 58 55 53 56 56 57 56 55 56 56
60 55 60 57 60 58 58 62 60 60 58 59 58 56 55 54 52 52 55 54 53 53 54 49 50 52 52 55 56 54 54 53 53 53 47 50 56 55 55 54 56 56 57 57 56 57 56 56 57 57 56 55 55 56
55 56 61 61 58 52 52 61 59 60 57 56 57 55 53 53 53 57 52 54 55 56 55 55 54 56 55 55 54 53 54 52 55 55 55 55 55 55 56 56 57 56 56 55 56 56 56 47 50 55 55 56 56 55
54 59 57 57 57 51 60 59 59 57 56 55 53 52 52 51 54 54 50 52 54 55 56 55 53 54 56 54 56 55 55 55 56 54 55 55 54 53 54 54 56 56 54 56 56 56 55 55 50 56 55 54 53 53
47 51 51 39 55 55 56 57 56 56 53 52 52 52 51 52 49 50 49 52 55 56 54 55 54 57 56 57 57 54 52 55 55 55 55 55 54 53 53 55 54 54 56 57 55 55 55 53 54 55 55 54 52 51
39 53 47 57 56 56 57 54 53 53 52 52 52 54 53 51 48 47 52 56 55 55 55 55 54 55 57 54 55 53 56 58 57 56 57 55 55 56 54 53 53 52 55 56 55 54 54 53 52 51 52 50 43 52
44 55 58 59 60 58 55 54 54 54 52 52 53 52 51 47 46 51 55 58 55 57 55 53 56 58 57 56 57 57 57 57 55 55 55 56 57 57 55 53 50 50 55 53 52 53 53 51 51 52 52 52 52 52
57 57 57 58 55 56 55 53 53 52 54 54 53 50 50 50 50 55 57 56 56 52 53 52 55 55 54 53 53 55 55 55 54 55 55 54 53 54 54 54 55 44 53 54 54 55 54 54 53 52 52 51 51 53
56 60 60 57 57 55 55 56 57 57 58 56 55 53 53 57 57 59 58 56 53 56 56 55 53 55 55 54 53 53 54 56 55 50 49 49 51 50 54 56 56 56 56 55 40 46 51 53 54 53 52 51 52 53
59 61 59 58 57 58 61 60 59 56 56 57 57 55 55 56 56 57 57 56 56 57 56 56 56 57 54 54 52 50 51 52 52 51 48 48 48 52 54 53 54 55 53 53 54 53 43 51 49 54 52 53 54 53
63 61 60 60 60 58 60 59 58 57 59 58 57 56 55 57 56 58 57 56 56 56 56 54 54 56 55 53 52 51 48 50 50 50 51 52 53 53 53 53 54 55 54 54 54 53 53 52 52 51 50 50 49 50
61 61 61 59 58 56 60 61 58 59 58 56 55 55 55 55 53 56 56 57 57 55 49 54 54 51 53 52 52 51 45 51 51 51 51 52 52 52 53 54 55 55 54 53 53 53 52 51 51 51 50 49 49 49
61 62 61 58 55 54 58 59 57 55 57 56 56 56 58 58 54 55 55 58 60 58 56 56 55 54 52 53 52 50 49 50 43 37 38 37 37 44 53 54 54 53 53 52 52 52 50 49 49 49 48 48 48 48

GFSWCAN_sfc_temp_060.txt.gz
Temp
55 56 56 56 56 56 56 56 56 56 57 57 58 58 58 58 56 61 57 62 56 57 61 60 58 51 53 50 40 50 50 45 39 35 35 35 34 34 35 41 38 38 36 37 39 36 32 51 50 38 43 53 57 58
55 55 55 55 55 55 55 56 56 56 57 57 58 58 58 58 57 58 58 59 57 50 60 64 63 63 58 55 46 51 49 44 41 36 37 36 34 36 35 32 42 37 42 38 42 44 47 48 46 50 50 50 54 54
55 55 55 55 55 55 55 56 56 56 57 57 58 59 58 57 57 58 66 62 58 59 63 63 63 65 68 65 66 46 55 54 46 46 39 38 34 36 34 34 34 35 40 38 36 43 43 46 49 50 51 52 56 57
55 55 55 55 55 55 55 55 56 56 56 57 58 58 58 57 57 58 66 65 63 61 56 60 68 63 67 68 63 61 59 61 56 52 44 38 36 40 35 34 34 35 37 34 35 40 43 45 47 49 50 53 54 57
54 54 55 54 54 55 55 55 55 56 56 56 57 58 58 57 56 61 68 68 68 59 56 61 65 66 66 60 60 61 61 59 61 51 42 39 41 39 43 40 35 40 38 35 34 41 42 42 46 49 48 49 50 50
54 54 54 54 54 55 55 55 55 56 56 56 57 57 57 56 54 60 57 66 68 66 57 56 62 57 62 62 54 57 60 61 61 56 49 47 47 42 36 34 38 43 45 43 40 45 44 45 47 48 47 50 51 50
54 54 54 54 54 54 54 55 55 56 56 56 56 57 56 56 62 61 60 62 59 66 53 55 59 60 56 57 49 56 60 63 60 54 46 46 46 45 38 33 40 46 47 48 49 47 43 44 43 47 48 50 51 50
54 54 54 54 54 54 54 55 55 56 55 55 56 56 56 55 56 61 65 55 61 58 59 49 59 57 61 56 50 48 54 62 59 55 54 47 50 45 35 48 49 50 52 52 51 51 47 47 47 47 50 51 48 47
54 54 54 54 54 54 54 54 54 55 55 55 56 56 62 60 60 61 56 55 62 55 53 55 51 52 63 58 58 53 55 49 61 51 55 56 37 34 45 51 53 52 52 53 56 54 52 48 48 47 47 49 47 46
54 54 54 54 54 54 54 54 54 54 54 55 60 61 57 61 56 57 55 53 53 53 54 45 62 54 63 54 51 52 49 49 43 53 59 50 45 54 56 57 56 56 55 57 53 51 51 49 47 49 46 47 47 46
54 54 53 53 53 53 54 53 54 55 54 64 64 65 64 56 59 55 51 50 54 47 50 52 54 57 65 51 54 61 46 52 40 50 51 48 44 53 57 58 59 59 59 57 57 57 57 55 52 50 50 49 47 47
54 53 53 53 53 53 53 53 54 60 70 62 63 63 66 59 56 55 60 58 53 55 64 60 63 60 61 62 57 56 51 52 43 57 53 38 53 56 57 58 59 60 60 59 59 58 58 57 57 56 54 53 52 50
53 53 53 53 53 53 52 53 53 54 56 67 63 60 61 62 46 55 52 57 60 66 68 66 61 63 52 57 54 54 50 51 61 53 38 52 56 59 60 60 60 62 62 61 59 59 59 59 59 58 57 58 57 54
53 53 53 53 53 51 50 54 53 55 62 63 60 42 58 58 62 63 63 64 68 68 67 65 63 59 58 53 60 50 56 57 49 38 39 56 56 58 61 62 60 60 61 61 61 60 59 59 59 60 60 60 59 57
53 53 53 55 54 54 54 54 53 60 66 62 63 47 60 70 69 70 70 68 72 72 68 65 62 62 58 56 59 56 48 43 43 45 54 59 57 58 58 60 61 61 62 62 62 62 60 60 60 60 60 61 60 59
53 52 61 54 53 54 53 54 57 66 66 63 62 62 69 67 66 68 68 67 73 72 69 66 61 56 55 57 51 47 43 39 48 54 59 60 56 58 58 60 61 62 62 64 63 62 62 61 60 60 62 62 61 60
52 70 53 53 53 53 54 65 66 62 65 62 66 72 70 68 67 67 68 67 70 65 60 59 50 51 58 50 43 50 41 48 54 59 61 57 57 58 59 60 61 62 62 63 62 62 61 63 62 61 58 59 61 61
65 65 54 53 56 55 65 65 67 66 61 68 66 70 73 71 67 68 66 64 63 65 61 57 60 48 46 38 40 43 48 55 59 58 60 60 59 59 60 60 61 61 62 62 61 62 61 62 61 61 60 61 62 62
61 59 54 53 55 64 67 65 67 63 68 72 72 74 72 70 64 64 63 64 66 68 65 63 54 50 40 44 44 47 54 55 58 61 63 61 60 59 59 61 61 62 61 61 62 61 62 60 61 63 64 63 61 62
52 53 53 53 55 67 63 68 70 66 65 70 72 71 69 63 67 66 67 65 68 67 59 56 51 45 46 53 56 58 57 52 60 62 61 63 65 62 60 60 62 62 63 61 62 50 62 60 63 63 62 61 61 61
53 60 54 61 66 67 68 70 68 71 70 68 70 68 64 66 66 65 64 68 63 61 56 60 59 57 59 61 61 59 58 61 61 61 60 62 63 64 64 64 65 67 65 61 61 59 55 58 61 62 61 61 63 64
69 55 69 64 68 67 66 73 69 71 68 70 69 68 65 62 63 62 66 62 59 62 63 60 59 59 58 57 58 60 61 60 62 60 48 54 63 62 63 64 64 64 64 62 63 62 60 60 61 60 61 59 57 61
56 61 69 68 63 58 58 72 64 68 63 66 68 64 64 63 64 67 57 62 59 63 65 62 60 62 59 62 62 61 61 61 62 64 62 65 63 65 65 64 64 61 61 61 64 64 60 50 57 59 59 59 58 59
53 66 62 64 64 56 69 65 70 67 67 65 63 59 60 61 65 65 58 59 62 64 64 60 60 59 65 61 65 64 60 64 65 62 61 63 62 60 65 65 64 63 61 63 63 65 60 58 54 61 57 56 57 56
52 53 56 41 65 61 61 63 63 65 60 61 59 61 61 65 60 58 56 59 61 61 62 63 66 63 59 64 66 65 62 66 65 59 62 64 65 63 62 63 60 61 64 63 60 59 57 61 63 57 54 59 55 55
40 59 50 64 65 62 66 60 61 60 62 59 61 65 65 61 55 52 59 61 61 60 60 59 59 62 65 64 63 64 64 67 65 62 63 67 66 62 57 55 54 52 63 60 59 58 56 58 56 55 56 54 44 55
47 61 67 71 69 69 66 66 65 64 59 59 63 61 61 54 53 59 67 65 63 65 64 66 66 64 63 63 63 64 65 65 61 61 64 65 65 64 61 56 54 56 59 62 59 56 55 58 58 58 58 58 58 58
65 66 62 66 65 68 62 62 61 60 65 67 65 58 57 57 57 64 66 66 66 66 66 66 65 65 63 63 64 64 65 64 63 63 63 63 63 63 61 61 60 45 59 59 59 60 60 58 57 56 56 56 55 58
63 70 69 64 65 65 64 64 67 71 72 69 65 63 62 66 67 67 66 67 68 68 65 64 63 66 65 63 62 62 63 63 59 55 54 56 56 58 63 59 59 59 58 59 38 47 55 56 56 57 56 56 56 58
67 72 67 65 64 66 71 74 72 69 72 72 69 65 65 65 67 69 67 67 66 66 66 66 66 65 62 61 58 57 60 61 60 59 55 54 56 60 61 62 59 59 62 62 58 57 43 53 49 58 56 56 54 55
74 71 67 69 69 72 74 72 71 70 69 69 70 68 64 63 65 68 69 68 68 66 65 64 64 64 62 60 60 58 55 59 58 58 59 61 61 60 60 61 62 62 61 62 60 57 56 55 54 54 54 53 53 53
71 68 69 65 69 70 69 69 69 68 68 65 65 66 64 62 59 62 66 67 65 65 55 62 62 59 61 60 59 58 49 59 59 59 58 59 59 59 61 62 62 61 61 60 59 58 57 55 54 53 53 51 51 52
71 71 70 70 67 63 68 68 66 65 67 66 65 64 65 63 59 63 66 69 68 66 65 64 63 62 60 59 58 56 53 56 46 38 39 38 37 45 59 61 61 60 59 59 59 58 56 54 54 53 52 52 52 52

GFSWCAN_sfc_temp_063.txt.gz
Temp
56 56 56 56 56 56 56 56 56 57 57 58 59 59 59 59 58 62 68 69 63 66 67 67 67 61 61 56 45 57 48 49 48 39 38 38 37 36 36 45 43 39 38 39 42 39 35 58 59 50 52 56 58 61
56 56 56 56 56 56 56 56 56 57 57 58 58 59 59 58 58 58 71 71 69 63 67 72 71 70 66 64 58 58 51 49 42 38 38 38 35 37 36 35 50 39 42 40 44 46 55 54 51 57 58 55 53 58
55 55 55 55 55 56 56 56 56 57 58 58 59 60 59 58 58 58 72 72 68 65 64 65 62 72 75 73 73 51 60 56 48 51 41 38 34 37 35 35 35 41 42 39 40 53 47 45 51 51 51 52 55 60
55 55 55 55 55 55 56 56 56 57 57 58 59 59 58 58 58 57 70 74 69 67 58 64 75 67 74 74 71 70 64 62 59 55 43 39 37 42 36 35 35 36 35 35 38 42 42 43 46 47 49 52 53 55
55 55 55 55 55 55 56 56 56 56 57 57 58 58 58 58 57 61 71 75 75 64 59 61 72 73 73 69 65 66 64 63 55 50 46 40 42 39 42 41 35 40 37 34 34 40 40 42 46 47 47 49 50 52
55 55 55 55 55 55 55 56 56 56 57 57 58 58 58 57 56 60 61 72 77 71 58 56 73 68 71 68 62 55 65 62 60 64 53 52 50 43 37 35 41 44 46 45 39 45 44 44 46 47 46 48 51 50
55 55 55 55 55 55 55 55 55 56 56 57 57 57 57 56 64 57 58 63 60 68 56 61 58 70 68 66 57 58 58 60 64 63 53 57 53 52 40 34 43 48 49 50 50 48 41 43 42 46 47 49 50 49
54 55 55 55 55 55 55 55 55 56 56 56 57 57 57 56 57 61 68 56 60 61 61 58 59 65 69 58 56 64 60 57 59 58 61 54 55 50 37 52 51 52 52 53 52 51 47 47 47 45 47 47 47 46
54 55 55 55 55 54 55 55 55 55 56 56 56 57 63 62 62 63 58 58 68 61 57 64 56 55 72 67 64 63 64 48 67 55 57 55 41 35 47 51 54 54 53 54 56 56 53 49 47 46 45 45 44 45
54 54 54 54 54 54 54 54 55 55 55 56 61 64 58 63 57 59 62 58 56 59 62 55 69 59 71 59 58 57 63 56 47 56 63 51 47 55 57 58 58 58 57 58 54 52 53 50 49 49 46 47 45 44
54 54 54 54 54 54 54 55 54 55 54 66 69 65 70 57 64 58 57 57 61 53 56 57 65 62 73 58 58 57 57 56 44 53 56 53 46 56 60 58 61 61 62 58 57 57 58 56 52 52 54 50 51 48
54 54 54 54 54 54 54 54 54 60 75 64 65 69 74 62 58 59 60 63 59 57 67 68 68 68 69 66 58 55 52 56 45 62 54 41 52 60 60 59 60 62 63 61 59 56 56 57 58 56 55 56 56 55
54 54 53 53 53 54 54 54 53 54 57 72 67 63 65 64 48 55 53 60 62 69 72 71 67 71 63 64 54 55 51 49 65 52 41 49 55 59 59 60 62 65 65 64 62 60 59 58 61 60 58 58 58 57
53 53 53 53 53 54 52 53 54 56 62 67 66 42 60 59 62 67 64 63 69 73 72 71 67 66 61 56 57 52 56 61 51 41 41 52 58 60 59 59 61 60 64 63 64 63 61 59 61 62 62 61 59 57
53 53 53 56 55 55 53 52 53 64 69 66 69 50 64 71 74 73 74 68 72 65 60 63 65 59 59 54 58 57 52 45 46 39 48 58 59 60 57 58 60 62 63 64 64 63 63 61 63 61 64 64 62 60
53 52 61 55 55 55 54 55 59 71 71 69 68 66 71 66 68 71 68 61 60 55 68 64 58 57 56 58 49 47 44 37 41 53 59 59 58 60 60 62 63 64 64 64 63 65 64 62 62 62 64 64 63 62
52 74 55 54 54 54 54 65 71 67 69 67 69 75 72 69 69 66 65 69 62 64 53 64 50 46 58 51 43 47 43 52 55 60 62 59 59 60 62 63 63 63 62 63 64 64 64 65 65 62 60 62 65 64
69 66 54 54 56 58 68 67 72 71 65 72 68 71 75 73 67 66 69 72 69 66 64 58 63 52 48 39 45 55 57 60 63 62 62 62 62 62 63 62 63 63 63 59 64 63 63 64 63 65 64 64 65 65
65 62 55 53 58 65 71 71 73 67 72 74 75 74 73 73 71 74 74 72 72 72 68 63 57 53 51 55 58 58 58 64 61 62 63 64 64 62 62 64 64 62 63 60 63 60 63 63 64 66 65 65 63 64
52 53 54 53 55 69 69 73 77 70 67 71 77 73 70 70 72 74 72 75 69 68 64 60 58 60 62 63 65 58 63 65 61 57 60 65 68 65 63 63 65 64 64 63 63 55 61 60 68 66 65 63 63 62
52 62 55 63 65 71 73 74 73 77 75 73 77 75 70 73 70 64 65 69 68 64 60 65 65 65 65 66 65 59 62 64 62 61 63 64 67 67 65 68 66 67 64 60 60 57 60 60 62 65 64 63 63 64
71 55 73 67 71 73 71 78 74 76 73 74 75 75 71 67 69 69 73 68 65 63 66 65 64 60 60 60 62 64 62 63 64 64 52 56 62 64 63 66 66 64 64 64 65 61 58 64 66 65 63 65 60 64
56 64 72 73 67 62 60 79 69 73 67 70 73 69 69 69 69 74 63 65 65 69 69 66 63 65 64 66 67 65 65 64 59 63 66 66 65 67 66 64 66 64 62 63 65 62 58 54 58 63 61 65 62 62
55 69 67 69 68 57 75 69 74 72 73 70 68 64 65 66 71 65 60 64 68 70 69 66 69 67 66 59 64 61 67 64 58 64 68 63 65 61 64 65 65 66 64 63 63 61 59 58 53 58 55 61 61 60
55 55 58 43 70 66 66 67 68 69 64 67 64 65 66 71 63 62 61 65 67 67 67 69 69 66 63 66 69 68 68 70 67 63 65 64 65 66 63 61 61 60 65 63 58 59 60 48 51 59 58 57 59 57
44 64 52 68 69 66 67 63 64 65 67 65 67 71 72 66 58 56 63 66 67 68 69 68 67 68 67 67 66 66 67 70 68 64 66 67 66 62 58 57 55 57 64 60 62 60 57 54 61 57 59 56 46 56
51 65 71 77 75 76 71 74 74 71 65 64 68 67 68 58 57 64 72 71 69 70 71 71 70 68 66 67 68 69 69 69 65 65 68 69 69 66 62 58 57 60 63 63 62 60 59 57 59 58 56 54 59 59
69 71 67 71 71 76 66 68 66 64 67 74 72 62 61 62 62 70 71 71 72 73 71 71 71 70 68 68 68 69 70 69 67 68 68 67 68 65 63 64 63 45 61 61 60 61 60 59 59 58 58 54 54 62
68 75 74 68 71 72 70 69 69 76 79 76 68 68 69 72 73 72 72 73 75 75 72 70 71 73 71 69 68 68 68 68 64 59 58 60 61 60 65 64 61 65 62 62 40 49 56 58 59 58 58 58 58 60
71 79 72 70 69 65 71 81 77 79 82 80 77 72 72 71 73 76 74 73 72 72 72 72 72 72 69 68 64 63 66 67 67 65 60 59 61 66 64 63 64 65 65 64 61 60 45 55 52 60 58 60 58 59
82 78 72 72 69 75 80 82 82 80 78 78 79 74 72 69 69 74 74 74 74 73 72 71 70 70 68 67 66 64 60 64 63 63 65 66 66 65 65 66 66 66 65 63 62 61 59 58 58 58 57 55 55 55
77 73 72 69 69 76 78 76 77 74 75 72 72 74 71 67 61 66 73 73 71 71 58 70 68 65 67 66 65 64 50 65 64 64 63 64 64 64 66 67 68 67 66 62 62 62 58 58 58 58 56 54 54 55
75 75 76 74 75 70 76 74 73 72 74 73 72 71 70 68 62 69 73 74 73 74 71 71 69 68 65 65 63 60 57 59 48 39 41 39 38 45 60 66 66 66 65 65 63 62 59 57 58 56 56 56 55 55

GFSWCAN_sfc_temp_069.txt.gz
Temp
57 57 57 57 57 56 56 56 56 57 58 59 59 60 60 60 59 58 62 66 61 57 61 67 68 58 58 55 47 53 50 49 45 38 37 34 34 36 36 39 37 36 34 32 34 30 28 49 51 40 44 47 49 51
57 56 56 56 56 56 56 56 56 57 57 58 59 60 60 59 59 58 61 68 67 59 61 70 71 71 67 64 56 55 50 48 45 40 39 37 33 35 35 30 41 33 35 32 36 37 43 46 45 49 49 45 48 47
56 56 56 56 56 56 56 56 56 57 57 58 59 60 60 59 59 59 59 64 65 60 62 64 62 71 74 71 70 52 54 54 50 51 45 39 34 38 32 33 34 39 40 35 34 44 39 44 45 46 47 46 49 51
56 56 56 56 56 56 56 56 56 56 57 58 59 59 60 59 59 58 59 65 64 60 53 61 73 66 73 72 70 67 60 58 57 52 45 42 36 42 35 36 34 38 38 35 35 40 39 43 43 44 45 48 48 50
55 55 55 56 56 56 56 56 56 56 57 57 58 59 59 59 58 59 62 66 68 59 52 56 66 72 72 69 67 65 60 54 52 46 45 41 44 40 41 40 35 40 36 34 32 39 38 39 43 45 43 44 46 47
55 55 55 55 56 56 56 56 56 56 57 57 58 58 59 58 58 59 59 66 66 64 54 51 66 62 65 66 64 60 58 56 54 50 47 49 50 43 37 34 41 42 43 44 40 44 43 44 44 46 43 44 46 47
55 55 55 55 56 56 56 56 56 56 56 57 57 57 57 57 57 57 56 59 56 62 53 52 56 57 61 59 60 59 60 56 55 51 47 48 46 46 39 34 43 45 45 46 47 46 42 44 42 46 46 45 46 47
55 55 55 55 56 56 56 55 55 56 56 56 56 57 57 57 55 56 64 59 61 58 57 50 55 55 62 53 49 53 54 54 54 51 53 47 48 44 34 41 46 49 48 46 47 50 47 47 47 47 48 45 43 43
55 55 55 55 56 56 55 55 55 55 55 56 56 57 58 56 58 62 61 60 62 57 50 55 51 50 66 54 53 52 55 46 52 47 48 49 37 32 38 46 49 49 46 46 50 50 50 46 48 47 47 46 43 43
55 55 55 55 55 55 55 55 55 55 55 56 56 57 56 64 59 61 58 54 52 54 54 48 57 51 62 53 50 51 51 46 41 48 51 43 38 48 50 53 53 53 53 52 46 43 44 46 48 48 47 47 46 44
55 55 55 55 55 55 55 55 55 55 54 58 59 58 62 59 62 57 53 51 52 48 51 52 50 47 53 48 50 52 47 47 39 44 44 42 41 49 55 54 55 56 56 54 53 52 53 51 50 50 49 48 47 46
55 55 55 55 55 55 55 55 54 54 64 57 57 61 66 59 57 53 51 51 49 48 48 48 52 54 55 56 49 49 46 46 40 49 43 37 44 49 53 55 57 56 56 57 56 55 55 55 52 51 51 49 48 48
54 54 54 54 54 54 54 54 53 54 55 65 59 60 60 58 45 50 44 49 48 53 53 54 54 56 53 52 48 48 46 44 50 43 38 39 44 47 49 50 57 57 57 55 56 56 54 57 54 52 52 52 50 50
54 54 54 54 55 55 55 54 53 54 54 59 60 40 54 52 54 50 50 52 57 53 56 57 54 55 49 46 49 46 48 46 39 35 36 41 44 47 50 55 56 55 55 54 55 53 53 53 55 55 53 53 52 50
54 54 54 55 56 56 54 53 53 57 61 61 63 44 59 62 55 54 56 55 57 56 54 52 54 51 46 45 50 48 46 36 37 36 42 46 49 51 53 55 55 56 53 55 54 52 54 54 54 54 53 53 54 53
54 53 57 57 57 58 53 52 55 63 65 64 64 61 65 63 50 51 51 52 61 59 57 58 51 48 48 49 47 44 40 35 42 46 51 50 50 53 53 55 57 56 56 52 51 52 56 55 54 53 57 53 54 55
52 64 55 57 56 55 55 59 63 62 63 64 64 66 57 53 56 56 55 64 67 59 52 49 47 48 53 46 44 47 43 47 51 53 49 50 52 53 55 55 56 56 55 54 52 52 54 56 55 54 51 56 53 55
61 58 56 56 57 58 63 59 65 67 62 66 61 63 66 66 65 65 67 67 64 61 55 48 53 50 46 44 43 48 52 55 56 53 52 55 55 56 57 55 56 55 55 53 50 50 52 52 53 52 55 55 54 52
60 59 55 55 55 58 64 65 67 62 67 67 67 62 66 67 67 68 67 66 65 65 57 56 54 49 48 52 51 54 53 55 55 55 52 54 57 56 56 57 56 56 54 49 48 48 48 53 54 53 55 54 52 50
53 53 53 53 53 59 63 68 71 66 64 66 68 64 66 67 68 68 68 66 64 62 58 55 53 54 52 52 55 55 57 57 57 52 47 49 58 56 55 56 55 56 51 50 50 47 52 51 50 55 53 52 53 52
62 57 54 55 57 61 65 68 66 60 60 56 54 54 60 63 60 61 62 67 62 59 57 59 59 59 59 59 56 56 53 55 52 51 48 48 57 57 57 58 58 57 54 50 49 50 51 53 53 52 50 54 52 54
65 56 64 58 63 68 66 71 67 63 61 55 52 54 59 59 59 60 61 62 61 61 61 60 60 60 58 57 54 57 56 58 57 55 52 54 55 57 56 58 57 56 55 54 53 51 46 47 51 50 50 50 53 52
57 62 67 68 63 56 54 73 65 68 56 54 57 59 61 62 61 61 59 63 63 64 63 62 63 63 59 59 58 57 58 59 56 55 56 57 58 58 56 54 53 51 49 52 52 49 46 45 50 52 55 53 53 52
57 65 63 63 64 52 70 66 71 63 51 48 50 54 60 61 62 60 59 62 64 64 63 62 63 62 60 57 55 59 60 61 61 59 59 59 56 55 55 55 56 58 55 56 49 47 48 51 49 52 53 54 53 51
52 51 54 39 64 62 64 57 52 51 51 54 53 57 61 66 61 60 59 61 64 64 64 65 64 63 61 61 62 61 61 63 61 59 60 61 58 56 55 55 56 56 58 56 51 49 50 49 49 48 51 53 54 52
42 59 48 64 65 64 63 57 57 52 53 52 55 55 59 61 58 57 61 63 63 63 63 63 63 62 61 61 60 61 61 63 60 59 59 61 60 57 54 53 53 53 57 57 52 52 51 49 49 49 50 53 48 55
46 59 67 71 70 70 59 65 68 63 61 59 54 50 57 56 57 61 65 66 63 65 66 66 65 64 62 62 62 63 64 62 60 60 62 62 61 59 56 53 52 53 58 58 57 54 52 52 51 50 52 53 54 53
64 68 64 68 69 71 67 66 59 48 50 61 61 53 53 55 60 66 66 68 68 68 68 68 67 67 66 65 66 65 65 65 64 64 63 62 61 60 58 59 56 50 54 53 57 57 57 55 54 55 54 53 53 56
64 70 70 65 67 64 56 56 55 55 60 58 58 57 58 68 69 69 69 70 72 70 67 67 66 68 67 66 65 66 66 66 62 59 57 54 56 58 61 60 56 57 57 54 44 50 53 54 55 55 56 55 54 54
66 73 68 69 65 55 54 57 62 68 63 59 71 68 68 70 72 74 73 71 69 69 69 70 70 69 66 64 62 62 65 65 64 62 58 56 57 61 60 60 60 60 59 58 57 55 48 52 51 56 54 53 53 52
75 73 70 68 55 56 59 61 67 67 65 57 59 68 65 67 71 72 71 71 72 70 70 68 67 69 67 65 62 60 58 62 62 61 62 64 63 61 61 61 61 61 60 59 58 57 57 55 55 54 54 53 53 52
74 71 70 67 58 57 67 67 66 61 61 57 61 59 68 65 61 65 70 72 70 69 58 67 65 64 66 65 64 63 56 60 57 57 59 61 60 60 62 62 63 62 61 60 59 58 58 57 55 55 54 54 53 53
74 75 75 58 63 57 56 56 62 60 58 56 54 63 63 66 61 68 72 74 72 72 70 67 67 66 64 63 59 56 53 53 46 41 41 41 42 47 59 60 60 62 62 61 60 59 58 58 56 55 54 53 53 53

GFSWCAN_sfc_temp_072.txt.gz
Temp
57 57 57 57 57 56 56 56 56 56 57 58 58 59 59 59 58 52 52 55 52 45 49 57 59 50 49 45 39 44 43 41 36 31 29 25 29 35 32 33 29 31 31 29 28 24 25 43 46 37 41 43 44 45
57 56 56 56 57 56 56 56 56 56 57 57 58 58 59 58 58 56 50 57 57 50 52 59 62 64 62 57 48 45 43 40 38 33 32 28 26 30 26 29 35 31 33 27 34 36 41 44 43 46 45 39 41 44
57 56 56 56 56 56 56 56 56 56 56 57 58 58 59 58 58 55 48 50 52 47 49 51 54 63 60 61 59 45 44 45 42 42 35 32 29 36 30 28 35 35 39 34 32 39 40 43 44 42 45 45 44 46
56 56 56 56 56 56 56 56 56 56 56 57 57 58 58 58 58 57 48 50 50 48 42 48 63 56 65 62 61 56 52 48 47 47 37 34 30 37 30 32 34 33 37 33 35 37 41 43 43 43 45 46 46 48
56 56 56 56 56 56 56 56 56 56 56 57 57 58 58 58 57 53 50 52 55 50 42 44 52 59 62 61 59 57 52 46 42 39 42 39 36 35 36 38 34 40 34 31 28 36 39 40 44 46 44 44 45 44
55 55 55 55 56 56 56 56 55 55 56 56 57 57 57 57 56 50 49 53 54 52 45 40 51 54 58 59 56 54 53 46 45 43 43 46 42 36 34 33 37 38 39 39 36 41 40 42 44 46 44 45 46 45
55 55 55 55 56 56 56 55 55 55 55 55 56 56 56 56 49 48 49 52 53 52 45 43 44 52 56 54 51 51 53 52 46 46 44 41 39 40 30 30 38 40 41 41 43 43 40 42 41 46 46 48 47 46
55 55 55 55 56 56 56 55 55 55 55 55 55 55 55 55 53 48 52 55 53 51 52 43 44 48 55 47 46 50 49 48 49 46 44 43 40 38 34 38 40 43 43 42 43 46 44 45 45 46 47 46 46 44
54 55 55 55 55 55 55 55 55 55 55 55 55 55 51 48 46 51 60 60 59 54 44 46 42 42 52 49 49 48 49 44 49 44 45 44 35 33 38 39 42 44 43 43 45 46 47 45 44 45 46 47 45 44
54 54 55 55 55 55 55 55 55 55 55 55 49 48 47 53 61 60 55 50 50 50 46 42 50 46 52 47 47 47 47 44 40 45 48 41 38 43 46 46 48 47 46 46 41 41 42 42 43 44 44 46 45 45
54 55 55 55 55 55 55 55 54 55 53 48 47 51 55 59 52 54 48 44 47 43 45 45 48 46 50 44 43 48 43 44 38 42 42 39 39 44 50 50 50 50 50 48 48 48 46 46 44 45 46 46 45 45
54 55 54 55 55 54 54 54 54 51 49 50 49 51 52 51 50 47 47 49 47 46 47 46 47 47 49 52 46 47 44 44 37 46 38 32 40 46 47 49 51 52 54 52 51 50 51 53 49 47 47 45 45 46
54 54 54 54 54 54 54 54 53 53 51 50 49 50 53 49 43 47 44 43 45 51 50 49 46 47 50 48 46 45 43 40 45 36 35 39 44 46 47 48 50 52 54 52 54 51 52 52 51 49 48 48 47 46
54 54 54 54 54 55 54 53 54 53 48 48 50 39 47 45 50 47 46 47 50 51 48 48 47 44 44 42 44 42 43 43 36 32 35 37 40 43 45 47 47 48 50 50 51 52 51 50 49 51 50 49 47 46
54 54 54 53 54 55 54 53 53 50 49 49 51 40 49 52 50 51 49 48 51 50 49 46 46 44 43 43 43 43 40 34 32 30 38 40 42 42 43 46 46 47 48 47 48 51 49 50 49 48 49 50 50 48
54 53 52 56 56 55 52 52 50 50 53 52 51 50 54 51 49 47 47 46 50 50 49 47 43 42 41 41 41 38 34 30 35 37 43 45 44 44 46 48 51 52 45 45 47 50 53 49 49 48 48 48 48 49
53 55 56 56 55 55 52 51 51 52 53 55 52 57 55 52 52 49 48 51 52 49 43 43 42 41 43 39 37 40 36 38 41 42 45 44 44 44 47 48 49 49 45 45 45 49 48 48 48 46 46 46 47 47
55 53 56 55 54 53 52 50 53 57 53 54 51 55 53 54 52 51 53 53 52 47 44 43 45 42 38 37 36 39 44 46 46 44 43 45 46 46 50 48 49 46 44 45 46 47 47 48 45 46 45 45 45 44
54 54 55 55 51 50 53 54 54 51 55 55 55 55 53 57 56 55 54 53 52 50 47 45 44 39 39 41 42 46 45 44 42 43 43 49 49 49 52 51 48 44 43 44 44 43 43 45 48 44 45 44 43 42
53 53 53 53 53 49 53 55 58 54 52 52 53 52 53 52 53 53 55 53 51 49 48 45 44 43 43 44 45 45 45 45 43 41 41 43 50 49 52 48 46 43 43 44 43 44 46 46 47 50 48 46 43 43
55 52 53 50 48 49 52 55 58 54 52 49 51 51 50 52 51 50 50 51 49 46 45 46 47 47 48 48 46 46 46 46 44 44 43 42 50 48 49 49 46 44 42 43 41 41 41 41 44 46 49 49 44 44
54 55 52 51 52 56 52 55 53 55 53 50 51 50 50 49 49 49 50 50 48 48 49 48 48 48 48 48 47 48 48 49 47 46 46 46 45 45 45 48 47 44 47 45 45 41 43 43 43 44 47 47 46 44
55 56 56 58 53 49 49 59 55 52 49 48 50 50 52 50 50 52 48 49 50 51 52 51 52 52 50 52 50 50 50 49 46 46 46 46 46 45 43 45 45 44 43 42 43 43 42 42 44 45 45 44 43 42
58 56 54 54 53 46 58 55 53 51 50 47 47 47 51 50 50 48 48 48 50 51 52 52 51 49 48 49 47 48 48 48 48 48 47 49 44 43 44 45 46 47 46 43 44 43 43 43 43 44 45 44 44 43
48 46 47 38 52 54 55 51 49 49 49 50 48 48 52 51 51 49 48 48 49 49 50 50 49 49 47 46 46 46 49 48 48 49 45 49 44 43 44 44 43 44 45 43 42 42 42 42 43 44 45 45 44 43
38 50 46 54 55 55 58 51 50 48 50 49 49 49 49 48 49 49 48 50 50 50 50 50 49 47 46 47 46 46 48 48 52 47 44 47 46 44 42 41 41 42 44 44 43 44 44 43 45 47 46 47 45 45
41 49 54 56 56 57 52 52 55 50 50 51 50 48 50 50 50 50 51 52 51 52 51 51 51 49 48 46 47 48 49 50 50 49 48 49 47 46 45 43 42 43 46 48 46 46 46 46 45 45 45 45 45 45
53 55 53 56 56 58 56 53 51 49 50 50 53 48 50 52 50 52 53 54 55 54 53 53 53 52 51 50 49 50 49 50 52 52 49 47 46 46 46 45 45 45 45 47 47 48 47 46 46 47 48 46 45 47
52 56 56 54 57 53 52 52 52 51 52 53 52 52 51 54 55 54 55 56 55 54 52 51 52 52 51 51 50 50 50 50 49 45 44 41 42 43 45 46 46 45 44 45 45 46 49 47 48 48 48 46 47 46
54 58 55 58 59 53 54 53 54 54 55 55 57 55 55 56 56 58 57 56 54 53 54 53 54 52 49 49 47 48 48 48 47 52 46 43 45 47 47 47 47 46 45 46 46 46 46 47 46 47 47 44 43 43
60 58 58 59 54 54 55 56 56 57 57 55 56 55 53 56 58 58 59 57 57 56 55 53 52 52 52 48 46 46 45 47 48 50 51 48 48 48 48 48 49 49 47 47 47 46 45 46 45 46 46 44 46 44
59 59 58 56 53 55 58 57 59 55 53 53 52 54 56 54 52 55 59 59 56 54 52 53 52 49 50 48 49 48 46 46 45 47 48 47 46 48 49 48 50 51 50 50 49 48 49 47 46 46 46 46 46 45
61 62 59 59 56 53 52 53 55 51 53 51 52 54 55 54 54 56 60 62 61 57 54 53 52 51 50 49 47 44 44 43 42 41 42 43 43 45 45 46 49 51 51 50 49 49 49 48 47 47 46 46 45 45

GFSWCAN_sfc_temp_075.txt.gz
Temp
56 57 57 57 57 57 56 56 56 56 56 57 58 58 59 59 58 52 52 52 50 44 47 55 55 48 47 43 38 42 41 39 34 29 26 24 23 27 26 31 29 28 28 26 30 22 24 44 44 36 38 39 41 42
56 57 56 56 56 56 56 56 56 56 56 57 57 58 58 58 58 55 50 53 52 48 50 54 59 63 59 55 45 40 41 37 37 30 27 25 32 31 24 19 33 26 31 25 32 30 41 41 39 41 41 37 39 40
56 56 56 56 56 56 56 56 56 56 56 56 57 58 58 58 58 54 46 47 49 45 47 49 53 59 57 58 56 44 41 42 38 39 33 30 25 28 23 25 27 32 41 31 32 35 37 40 41 41 40 40 45 47
56 56 56 56 56 56 56 56 56 56 56 56 57 57 58 58 57 56 47 47 48 45 40 46 58 53 59 57 57 54 49 44 43 40 34 32 27 34 24 28 26 31 38 31 30 35 37 40 41 44 44 46 46 48
55 56 56 55 56 56 56 56 55 55 55 56 56 57 57 57 56 51 48 49 51 48 41 42 48 54 57 58 57 53 51 46 40 38 37 33 34 34 36 37 30 37 34 29 28 35 35 36 41 43 43 45 46 45
55 55 55 55 55 56 56 56 55 55 55 55 55 56 56 56 55 49 48 51 51 50 44 39 47 49 51 54 53 51 48 47 47 41 39 40 39 36 31 32 36 37 37 37 36 38 39 40 42 44 44 45 45 46
55 55 55 55 55 56 56 55 55 55 55 55 55 55 55 55 48 47 48 51 51 50 44 40 40 49 53 49 48 47 50 50 49 45 40 40 42 39 30 26 38 38 41 40 40 40 38 40 39 43 46 47 48 47
55 55 55 55 55 56 56 55 55 55 55 55 55 54 54 54 52 48 50 53 53 51 49 44 40 45 50 44 45 49 48 47 48 46 45 40 41 40 33 39 41 42 41 40 41 43 42 41 42 42 46 46 45 44
55 54 55 55 55 55 55 55 55 54 54 55 54 54 50 47 45 49 59 57 58 54 43 46 41 40 49 47 47 48 49 43 48 44 44 43 35 33 39 42 42 43 42 43 43 43 43 41 43 43 42 43 43 45
54 54 54 55 55 55 55 55 54 54 54 54 49 48 47 48 58 60 52 50 49 49 47 42 43 44 49 47 46 46 47 43 37 43 46 41 37 43 46 46 46 46 46 46 42 41 41 41 42 43 42 43 44 45
54 54 55 55 55 55 55 54 54 54 53 47 46 50 53 57 54 51 46 44 46 42 41 42 44 43 49 41 42 46 41 42 37 41 40 36 35 42 46 47 48 49 49 47 46 46 48 46 44 43 43 44 44 46
54 54 55 55 55 54 54 54 54 48 47 49 49 49 50 49 48 44 44 46 45 44 47 45 45 46 45 48 46 44 42 43 33 45 38 33 39 46 48 49 50 50 52 51 50 48 50 49 47 45 44 44 44 45
54 54 54 54 54 54 54 54 54 52 51 48 48 50 50 46 41 44 44 41 42 49 48 45 44 44 45 45 42 42 42 39 45 38 35 36 41 45 45 46 48 49 50 53 50 50 50 49 49 47 46 46 46 44
54 54 54 54 54 54 54 54 54 52 47 47 48 41 45 43 47 46 45 44 48 48 46 45 43 41 42 41 42 39 38 39 32 31 30 35 38 42 43 44 45 46 47 48 48 49 49 48 47 48 48 46 49 43
54 54 54 54 54 54 53 53 53 51 48 47 48 39 45 50 50 49 48 46 47 48 46 44 43 42 39 40 40 39 36 32 30 28 36 39 40 41 41 43 43 44 45 45 46 47 47 48 47 46 48 49 46 45
54 54 53 55 54 52 52 52 49 48 50 48 47 48 48 49 49 48 46 45 47 46 46 44 41 40 39 38 38 35 33 27 33 36 40 41 42 43 43 44 46 47 45 44 45 46 47 48 47 46 46 44 45 46
54 54 55 55 54 53 51 50 48 49 49 50 48 51 52 50 49 48 47 48 48 46 41 41 40 38 40 37 35 37 34 37 39 41 41 41 43 46 44 45 47 50 45 43 43 43 44 45 45 44 43 44 44 45
53 54 56 55 52 51 49 50 50 52 49 51 51 51 50 51 49 50 49 48 48 44 42 42 43 39 36 35 35 38 39 40 41 41 42 42 44 50 50 46 49 47 45 44 42 43 44 44 45 43 45 43 43 43
53 53 55 55 51 48 50 51 50 47 50 50 51 53 53 53 52 52 51 49 47 46 45 43 42 38 37 38 39 41 40 41 41 41 41 43 45 46 47 46 47 44 42 42 41 40 41 42 44 45 42 43 42 42
53 53 53 53 52 47 49 50 53 50 49 50 50 50 50 50 50 51 50 49 47 46 45 42 42 41 41 42 42 42 43 42 41 40 40 43 44 44 45 46 43 42 40 41 43 43 41 42 41 43 44 43 42 41
52 52 53 49 47 47 48 49 51 51 49 48 49 49 48 49 49 48 49 46 47 44 43 44 44 45 45 45 44 44 43 43 41 42 41 40 43 41 41 41 42 41 41 41 42 43 43 42 42 41 43 44 42 42
50 54 49 50 49 51 47 50 50 52 50 49 49 48 47 47 48 47 47 46 45 46 46 45 45 45 46 46 45 45 46 46 44 43 44 43 42 43 41 41 42 41 42 44 42 43 43 43 43 43 43 44 43 42
53 52 52 52 50 45 46 53 52 50 48 47 47 46 47 47 48 49 46 46 47 48 48 48 47 48 49 52 47 47 47 46 44 43 42 41 41 40 40 41 41 41 40 39 40 39 39 41 42 42 45 43 42 41
54 52 51 50 49 44 53 52 52 49 47 45 45 45 47 47 48 46 45 45 48 50 49 49 47 46 45 46 45 45 44 44 43 43 43 42 41 39 40 41 41 41 40 39 39 39 40 40 41 45 45 45 45 41
45 44 45 37 49 50 51 48 47 47 46 46 46 46 47 48 46 45 45 46 45 49 47 47 45 45 44 43 42 43 42 45 44 43 41 42 40 39 39 39 39 38 40 40 39 40 39 40 41 42 44 44 43 41
37 47 44 50 50 50 51 47 47 46 47 47 47 47 47 46 48 47 47 46 46 47 46 47 45 43 43 44 43 43 44 43 44 42 41 42 42 41 39 39 38 40 41 40 41 41 42 42 43 43 43 43 42 43
39 46 49 51 52 53 50 49 49 48 48 48 47 47 46 46 48 49 48 48 48 48 48 47 47 47 46 43 42 43 43 44 46 45 43 42 43 43 43 41 39 41 42 45 44 44 43 43 43 43 42 42 43 43
49 50 48 51 51 52 52 49 50 48 48 48 49 47 48 49 49 50 50 51 50 48 48 46 47 47 46 46 46 45 43 43 44 43 43 43 41 40 41 42 42 42 43 45 45 45 45 45 45 45 45 43 42 44
47 50 51 49 52 52 50 50 50 49 50 48 48 48 50 51 54 52 51 51 49 53 49 47 45 45 45 44 44 45 48 49 46 42 41 39 39 42 41 42 42 42 42 44 43 45 46 46 46 45 46 44 43 43
48 51 50 52 53 51 53 53 51 51 50 52 52 52 52 53 54 54 53 51 51 52 53 53 48 48 45 45 42 41 43 45 49 49 43 41 42 43 42 43 44 42 41 43 44 44 45 45 44 44 44 42 41 41
52 51 52 52 52 52 54 55 53 53 53 52 53 52 52 53 56 56 56 57 53 50 50 49 48 47 47 44 44 44 42 43 43 48 47 46 44 43 44 44 44 43 43 43 44 43 43 43 42 43 43 41 41 41
52 54 54 52 51 53 53 52 51 51 50 50 50 52 53 52 52 54 56 54 50 50 49 52 52 50 49 46 45 45 45 43 45 46 47 45 44 45 45 46 45 45 45 45 44 44 45 44 42 43 43 43 42 42
57 58 54 52 50 50 52 52 52 50 50 49 50 52 51 52 53 55 56 56 58 59 55 52 50 49 49 48 45 43 42 42 42 42 43 43 43 42 44 45 46 48 48 46 45 45 46 45 44 44 43 43 43 42

GFSWCAN_sfc_temp_078.txt.gz
Temp
56 56 57 57 57 57 57 56 56 56 56 57 58 58 59 59 58 52 50 49 49 43 46 53 54 47 44 41 37 40 40 38 33 28 26 24 22 27 25 30 29 28 24 28 30 24 24 43 43 37 38 39 41 41
56 56 56 57 56 56 56 56 56 56 56 57 57 58 58 58 57 54 49 50 50 47 49 51 55 57 57 53 43 39 40 36 36 28 28 25 24 27 23 21 31 25 30 26 30 30 38 40 40 41 41 38 40 40
55 55 56 56 56 56 56 56 56 56 56 56 57 57 58 57 57 53 45 45 48 45 46 47 51 53 54 55 54 43 39 40 36 37 31 27 23 27 24 23 27 31 34 27 30 35 36 39 41 42 42 40 42 44
55 55 55 56 56 56 56 56 56 55 55 56 57 57 57 57 57 55 47 46 47 44 40 45 55 49 55 55 55 53 46 41 40 38 32 30 26 31 23 27 26 31 34 31 28 33 36 40 41 41 42 45 46 48
54 55 55 56 56 56 56 56 55 55 55 55 56 56 57 57 56 50 46 47 49 47 40 42 47 50 51 54 54 50 48 43 40 37 34 33 32 32 31 32 27 34 32 28 28 36 37 38 41 43 42 43 44 46
54 54 55 55 55 56 56 56 55 55 55 55 55 55 56 55 54 49 47 49 50 48 43 39 46 47 51 50 50 47 50 48 48 44 39 39 39 35 28 28 35 36 37 37 37 38 39 41 42 44 42 43 46 46
54 54 55 55 54 56 56 55 55 55 55 55 54 55 55 54 47 47 47 50 50 49 44 39 40 48 51 46 45 45 48 49 47 45 42 41 39 40 30 26 38 38 40 39 40 41 39 40 40 43 43 45 47 48
54 54 55 54 55 56 56 55 55 55 54 54 54 54 54 54 51 48 50 52 53 51 49 42 40 44 48 43 42 47 48 47 46 45 44 40 40 40 33 40 40 42 41 41 41 43 42 42 42 42 43 43 43 43
53 54 54 54 55 55 55 55 55 54 54 54 54 54 49 47 46 49 58 56 57 53 42 44 38 38 49 47 47 47 48 42 47 43 43 42 35 32 39 41 43 44 44 45 44 42 42 41 42 42 42 43 41 42
54 54 53 53 55 55 55 55 54 54 53 54 48 48 46 48 57 57 52 49 50 48 47 43 41 41 46 45 44 45 46 41 36 40 44 37 34 43 44 44 45 47 46 46 44 42 41 41 42 43 42 43 43 43
54 53 53 54 55 55 55 54 54 54 53 46 46 46 49 55 53 50 45 43 46 42 40 43 41 40 47 41 43 44 37 37 34 38 38 35 36 42 46 47 49 49 50 48 48 48 47 46 44 44 44 44 44 44
53 53 54 55 55 55 54 54 53 48 46 48 49 48 48 48 47 43 42 47 45 41 43 42 44 45 44 45 45 42 42 39 33 45 39 32 39 45 46 48 50 50 51 50 49 49 48 48 47 45 45 45 45 45
52 53 54 55 54 54 54 53 53 52 50 47 47 50 47 45 39 42 39 40 40 45 46 44 42 44 43 43 42 42 41 39 43 36 35 33 38 43 43 44 47 48 49 48 49 49 49 49 49 48 47 46 46 45
53 54 54 54 54 54 54 54 54 53 45 46 46 44 45 40 43 44 44 44 46 46 45 44 42 41 40 40 39 37 37 38 32 25 30 35 38 42 43 44 44 45 46 46 47 49 48 48 48 48 48 47 47 45
54 54 54 54 54 53 53 53 53 50 47 46 46 39 43 47 47 48 48 46 46 46 45 42 41 41 39 39 38 37 35 31 30 29 34 38 40 40 42 44 44 44 44 46 48 47 47 47 46 46 48 50 48 46
54 54 53 54 53 52 52 52 49 47 48 46 44 44 47 46 47 47 46 45 46 46 43 42 39 39 37 37 37 34 33 27 34 35 39 39 41 42 42 44 45 46 46 47 47 46 46 46 45 46 49 47 46 47
54 52 54 54 53 51 51 49 47 48 47 47 46 47 48 48 47 47 47 48 47 45 41 40 39 37 39 36 35 36 34 37 39 40 40 40 41 42 47 48 49 49 48 46 44 44 44 46 45 46 47 48 47 46
51 53 55 54 51 50 49 51 50 50 47 48 46 48 49 50 49 49 49 47 47 42 42 42 41 37 36 35 35 37 39 39 40 40 41 41 42 44 46 45 46 45 45 44 43 44 44 44 44 44 48 48 46 45
52 52 54 54 51 48 48 49 48 45 47 47 48 49 50 50 49 49 48 46 45 44 44 41 40 37 37 37 39 40 40 39 41 41 41 42 46 46 45 46 46 44 42 42 41 40 42 42 42 43 47 45 45 44
53 53 53 53 52 46 47 48 50 47 47 48 48 47 48 48 48 47 47 46 45 44 44 42 41 40 40 41 40 42 42 42 41 41 41 42 43 43 43 43 42 42 42 43 42 43 42 44 44 44 44 45 46 47
52 52 52 49 46 46 46 47 48 49 48 47 47 47 46 47 47 47 47 44 45 44 43 43 43 44 43 44 43 43 43 42 42 42 42 42 42 41 41 41 42 44 44 44 44 44 44 43 43 44 46 45 46 46
50 53 50 50 48 48 45 47 47 48 48 47 47 46 45 45 46 46 45 46 44 46 45 44 44 45 44 45 44 44 46 44 43 42 43 43 42 42 41 42 47 43 44 45 43 43 43 44 43 44 45 45 45 45
52 51 50 51 49 44 45 50 49 48 46 46 46 45 46 46 46 47 45 45 46 47 46 46 46 46 46 47 46 46 46 45 44 43 42 42 41 41 42 43 42 42 41 41 41 42 41 41 43 44 45 44 45 44
53 50 49 48 49 42 50 49 50 48 46 44 43 44 46 46 47 45 45 45 47 46 47 49 46 45 44 45 44 44 43 44 43 42 42 42 42 41 41 42 42 42 41 41 42 41 42 42 42 45 47 46 46 44
44 43 45 37 46 47 48 47 46 45 44 44 44 45 45 46 45 45 45 46 45 46 46 46 46 46 44 44 43 43 42 44 44 42 41 42 40 41 41 41 40 41 42 44 42 42 43 42 43 45 45 45 44 44
37 44 42 47 47 47 48 46 46 45 46 46 46 46 46 45 45 46 47 47 46 47 46 46 45 44 44 44 44 44 44 44 44 44 41 42 43 44 42 41 42 43 43 44 44 44 44 44 45 45 45 45 41 45
38 43 47 48 48 49 47 48 48 46 46 46 46 45 45 44 46 49 48 46 48 49 49 48 48 48 47 44 42 42 42 44 46 46 44 44 44 44 44 43 43 44 45 46 46 47 46 46 46 46 45 45 46 46
46 47 46 48 47 49 50 47 48 46 47 48 47 46 46 48 48 50 49 49 49 47 47 46 47 48 46 46 45 43 41 42 43 42 43 43 42 43 44 45 44 42 45 47 48 47 48 48 47 47 47 46 46 47
45 47 48 47 49 48 48 49 49 49 49 48 47 47 48 50 52 50 49 48 47 50 48 47 45 45 44 43 44 44 46 48 46 43 43 42 43 45 44 45 45 46 46 48 43 45 49 48 48 48 48 47 46 46
46 48 47 49 49 48 50 52 52 51 49 50 51 51 51 51 52 50 49 49 51 52 51 49 48 49 46 47 44 43 44 46 50 48 44 43 44 47 45 45 46 46 46 47 48 49 44 48 46 49 48 47 46 46
49 48 49 49 49 50 52 53 52 52 51 51 51 52 51 54 54 52 53 54 52 49 49 48 46 48 49 46 46 45 45 48 45 47 48 48 47 46 46 46 47 46 46 47 47 48 48 47 47 48 48 47 46 45
48 48 49 49 49 51 53 53 52 50 49 49 49 50 51 53 53 52 53 53 51 51 49 52 53 51 51 51 49 49 46 51 50 47 48 47 47 48 48 47 47 47 48 48 48 48 48 49 47 47 48 48 48 48
50 53 52 50 49 49 49 50 50 49 49 49 49 50 50 50 50 53 53 54 58 59 57 56 56 53 52 51 51 49 45 47 44 42 43 44 44 44 46 46 47 49 49 49 49 48 48 48 48 47 48 47 47 48

GFSWCAN_sfc_temp_081.txt.gz
Temp
56 56 56 57 57 57 57 57 56 56 56 57 58 58 58 58 58 61 60 58 62 59 61 60 62 56 54 55 52 51 51 51 50 42 42 35 37 35 38 43 42 42 39 38 39 38 35 52 50 45 48 50 51 50
56 56 56 56 57 57 57 57 56 56 56 57 57 58 58 58 57 57 61 59 58 61 61 60 65 67 66 65 57 51 53 50 52 41 40 41 38 37 38 37 44 38 43 41 44 45 48 51 52 53 51 49 50 49
55 55 55 56 56 56 56 56 56 56 56 56 57 57 58 57 57 57 59 57 60 59 60 60 62 65 66 67 70 57 54 53 50 54 49 44 37 41 35 37 40 43 45 42 42 49 48 51 52 52 52 51 51 52
55 55 55 55 56 56 56 56 56 56 56 56 56 57 57 57 57 56 58 57 59 56 54 59 64 62 65 66 66 65 58 54 54 54 51 47 43 44 40 39 39 44 43 40 41 46 46 49 51 52 51 52 52 53
54 55 55 55 56 56 56 56 56 56 55 55 56 56 57 57 55 55 56 58 58 58 54 57 61 61 63 63 62 59 58 55 53 50 50 46 48 43 44 43 39 45 42 39 41 51 51 50 52 53 51 51 53 53
54 54 54 55 55 55 56 56 56 56 55 55 55 55 55 55 54 59 57 60 60 60 56 51 58 57 59 59 58 57 59 55 51 49 45 48 50 49 40 37 48 48 49 52 51 51 51 53 54 54 52 53 54 54
54 54 54 55 55 54 54 56 56 55 55 54 54 54 55 54 56 59 57 59 55 59 56 51 53 58 58 57 57 57 58 58 53 47 45 47 44 45 39 35 49 49 49 50 52 51 48 49 50 53 52 54 54 54
53 54 54 54 55 54 55 56 55 55 55 54 54 54 54 54 55 58 62 55 57 58 57 50 52 55 59 53 50 55 55 53 49 47 45 42 40 40 33 43 45 48 49 48 49 51 55 53 53 52 53 53 51 52
53 54 54 54 54 54 55 55 55 55 54 54 54 54 55 56 58 59 58 56 60 58 52 52 48 50 55 53 53 52 50 44 47 43 42 42 34 32 39 42 44 44 43 47 50 51 51 48 50 52 52 53 51 53
53 53 54 53 53 54 55 55 55 54 53 54 54 55 54 58 58 60 59 55 54 57 55 48 53 51 56 53 48 48 43 38 37 42 44 38 37 43 45 46 45 49 52 52 49 48 49 49 51 53 53 55 55 55
53 53 53 53 53 54 55 55 54 53 53 53 55 55 58 57 59 55 52 48 49 47 48 47 49 49 55 47 47 47 43 42 37 41 39 38 40 45 48 47 50 53 55 54 54 55 55 55 55 55 55 55 55 55
53 53 53 53 55 55 55 54 53 52 54 53 55 55 58 56 53 50 48 49 48 48 49 49 52 49 51 51 46 46 44 44 35 47 44 35 46 50 50 50 53 53 53 55 56 54 56 56 56 56 56 56 57 56
52 52 53 54 55 55 54 54 53 53 53 55 55 54 54 52 41 45 47 48 48 52 53 51 52 51 51 52 47 46 42 42 50 44 40 45 49 51 52 53 54 54 55 56 56 58 58 57 57 56 56 56 57 56
52 54 54 54 54 54 54 53 53 53 54 55 52 40 48 48 50 53 53 54 56 54 53 53 51 51 50 49 50 45 46 48 41 37 41 50 51 53 54 55 54 55 56 56 58 57 57 56 57 57 56 57 56 55
54 54 54 53 53 53 53 54 54 53 54 53 52 41 49 56 56 57 57 55 55 55 53 51 51 51 49 48 49 47 42 40 42 42 49 52 53 53 54 55 55 57 57 57 58 58 57 56 56 56 58 57 55 56
54 54 55 53 53 53 53 53 53 52 54 53 52 53 57 54 56 56 55 54 56 54 53 56 50 49 47 48 46 43 42 39 47 51 56 52 51 53 53 54 55 56 57 55 56 56 57 56 56 55 57 57 55 56
54 57 54 53 52 51 52 54 54 53 54 53 55 56 55 55 55 56 58 59 57 57 54 52 48 46 50 47 45 47 46 52 55 56 56 51 51 53 53 53 53 56 56 55 54 54 55 56 55 54 53 54 55 55
55 56 54 52 53 52 53 53 53 54 51 57 54 57 56 57 57 59 60 58 58 58 55 53 53 49 47 44 47 52 54 56 55 55 53 53 53 53 52 55 55 54 54 53 52 52 52 52 51 52 54 53 52 51
55 54 54 54 55 54 53 53 54 52 56 58 56 56 57 58 60 61 61 58 58 58 56 55 51 50 50 53 55 57 55 56 57 54 53 53 54 54 54 55 55 53 51 51 51 50 51 49 51 52 53 56 51 51
53 53 53 53 55 53 51 55 57 54 54 57 56 56 57 58 58 60 59 58 57 57 55 54 55 58 56 57 54 56 58 56 55 54 54 56 57 55 53 54 52 51 53 52 53 48 52 48 48 48 49 51 53 52
53 53 53 54 52 53 54 55 55 56 56 55 56 55 56 58 58 58 58 58 57 57 56 58 58 60 58 58 58 58 56 56 55 58 55 57 55 56 55 55 55 56 53 55 52 50 48 48 46 47 45 46 53 54
55 53 54 53 54 52 51 57 56 57 56 56 55 55 55 54 57 59 58 57 58 60 59 58 58 58 55 54 55 55 57 55 54 55 48 51 57 56 55 56 56 54 54 53 52 52 51 52 54 50 48 48 49 51
53 53 55 54 51 47 48 58 54 56 53 54 54 53 55 56 57 57 57 59 61 61 59 59 56 56 57 57 55 56 56 55 54 56 56 57 56 56 56 55 57 55 54 54 55 54 51 45 51 52 51 52 53 51
53 54 52 52 50 45 57 54 56 54 54 52 52 52 55 57 57 56 55 59 62 59 57 55 57 54 53 54 55 57 56 57 56 56 56 56 55 54 56 55 56 56 55 56 55 53 53 54 47 52 52 52 52 52
45 47 47 38 50 50 52 54 53 53 51 53 51 53 55 56 55 54 55 61 60 58 58 57 58 58 58 57 56 55 53 58 58 56 55 58 56 55 55 55 54 55 57 57 55 54 54 55 55 55 55 55 54 53
37 49 44 52 55 52 55 52 52 52 53 52 53 56 56 54 51 53 59 62 60 58 58 59 59 57 55 58 57 56 56 58 58 58 55 58 59 58 55 54 54 53 58 58 57 55 54 55 55 54 55 53 44 54
40 50 54 57 57 57 55 55 56 54 53 52 55 53 53 50 53 60 62 60 61 61 62 62 62 63 60 57 55 55 56 57 59 60 59 58 59 60 59 56 54 55 57 58 58 57 56 56 55 55 55 56 56 56
52 53 51 56 55 58 56 56 55 54 55 57 57 52 53 55 58 63 64 61 61 60 60 60 62 65 63 59 57 55 54 54 54 56 56 56 57 59 57 58 58 42 58 60 59 59 59 59 57 56 56 56 57 58
51 55 54 53 56 57 55 57 58 58 60 59 57 57 59 63 64 58 58 59 60 61 59 58 57 59 58 56 56 57 56 57 55 52 53 54 54 56 58 58 58 59 59 58 42 50 57 58 58 58 57 58 57 59
54 56 54 55 54 54 57 58 61 63 60 62 61 60 61 61 63 62 58 57 59 63 63 64 59 60 58 56 55 54 56 59 62 59 56 54 57 60 59 58 59 59 59 60 59 57 43 54 50 58 58 58 59 58
57 55 55 56 56 59 60 61 61 60 60 58 60 60 61 64 64 60 61 62 63 62 61 59 59 60 56 56 56 55 54 57 57 58 60 62 61 59 59 59 60 60 59 60 59 59 60 59 59 57 57 56 54 54
55 55 56 55 57 59 60 59 58 57 57 57 58 59 61 61 59 60 60 58 59 60 57 60 59 58 58 62 60 60 48 62 58 57 58 59 60 60 60 60 60 60 59 59 59 59 58 57 58 57 57 55 55 55
56 58 58 60 59 56 58 58 58 57 57 57 56 58 59 59 57 60 58 59 58 60 62 62 64 62 58 58 58 58 50 59 55 47 46 47 49 52 60 60 60 60 60 60 60 59 57 56 57 55 55 55 55 55

GFSWCAN_sfc_temp_084.txt.gz
Temp
56 56 56 56 57 57 57 57 57 57 57 57 58 58 59 59 58 65 72 71 70 71 72 70 70 66 66 67 64 61 61 60 61 52 51 45 47 41 47 54 51 50 48 49 52 46 43 62 59 54 57 61 61 60
56 56 56 56 56 57 57 57 57 57 56 57 57 58 58 58 58 58 74 73 72 69 71 73 75 76 74 72 71 64 62 60 66 55 54 54 45 47 47 43 55 48 56 52 54 56 59 62 62 63 62 60 61 60
55 55 55 56 56 56 56 57 57 57 56 56 57 58 58 58 58 59 72 71 72 70 71 71 70 75 78 77 81 67 69 65 63 66 65 61 45 53 44 46 50 55 56 51 51 58 58 60 61 62 62 61 61 61
55 55 55 55 55 56 56 56 57 57 56 56 56 57 57 57 57 56 71 71 71 69 65 67 75 70 74 76 75 75 70 68 68 67 64 60 54 58 51 49 47 56 53 50 51 57 57 60 61 61 60 61 61 61
54 55 55 55 55 55 56 56 57 56 56 56 56 56 57 57 56 64 73 73 73 66 64 69 72 71 74 72 71 71 70 66 65 61 60 57 64 57 59 56 49 57 53 46 47 60 59 60 61 62 59 59 60 60
53 54 54 54 55 55 56 56 56 56 56 56 55 55 56 56 56 68 66 72 75 71 65 64 71 67 68 70 69 68 69 69 65 57 58 61 61 58 48 45 56 61 62 63 60 62 62 62 63 62 61 61 61 60
53 54 54 54 55 55 54 53 55 56 55 55 55 55 55 55 65 66 64 65 61 71 66 64 65 68 67 68 69 68 68 67 62 51 46 46 45 46 43 40 53 58 59 60 61 61 56 60 59 62 62 61 60 61
53 53 54 54 55 55 54 54 56 55 55 55 54 54 54 55 56 65 69 58 62 67 67 62 64 64 68 66 62 70 63 61 51 47 47 45 43 42 34 44 49 49 51 55 57 61 62 63 62 61 62 61 59 59
53 53 54 54 55 54 53 55 56 55 54 54 54 54 63 64 67 67 58 57 69 65 62 66 58 57 71 65 60 54 58 44 55 44 42 43 36 33 42 45 44 45 46 47 50 53 57 56 58 59 59 59 58 59
53 53 53 54 53 52 54 55 55 54 54 54 58 64 62 67 58 60 64 63 64 66 66 61 66 60 67 60 56 51 55 47 44 48 46 42 41 54 53 48 47 47 50 54 51 51 53 54 57 59 59 61 62 62
53 53 53 53 53 54 54 55 54 53 52 62 65 65 67 58 67 64 56 57 60 55 60 60 60 57 64 54 52 53 49 52 40 44 42 41 45 53 53 49 49 53 57 59 59 59 60 61 59 60 61 61 62 62
53 53 53 53 54 55 55 54 53 58 64 59 63 65 67 64 60 53 55 56 53 56 60 60 61 62 57 57 54 54 48 51 40 57 48 40 56 56 56 55 55 58 60 60 62 60 61 61 62 62 61 61 62 62
52 53 54 54 55 55 55 54 53 54 54 66 64 60 62 60 44 52 52 55 58 63 62 63 59 59 55 56 51 54 47 46 62 49 47 57 57 59 59 60 60 62 62 62 63 64 64 64 64 63 62 64 63 62
53 54 54 54 55 55 54 54 53 56 61 63 59 41 54 55 58 62 63 65 66 68 69 68 59 54 60 56 61 49 56 57 49 44 48 59 58 60 61 62 61 61 62 62 63 64 63 63 63 64 64 64 63 61
54 54 54 54 53 53 54 53 53 61 64 60 61 45 58 67 69 69 70 69 68 71 67 63 63 63 60 56 60 57 50 46 49 48 59 63 61 60 60 61 62 63 63 64 64 64 64 65 64 64 65 66 62 62
54 55 58 53 53 54 54 54 58 62 64 62 61 61 67 66 66 68 67 67 70 69 68 67 61 57 56 59 53 50 49 44 55 62 63 64 59 60 60 61 62 64 64 64 64 64 64 63 62 63 64 64 63 63
54 65 53 52 52 53 53 61 63 60 62 60 64 70 67 66 64 70 71 71 71 67 65 65 53 53 62 56 52 58 54 58 62 64 63 60 58 58 61 60 61 61 61 63 62 61 61 61 61 60 59 61 63 62
65 61 54 52 55 55 62 62 62 61 58 66 64 69 69 69 64 67 71 70 68 69 67 61 65 56 55 50 57 63 64 67 66 64 64 62 61 61 63 61 61 61 60 60 60 61 60 60 58 57 58 59 61 60
60 59 54 53 57 61 60 59 61 60 65 70 69 70 68 69 71 72 73 70 71 71 68 65 58 59 60 64 62 66 66 67 65 64 64 61 62 62 62 63 63 62 61 61 61 61 59 58 58 59 59 59 54 57
53 54 53 53 56 60 57 62 66 62 63 65 68 64 68 66 71 71 70 69 67 67 63 60 63 67 66 68 69 68 68 67 66 65 62 64 66 62 61 63 63 62 64 62 63 50 61 59 56 50 51 51 53 53
55 57 54 60 60 60 62 65 63 67 65 63 70 67 68 69 67 67 67 69 65 65 64 68 70 70 69 69 69 68 66 67 67 65 64 65 66 67 65 66 65 65 65 64 62 57 54 56 53 50 44 47 49 57
64 54 62 60 61 60 59 66 64 68 65 68 66 67 65 64 65 67 71 64 66 69 70 71 69 68 65 63 64 64 66 64 64 62 52 55 64 63 65 67 67 64 63 63 63 61 62 61 57 56 52 54 53 55
55 57 59 58 54 50 53 67 60 64 59 63 65 61 64 65 68 67 64 69 71 75 73 71 68 68 68 66 64 64 64 63 65 66 65 67 66 66 65 66 67 65 64 62 65 63 61 47 54 58 61 58 57 60
53 58 55 56 54 50 64 60 64 62 63 60 60 58 63 67 68 64 62 69 74 71 68 63 66 65 66 63 64 64 64 66 66 65 66 65 64 63 66 67 67 66 65 65 64 62 62 61 50 58 58 59 57 59
48 49 51 40 55 52 57 60 59 60 58 61 58 60 64 66 61 62 62 71 71 70 68 67 67 69 67 67 67 65 63 67 65 63 65 68 66 63 63 65 64 66 68 64 63 62 62 62 62 62 63 61 58 59
39 55 46 57 61 58 62 57 58 59 60 58 61 67 67 62 57 58 68 72 73 70 68 68 67 67 67 68 65 64 63 68 67 64 64 67 67 66 63 60 60 60 68 67 64 62 61 62 62 60 61 57 47 59
43 55 60 66 65 65 63 65 66 63 59 58 64 60 60 55 58 67 71 71 71 71 73 73 71 70 68 67 66 66 67 68 67 67 67 68 70 70 67 64 60 62 66 66 66 64 62 62 62 62 61 63 62 62
58 60 56 62 62 66 60 62 61 59 63 69 66 58 58 61 64 71 73 71 67 70 72 71 73 74 71 68 67 64 66 66 66 66 66 66 68 69 66 67 66 43 65 66 66 65 67 65 63 62 60 59 59 61
58 65 64 58 62 63 62 62 64 70 73 70 63 63 66 74 75 74 70 70 71 69 67 67 68 70 67 67 66 66 67 66 62 58 57 59 59 62 66 65 64 65 66 64 41 50 60 63 64 64 62 63 64 65
59 66 62 60 59 60 66 70 69 75 74 72 72 70 71 73 76 75 71 65 68 70 71 72 70 69 65 66 64 64 68 69 68 65 61 61 62 66 65 64 64 66 66 65 64 62 43 57 51 62 61 63 64 63
68 65 60 62 62 67 71 74 73 73 67 65 71 67 68 72 74 75 72 70 71 71 71 69 69 70 66 66 67 64 64 68 68 67 68 70 69 66 65 65 66 66 65 66 66 65 63 63 66 64 63 60 58 56
64 61 61 59 64 70 69 69 70 67 67 64 67 70 70 69 65 69 65 58 51 51 60 67 69 67 69 68 71 69 48 72 66 65 65 66 67 66 66 66 66 66 65 64 65 65 63 62 64 64 64 59 58 58
63 64 64 65 65 65 68 66 66 65 66 65 64 67 67 66 61 66 66 64 59 60 62 68 70 73 70 69 67 68 55 68 62 51 49 51 52 57 66 67 66 65 64 64 65 65 62 61 62 61 60 60 59 58

GFSWCAN_sfc_temp_087.txt.gz
Temp
56 56 56 56 57 57 57 57 58 58 57 58 58 59 59 59 59 65 79 79 76 75 77 77 76 72 73 72 69 68 67 67 67 59 58 52 51 50 52 60 58 56 53 55 57 53 49 69 66 59 63 67 69 69
56 56 56 56 56 56 57 57 58 58 57 57 58 58 59 58 58 58 79 81 79 74 77 80 82 83 79 78 76 71 68 66 71 65 62 61 52 56 54 48 63 54 62 56 60 57 65 69 67 69 71 67 66 67
55 55 55 56 56 56 56 56 57 58 57 57 57 58 58 58 58 59 78 78 79 75 77 77 75 81 86 83 88 70 74 72 70 72 71 64 51 60 49 51 57 62 65 58 58 64 63 67 68 69 70 68 68 69
55 55 55 55 56 56 56 56 57 57 57 57 57 57 58 58 58 58 76 79 77 76 70 72 82 76 82 84 80 81 77 77 76 73 68 65 59 65 55 56 53 61 61 56 58 63 64 65 67 67 67 68 68 68
54 55 55 55 55 55 56 56 56 57 57 56 56 57 57 58 57 64 78 81 81 71 69 73 79 79 81 79 77 78 76 72 71 66 64 58 63 65 66 63 56 65 59 52 50 63 63 65 67 68 65 65 67 66
54 54 54 55 55 55 56 56 56 56 56 56 56 56 56 56 57 72 71 79 82 78 69 66 77 73 76 76 75 73 74 71 66 62 63 65 63 60 48 48 60 66 68 68 64 68 68 69 69 69 66 67 67 67
54 54 54 54 55 55 55 53 53 55 56 56 55 55 56 55 65 69 65 69 63 77 70 69 68 74 74 75 76 74 73 66 63 56 52 58 48 47 43 40 54 59 62 65 68 66 62 65 65 68 68 67 63 67
54 54 54 54 55 55 54 54 55 56 56 55 55 55 55 55 57 65 72 60 63 72 74 67 66 68 75 71 62 73 62 61 60 53 48 44 44 42 35 48 51 53 52 56 63 66 65 68 68 67 67 67 64 64
53 53 54 54 54 54 54 55 56 56 55 55 55 55 64 64 67 68 60 60 74 69 64 70 64 55 76 69 66 64 65 54 59 49 46 44 38 34 48 53 53 51 48 51 53 53 59 61 63 64 65 64 63 64
53 53 53 54 54 53 53 55 55 55 54 54 60 66 61 67 59 62 69 65 64 71 71 65 74 64 73 67 60 62 65 55 44 53 54 46 47 58 58 58 55 52 51 54 49 47 49 52 57 60 61 63 64 64
53 53 53 53 53 54 54 55 55 54 52 66 67 67 72 58 68 64 59 58 67 61 68 69 68 65 72 63 60 66 55 57 44 50 53 51 48 58 60 57 58 58 59 57 60 59 61 61 61 61 62 63 63 65
53 53 53 54 54 54 55 55 54 60 72 62 65 71 74 64 59 56 55 65 61 61 68 68 68 70 68 71 63 64 52 56 44 59 51 45 55 61 61 59 60 61 62 60 64 63 64 63 65 64 63 62 64 63
54 54 54 55 56 56 55 55 53 56 55 72 68 64 60 59 48 52 53 58 58 67 67 70 62 68 64 67 62 59 51 51 68 53 50 56 60 63 64 64 62 63 63 65 65 66 67 67 67 66 64 63 64 60
54 54 54 54 55 55 55 55 54 58 65 67 64 42 57 58 62 64 71 69 71 74 75 72 68 66 67 58 61 52 62 63 52 47 51 61 61 64 65 66 65 63 62 63 64 66 67 67 67 67 66 66 65 65
54 55 55 54 54 54 55 54 54 66 69 64 67 47 62 69 73 75 76 75 74 77 74 69 68 71 62 61 66 62 55 51 54 50 60 64 64 64 64 63 63 61 62 62 65 64 65 64 66 64 65 67 66 66
55 55 61 54 54 54 53 55 61 69 70 67 66 65 71 68 69 68 73 74 77 76 74 71 66 62 61 65 58 55 54 49 58 64 66 66 62 63 62 64 66 66 64 62 63 64 63 64 58 61 68 65 65 65
52 70 53 53 53 54 54 63 69 64 67 65 68 75 74 73 72 65 74 75 78 73 69 70 57 58 68 60 57 65 59 63 66 68 68 64 62 62 64 65 65 65 65 64 63 62 61 63 64 62 60 64 65 64
69 64 53 52 54 58 68 66 67 67 62 70 69 74 75 75 66 71 70 77 74 74 72 65 68 60 59 55 60 67 70 70 71 68 67 65 64 65 66 65 65 65 63 63 65 64 64 61 59 60 60 60 59 58
61 61 54 53 58 62 66 65 67 64 69 75 76 76 76 74 74 75 71 75 77 78 74 69 62 62 65 69 67 69 71 71 68 67 67 65 66 65 65 66 65 65 64 64 64 65 65 62 62 64 63 62 56 56
53 55 54 54 55 65 62 67 72 66 67 71 76 73 74 71 75 75 72 74 73 71 67 63 64 73 70 71 73 72 71 71 69 67 66 67 69 65 64 65 67 65 66 65 66 56 64 60 65 61 58 57 57 55
53 60 55 60 62 65 66 69 68 70 72 69 74 73 70 74 72 69 69 73 70 69 65 71 70 74 73 74 74 73 69 71 69 68 67 67 70 70 67 71 70 69 67 67 66 62 53 63 60 60 49 52 51 51
68 54 66 62 65 67 65 72 69 72 70 72 73 73 70 68 68 67 70 70 69 71 69 69 73 73 70 68 69 70 70 68 67 66 54 60 67 66 69 70 69 68 67 67 66 65 64 61 62 61 56 57 53 58
55 62 64 63 58 54 55 74 64 69 64 66 71 65 69 70 71 77 69 73 73 75 77 79 75 73 72 71 70 69 69 67 69 69 70 70 72 71 72 71 70 68 66 66 68 67 63 49 58 58 62 63 65 64
53 60 57 57 58 54 69 64 67 65 65 63 64 61 68 67 73 69 66 68 71 78 76 70 72 71 70 68 69 69 69 70 70 72 72 71 70 68 71 72 72 72 68 71 71 67 61 62 54 64 61 62 63 59
50 52 55 42 59 54 59 64 65 63 60 65 64 65 65 72 64 64 66 69 75 75 74 72 72 72 67 70 72 72 71 72 70 69 69 71 72 69 68 71 71 69 71 70 65 64 60 63 65 67 64 62 60 59
42 58 47 62 64 60 61 62 61 61 63 62 64 73 74 68 61 62 65 71 75 76 73 72 72 72 71 75 73 70 70 73 72 69 69 72 71 69 68 66 65 65 71 71 67 65 66 65 65 63 62 59 49 60
46 59 65 70 69 70 68 70 72 68 63 63 65 62 62 58 60 65 76 79 76 76 75 76 76 74 74 74 74 74 74 73 71 71 72 73 74 73 73 69 67 67 72 72 72 70 67 64 65 65 64 65 62 64
62 64 60 66 66 69 64 66 65 63 67 70 69 56 58 59 61 72 77 79 79 80 75 80 80 80 76 74 74 73 73 73 71 72 71 71 73 73 70 72 70 48 66 70 70 70 69 68 67 65 62 61 64 67
62 67 68 63 66 67 67 66 68 74 74 70 59 59 63 72 75 78 77 79 78 75 73 74 76 76 73 72 73 74 72 71 66 61 60 62 64 66 70 70 67 67 69 67 43 51 60 63 64 64 65 65 66 67
63 71 66 66 64 64 69 75 73 77 81 78 77 76 76 70 68 81 80 78 72 70 75 73 73 70 67 68 69 71 74 72 73 67 64 65 66 70 69 69 68 69 69 68 67 65 47 58 56 65 63 66 65 66
72 70 66 67 66 72 75 78 80 80 79 75 70 72 73 70 68 76 78 75 71 64 58 61 70 74 71 71 71 69 68 70 72 71 72 74 73 70 68 69 70 70 69 68 68 67 66 63 64 64 64 62 62 58
69 66 66 64 67 74 77 74 75 74 75 72 72 77 74 66 62 69 74 73 67 54 55 61 67 68 75 77 77 76 55 74 70 69 70 71 71 69 68 70 71 71 68 67 67 67 66 64 64 65 63 62 62 62
69 71 69 68 68 68 74 73 72 71 73 67 64 73 72 70 63 69 73 74 71 69 67 65 68 68 70 75 76 72 63 73 64 52 51 51 51 59 66 70 71 70 67 67 67 67 65 64 64 64 63 63 63 62

GFSWCAN_sfc_temp_093.txt.gz
Temp
56 56 56 56 57 57 57 57 58 58 58 58 59 59 59 59 58 58 64 70 65 60 67 75 77 68 67 64 56 61 59 60 56 50 48 45 43 45 45 51 48 46 43 43 44 39 39 64 63 52 54 60 62 62
56 56 56 56 56 56 57 57 57 58 58 58 58 58 58 58 58 58 64 73 71 63 66 76 78 80 77 74 65 63 60 60 57 51 51 50 45 48 46 38 55 44 48 44 47 45 55 58 57 60 60 58 60 61
55 55 55 55 56 56 56 57 57 57 58 58 58 58 58 58 58 58 62 67 68 64 66 70 70 76 81 79 80 60 62 66 61 62 55 53 47 51 41 42 48 53 57 48 48 55 58 60 61 63 62 61 62 62
55 55 55 55 55 55 56 56 57 57 58 58 58 58 58 58 58 58 62 69 68 64 59 66 81 74 81 80 78 75 69 68 66 62 55 53 50 56 47 49 46 52 54 50 49 54 58 61 61 62 62 64 63 63
54 54 55 55 55 55 55 56 56 57 58 58 58 58 58 57 57 58 64 69 72 63 57 64 75 78 77 74 73 72 68 64 60 57 54 50 53 50 53 54 47 52 47 43 43 54 54 58 59 63 60 61 61 60
54 54 54 54 55 55 55 55 56 56 57 57 57 57 57 57 56 63 63 69 68 67 60 57 71 72 74 73 70 68 66 63 61 56 54 53 53 49 44 41 52 52 53 53 49 54 57 59 63 63 60 61 62 60
54 54 54 54 55 55 55 55 55 56 56 56 57 57 56 56 58 61 60 61 56 64 61 59 59 69 73 70 67 65 66 62 60 56 51 51 48 49 44 39 51 53 52 54 55 55 54 59 57 64 64 64 64 63
54 54 54 54 55 55 55 55 55 55 56 56 56 56 56 55 55 61 66 59 57 62 65 56 57 61 71 60 54 64 60 59 57 54 52 47 47 44 35 44 49 52 54 54 55 56 55 57 59 62 64 61 59 59
54 54 54 54 54 54 55 55 55 56 56 56 56 56 60 60 64 64 63 62 65 63 57 60 50 49 70 57 54 55 59 49 56 49 49 48 38 33 41 46 50 52 51 51 54 54 55 55 55 56 59 61 58 58
54 53 53 54 54 54 54 55 55 56 55 55 56 61 61 65 62 63 65 62 62 64 63 59 63 57 62 59 56 56 57 50 45 50 52 45 42 47 52 53 54 53 53 53 51 50 51 52 53 53 53 55 57 57
53 54 54 54 53 54 55 55 55 55 53 59 60 59 67 62 65 62 58 58 61 57 62 63 62 59 66 56 54 57 51 51 43 47 47 44 44 51 56 54 55 54 55 54 55 55 55 56 54 54 54 55 55 57
53 53 53 53 54 54 55 55 55 54 64 57 54 61 68 63 59 55 56 60 59 56 62 60 60 63 62 63 57 57 52 51 43 54 48 41 49 54 56 56 56 55 57 57 58 56 57 57 56 55 53 52 53 55
54 55 55 55 56 56 56 56 55 55 56 66 61 60 59 57 44 51 51 54 55 63 64 63 59 62 61 62 57 55 49 48 57 48 45 47 52 55 55 56 57 58 59 58 60 60 60 59 59 57 54 55 54 53
54 55 55 55 55 56 56 55 55 57 58 60 58 39 52 53 56 58 61 62 66 67 65 65 61 60 62 57 57 52 55 57 49 43 47 50 49 51 55 58 58 57 59 59 58 59 59 59 58 58 56 55 55 54
54 55 56 56 55 55 55 55 55 60 62 60 63 44 57 65 67 57 60 67 69 70 66 63 64 63 58 56 58 56 53 50 50 47 51 54 53 56 58 58 58 58 58 58 59 57 57 57 55 53 56 57 57 53
54 54 58 56 55 54 54 55 58 63 64 62 62 60 64 56 52 56 62 66 71 68 68 66 61 58 56 57 55 55 51 46 52 55 57 57 56 57 57 59 58 58 59 58 57 58 59 55 54 54 55 55 53 53
51 63 54 54 55 55 55 57 63 62 62 63 62 68 67 56 51 56 64 67 70 67 60 61 57 57 61 56 56 59 54 55 57 57 58 56 56 56 58 58 58 58 58 57 57 57 57 57 56 55 53 54 55 53
63 60 55 54 54 59 61 58 64 64 60 63 60 64 69 67 57 62 59 60 67 66 65 62 64 58 55 55 55 57 58 59 60 58 58 57 57 58 60 57 58 58 57 57 57 57 56 56 53 53 53 51 52 53
58 57 55 55 55 55 60 63 65 59 63 66 67 69 69 69 67 60 59 59 69 69 67 64 60 57 57 60 59 60 60 60 58 57 59 58 58 58 59 60 59 58 57 56 56 55 55 56 55 54 53 52 50 51
54 54 55 55 54 58 61 63 67 62 60 66 69 67 69 69 67 67 68 67 67 65 63 61 62 62 62 62 63 62 60 61 60 58 57 58 60 59 58 59 57 58 58 58 58 55 56 55 56 54 51 50 50 49
60 59 55 56 57 59 61 64 65 66 66 65 68 67 67 71 69 66 61 68 64 63 62 66 61 59 64 65 64 62 61 62 60 60 59 60 62 62 60 60 60 60 58 58 57 53 55 54 54 54 52 52 51 51
64 56 63 58 59 64 62 66 64 66 65 64 64 67 64 61 58 57 67 62 58 65 67 65 63 58 62 62 63 63 62 61 61 58 56 56 59 59 60 61 60 58 59 58 58 57 55 55 55 55 55 54 52 54
58 60 63 64 58 53 50 68 61 64 60 62 66 63 64 62 64 66 61 64 67 71 68 61 62 64 63 64 63 63 63 63 61 61 60 63 62 62 62 61 61 59 57 56 59 57 55 51 54 55 56 55 55 55
56 60 58 57 56 49 64 61 65 64 62 60 61 60 63 62 69 64 61 66 58 59 57 59 64 63 62 62 61 62 63 64 64 63 64 64 63 60 62 62 62 61 59 59 60 57 56 57 53 56 56 57 55 53
48 48 51 39 59 56 57 59 60 60 57 58 57 56 54 63 59 60 58 58 61 58 59 62 66 63 64 64 65 65 66 67 65 62 63 64 64 63 61 61 60 60 62 60 59 58 58 58 57 57 57 57 56 55
40 54 45 59 59 58 60 59 60 60 57 53 57 53 51 51 55 56 52 52 54 56 58 66 67 68 67 67 65 65 67 69 64 63 64 67 65 63 61 59 58 57 62 62 60 60 60 60 60 59 58 57 49 55
43 55 62 67 64 65 63 65 64 60 54 56 51 51 50 48 53 53 55 55 55 57 68 71 73 70 67 66 68 67 67 66 64 65 66 66 66 65 61 59 59 60 63 65 63 63 62 61 61 60 58 58 58 58
58 62 58 63 64 66 61 61 62 61 60 54 53 51 52 54 55 57 56 61 60 63 71 71 71 71 70 69 69 69 69 69 69 68 67 66 66 64 61 60 58 50 58 60 61 60 60 60 61 61 60 58 57 59
58 64 64 60 62 64 64 63 64 69 63 58 53 51 56 61 57 58 62 67 74 72 71 67 67 68 67 67 69 70 71 70 65 60 59 58 59 61 63 63 61 61 60 57 48 54 58 58 58 59 60 59 59 59
59 66 61 62 61 60 66 71 69 75 70 62 62 57 58 58 58 59 58 64 67 67 67 67 68 67 66 66 67 68 70 72 70 66 61 60 63 65 65 63 62 62 62 61 59 57 49 54 53 57 57 58 57 57
67 66 63 64 63 67 72 76 78 77 76 71 62 57 56 57 61 62 59 65 69 69 68 69 68 70 69 68 66 66 67 70 68 67 68 68 69 66 65 64 64 63 63 62 61 60 59 57 58 59 59 59 58 55
65 64 63 61 64 71 74 72 72 71 72 63 58 60 57 55 54 57 62 66 67 66 62 67 68 69 72 71 72 70 61 70 68 67 66 66 66 66 66 66 65 65 64 63 63 63 61 60 60 60 59 58 59 60
66 67 67 66 66 66 71 69 69 67 55 54 53 55 54 55 52 58 68 69 70 72 71 71 71 69 67 69 67 65 64 67 57 51 51 51 52 58 66 66 65 65 66 64 64 63 63 62 61 62 61 60 60 60

GFSWCAN_sfc_temp_096.txt.gz
Temp
56 56 56 56 57 57 57 57 57 58 58 58 59 59 59 59 58 53 56 59 59 50 55 65 67 60 59 53 48 53 53 52 47 42 41 35 35 38 40 44 42 41 38 36 39 35 35 59 58 51 51 51 57 56
55 55 56 56 56 56 56 56 57 58 58 58 58 58 58 58 58 57 55 63 62 56 58 65 67 69 69 65 57 52 52 50 49 44 42 42 38 40 38 32 47 41 44 40 43 41 51 54 54 57 56 54 53 53
55 55 55 55 55 56 56 56 56 57 57 58 58 58 58 58 57 56 52 55 58 54 57 60 62 68 71 67 66 54 53 55 53 52 47 44 43 41 34 36 42 46 50 44 44 49 51 55 57 59 60 57 56 56
54 55 55 55 55 55 55 56 56 57 57 57 58 58 58 57 57 57 51 56 56 54 50 57 71 65 66 71 69 64 61 59 57 53 46 42 42 46 39 42 40 46 47 44 43 48 53 59 58 58 58 59 60 60
54 54 55 55 55 55 56 56 56 56 57 57 57 57 57 57 56 53 52 56 58 57 49 54 61 65 64 67 67 64 60 55 51 49 44 42 43 44 43 44 40 44 43 39 38 46 47 51 56 60 58 57 57 57
54 54 54 54 54 55 55 55 55 56 56 56 56 57 56 56 55 56 54 58 56 56 52 48 61 59 64 66 64 61 57 53 50 47 44 44 46 43 38 32 44 47 48 47 45 48 50 53 57 58 57 58 59 57
54 54 54 54 54 55 55 55 55 56 56 56 56 56 56 55 50 54 53 57 53 54 52 49 50 62 65 58 56 55 55 51 50 45 43 42 41 42 38 32 43 46 47 48 50 51 49 52 50 53 58 59 59 58
54 54 54 54 54 54 54 55 55 55 56 56 56 56 55 54 53 54 57 54 53 53 54 48 53 54 58 51 53 52 50 48 48 44 43 40 39 40 34 39 42 46 48 48 50 51 48 51 53 54 60 57 55 54
54 54 54 54 54 54 55 55 55 55 56 55 55 55 51 53 52 56 63 59 54 54 49 49 48 46 55 53 50 50 50 42 46 41 40 40 34 33 38 39 44 46 46 47 48 49 51 50 51 53 55 55 54 53
54 54 54 54 54 54 54 55 55 55 55 55 50 52 53 56 62 61 57 53 51 52 51 47 54 50 57 48 47 47 45 41 38 41 43 37 35 41 44 44 46 48 49 49 45 43 45 45 49 52 51 53 54 55
53 53 54 54 54 54 55 55 55 55 54 50 53 53 56 60 56 52 48 47 49 47 49 51 54 53 54 47 45 47 42 42 34 40 39 36 36 44 48 48 48 48 49 49 49 49 49 50 50 53 54 54 54 54
54 53 53 54 54 55 55 55 55 50 51 50 49 52 56 54 54 48 47 50 49 48 51 51 52 52 52 52 47 47 43 42 36 44 40 32 41 47 49 50 50 49 51 51 52 52 52 53 52 53 51 51 51 53
54 54 55 55 55 56 56 55 55 54 52 51 51 51 51 52 42 44 44 46 46 52 53 53 50 51 51 50 47 46 43 40 48 40 37 40 44 48 48 50 51 51 53 53 54 54 54 54 55 53 51 51 51 50
54 54 55 55 55 55 55 55 55 52 51 51 50 38 45 44 47 48 48 54 58 55 54 53 51 50 49 47 47 44 47 46 40 35 40 42 45 48 49 51 51 51 52 53 54 54 54 54 52 54 53 52 54 51
54 54 55 55 55 55 54 55 55 50 51 50 52 40 47 53 52 52 52 56 59 56 56 53 52 51 47 48 47 47 46 43 42 39 42 45 47 47 47 50 51 51 52 55 53 55 55 56 54 53 52 51 53 52
54 55 54 55 55 54 54 53 51 52 54 52 53 50 52 49 49 51 54 56 59 55 54 53 50 48 48 47 47 47 45 40 44 44 46 47 47 48 49 51 52 52 51 52 55 55 52 50 49 49 49 51 50 51
53 58 55 54 54 54 54 50 53 53 53 54 50 54 53 53 50 52 53 53 57 59 53 51 48 49 49 45 45 48 44 46 46 46 47 48 49 49 49 50 51 51 51 50 50 50 50 51 49 48 46 45 47 47
53 53 54 54 52 54 52 50 54 56 52 51 49 52 55 56 51 51 54 55 55 54 57 56 52 47 46 46 46 47 47 48 48 51 51 49 49 50 52 50 51 51 50 49 49 49 49 48 47 44 44 44 44 44
53 52 53 54 51 49 51 54 54 50 53 53 54 55 55 57 55 57 55 53 53 55 58 54 51 46 46 48 48 48 48 49 49 48 47 49 50 51 52 52 52 50 50 49 49 48 47 47 45 44 44 43 42 43
53 53 54 54 53 49 51 53 57 52 50 53 54 54 55 55 55 54 55 52 52 54 54 51 51 51 54 55 56 54 55 52 52 47 47 47 50 51 51 51 50 50 49 48 49 48 47 45 44 44 44 44 43 43
54 53 54 51 48 49 50 51 52 54 54 52 55 54 54 56 59 56 53 54 51 51 49 55 54 54 56 57 56 59 55 53 52 49 50 47 50 52 51 51 51 48 48 47 48 48 47 46 45 45 45 44 45 45
52 55 52 51 51 54 50 53 52 54 52 54 54 54 52 52 52 53 54 55 52 52 55 56 53 53 53 54 53 55 56 54 55 51 50 51 51 49 48 51 50 51 50 49 50 47 46 46 47 47 46 46 46 45
53 53 53 55 52 46 45 55 52 54 51 52 53 52 51 52 54 58 52 53 54 53 54 54 55 56 55 55 55 55 54 57 54 51 51 52 51 51 50 51 54 51 49 48 51 48 47 47 49 49 47 47 46 47
55 52 54 53 49 44 53 51 54 53 53 50 50 50 53 51 55 52 50 51 51 53 52 53 53 52 52 53 52 52 54 54 52 51 52 52 51 51 53 53 52 53 53 53 52 49 49 49 48 49 49 49 48 47
46 44 44 38 50 51 50 51 52 51 49 51 50 48 47 52 49 49 49 49 51 52 53 53 53 53 52 55 53 53 54 55 53 54 55 55 56 49 52 51 51 52 52 55 50 50 49 49 49 50 50 49 48 49
40 47 42 51 50 49 51 52 54 51 52 51 52 50 50 47 47 47 49 51 51 53 54 55 56 57 58 59 55 56 59 59 55 53 52 55 58 55 52 50 51 51 52 55 52 52 51 53 53 52 51 52 47 49
40 46 51 53 53 54 53 56 59 56 53 49 50 49 48 46 47 51 53 53 52 53 55 57 56 59 58 55 60 62 60 60 58 56 54 53 53 54 54 53 51 53 54 55 55 56 54 53 53 53 51 51 51 51
49 51 48 52 53 53 52 53 55 54 54 51 50 47 48 49 48 52 54 57 57 57 57 54 55 63 62 62 65 64 62 60 57 57 56 52 51 52 51 50 50 47 52 54 54 53 53 53 54 53 52 51 50 51
49 53 53 50 53 55 54 54 55 56 54 51 50 50 52 54 55 54 54 55 57 55 54 54 55 60 62 61 61 66 64 60 55 51 49 46 46 48 48 50 50 50 51 51 48 51 55 53 53 54 55 52 51 51
51 55 51 54 53 52 55 57 57 62 58 55 54 53 54 54 56 56 56 55 55 56 56 57 59 58 58 59 59 59 55 57 59 56 50 49 52 52 51 51 51 50 50 50 49 49 48 50 49 51 51 50 50 49
57 55 53 53 53 56 61 62 63 64 60 55 54 52 51 53 57 58 57 58 61 61 60 57 56 56 57 55 53 53 51 53 57 56 56 55 58 55 52 52 52 51 52 51 50 49 49 49 50 51 51 51 52 51
56 54 55 55 56 59 60 58 58 57 54 53 51 52 52 53 51 53 57 60 58 58 55 57 56 54 55 55 55 54 53 56 56 58 61 60 58 54 55 54 54 53 53 53 52 51 52 52 51 51 52 53 53 53
56 57 56 56 54 57 56 55 59 52 52 50 52 53 53 51 47 51 58 62 60 60 58 57 57 56 57 57 56 56 56 60 57 52 52 52 53 51 54 54 54 56 55 54 53 52 53 53 53 54 54 54 55 55

GFSWCAN_sfc_temp_102.txt.gz
Temp
55 55 56 56 56 56 56 56 56 57 57 58 58 59 59 58 58 52 53 53 54 50 53 57 61 55 53 49 48 50 49 49 44 40 38 32 31 34 37 39 38 39 36 35 34 34 36 53 55 50 51 54 57 56
55 55 55 56 56 56 56 56 56 56 56 57 58 58 58 58 57 56 52 55 54 54 56 57 60 62 62 62 52 45 49 45 46 40 38 37 34 35 33 31 42 39 42 38 40 39 47 49 49 53 51 51 53 54
55 55 55 55 55 55 56 56 56 56 56 57 58 58 58 57 57 55 50 49 53 53 56 58 58 63 63 61 60 53 48 49 45 46 41 39 40 37 32 34 38 43 44 41 42 46 49 52 53 52 52 51 53 54
55 55 55 55 55 55 56 56 56 56 56 57 57 58 57 57 57 56 52 52 52 52 51 54 63 58 62 60 61 58 54 49 47 45 40 38 39 41 35 38 37 43 42 41 41 46 50 53 53 52 53 54 54 55
54 54 55 55 55 55 55 56 56 56 56 56 57 57 57 57 56 52 49 54 53 55 49 49 55 57 56 59 59 57 54 49 46 44 41 39 39 40 38 40 38 43 42 39 39 45 45 47 50 54 53 53 55 54
54 54 54 54 54 55 55 55 55 55 56 56 56 56 56 56 55 54 54 56 53 53 51 47 52 54 58 57 56 53 50 46 44 43 39 40 41 40 36 30 42 44 45 45 45 47 47 50 52 54 53 53 54 54
54 54 54 54 54 55 55 55 55 55 55 56 56 56 56 55 50 55 54 55 51 51 51 47 47 54 56 53 51 50 48 45 45 40 39 39 38 39 35 31 42 44 46 47 48 48 47 50 49 51 53 56 56 55
54 54 54 54 55 55 55 55 55 55 56 55 56 55 55 55 54 56 54 53 51 51 51 44 46 50 53 48 46 46 45 44 42 39 39 37 35 39 32 38 40 43 44 46 48 49 48 49 51 52 54 53 52 51
53 54 54 54 54 54 55 55 55 55 55 55 55 55 55 55 54 53 59 57 52 53 47 45 43 42 51 46 45 46 44 40 41 38 38 38 34 28 38 41 42 44 44 44 46 47 48 48 49 50 53 52 49 49
53 54 54 54 54 54 54 55 55 55 55 55 55 56 51 55 60 59 53 50 49 48 47 45 46 45 49 45 45 44 41 38 36 38 39 35 34 39 41 43 44 46 46 47 44 42 44 45 47 49 49 52 53 52
53 53 53 54 54 55 55 55 55 55 54 52 53 53 54 57 52 48 46 45 45 44 45 46 47 46 50 46 43 42 38 37 32 37 37 34 35 41 46 44 44 45 46 47 47 47 48 48 47 48 52 53 53 53
54 54 54 54 55 55 55 55 55 49 47 52 51 49 49 49 46 43 42 44 44 44 45 46 47 48 47 47 46 41 39 39 35 40 37 31 39 44 46 47 47 46 48 48 49 49 50 51 49 49 49 51 52 53
53 54 54 55 55 55 55 55 55 54 51 49 50 48 47 46 38 41 40 41 42 46 47 47 46 47 45 46 42 42 41 38 42 37 35 38 42 45 46 47 47 47 49 50 51 51 52 52 52 50 50 53 54 53
53 54 54 55 55 55 54 55 55 52 51 49 47 36 43 40 43 43 44 45 49 49 47 47 44 46 43 45 42 42 41 42 37 33 37 42 43 46 46 47 47 47 48 49 50 51 52 52 51 52 51 51 50 49
53 53 53 55 55 54 54 54 54 49 49 48 48 39 43 47 47 49 49 48 49 49 49 48 47 46 43 44 43 43 40 39 39 38 41 44 45 45 45 46 47 47 47 48 49 50 51 53 53 53 53 51 52 50
53 54 53 54 54 54 53 52 49 49 49 48 47 45 46 46 46 47 47 47 49 47 48 49 44 44 45 44 43 43 42 38 43 43 46 45 45 45 45 47 48 49 48 50 52 54 54 51 52 52 52 50 49 50
54 54 54 54 54 53 53 49 49 49 48 49 46 47 48 47 47 48 48 49 49 50 47 46 46 46 44 42 42 44 42 46 47 47 46 46 47 47 46 47 48 48 48 48 51 51 50 49 48 48 48 48 47 46
53 53 54 54 52 51 49 48 49 49 46 48 45 47 48 49 48 48 49 49 52 52 49 49 47 44 44 43 42 46 46 46 45 46 47 47 49 47 48 48 49 48 48 47 48 47 48 47 47 47 46 46 46 45
51 51 53 53 51 47 47 49 48 45 46 48 48 47 49 50 48 50 50 50 51 51 53 51 51 44 45 45 47 48 46 47 49 49 49 49 49 48 48 49 49 48 47 47 46 47 47 47 47 46 45 44 45 45
53 53 54 53 53 47 47 47 50 46 46 49 48 48 48 49 49 49 49 49 49 50 48 47 47 49 49 50 50 51 50 49 49 49 47 47 48 47 48 49 48 47 46 45 46 45 45 44 44 45 45 45 45 46
51 51 53 49 46 46 46 46 47 48 49 48 49 48 50 49 50 49 48 48 47 47 47 49 50 52 51 50 50 50 53 53 52 52 51 48 47 51 49 49 48 46 46 45 46 46 45 46 46 45 46 46 46 46
48 54 48 49 48 48 44 47 46 48 46 48 48 48 48 47 48 48 48 48 48 49 50 51 51 53 49 51 53 53 53 54 53 51 49 50 47 48 47 49 47 47 47 48 48 48 47 47 47 46 47 47 46 46
51 50 47 48 49 46 43 49 47 48 46 48 48 46 46 45 47 49 47 47 49 49 50 50 51 52 53 53 53 52 51 51 49 51 51 53 52 52 50 49 49 49 47 47 47 47 47 45 46 47 48 47 48 48
51 47 46 45 44 40 49 47 48 47 47 46 45 46 46 47 48 46 46 47 49 50 50 51 51 51 51 52 50 51 51 50 51 51 49 49 49 49 51 51 50 53 51 48 47 46 47 48 45 47 48 48 48 49
41 41 41 36 44 47 46 47 47 46 46 47 46 46 45 46 44 44 44 47 49 50 52 53 52 51 51 50 49 49 49 51 50 50 48 51 49 48 47 51 52 52 50 48 46 48 48 47 48 48 49 49 48 49
38 42 40 44 45 45 47 46 48 49 47 45 47 46 46 44 44 44 46 49 50 52 53 54 53 52 51 52 52 50 51 54 57 53 53 55 53 52 52 51 50 49 49 52 52 51 50 50 50 49 50 50 44 49
36 40 44 47 47 48 47 50 53 49 48 48 47 45 44 43 45 49 49 51 51 52 53 53 54 54 55 52 52 53 53 55 55 55 55 55 53 52 54 55 53 54 52 53 53 55 53 52 52 52 51 51 51 51
43 44 42 46 45 47 47 48 49 50 51 48 48 46 47 47 48 50 51 53 53 53 53 53 53 53 52 54 54 51 51 52 51 50 50 50 47 49 51 53 53 45 52 54 54 54 55 54 53 53 52 52 51 51
42 45 46 44 46 47 47 48 49 53 52 49 47 47 48 51 52 52 52 52 52 50 52 55 54 56 54 53 52 52 53 54 53 49 49 48 49 52 48 49 49 50 50 50 45 50 53 54 53 53 54 53 53 52
42 46 44 46 46 46 50 51 51 55 51 51 50 51 50 50 52 53 52 51 50 52 53 56 55 57 53 52 51 52 52 52 55 55 50 49 51 53 50 50 50 49 49 51 50 48 44 49 47 51 51 51 51 51
47 46 46 46 46 49 53 54 55 53 52 50 51 50 49 50 52 53 54 53 53 56 58 57 56 56 56 52 51 51 51 53 51 54 55 54 53 52 51 51 50 50 51 51 51 51 51 51 51 51 52 52 51 50
46 46 46 45 47 52 54 52 51 52 50 49 48 49 50 49 49 51 54 54 57 57 52 53 53 54 53 53 52 53 48 54 54 54 55 53 54 53 51 52 52 51 51 51 50 51 53 52 51 51 52 52 53 53
52 50 49 51 52 53 53 53 53 51 49 48 48 49 49 48 48 51 53 53 54 54 53 54 54 53 54 54 53 53 48 52 50 47 48 48 48 49 54 52 52 53 53 52 52 52 52 52 51 52 52 53 53 54

GFSWCAN_sfc_temp_105.txt.gz
Temp
55 56 56 56 56 56 56 56 56 57 57 58 58 59 59 58 58 57 64 62 63 64 67 66 69 64 62 63 61 60 62 62 61 54 54 48 50 50 51 51 51 51 50 52 48 49 47 61 63 58 60 64 64 67
55 55 55 56 56 56 56 56 56 56 56 57 58 58 58 58 57 57 63 62 62 63 66 66 70 71 71 71 65 59 61 59 62 55 53 52 50 51 49 48 55 50 55 53 53 53 58 61 59 63 62 60 63 65
55 55 55 55 55 55 56 56 56 56 56 57 57 58 58 57 57 57 62 60 63 64 68 71 68 72 74 71 73 67 62 62 59 60 60 57 52 54 51 51 53 55 55 54 53 56 59 62 64 63 62 62 62 64
54 55 55 55 55 55 55 56 56 56 56 57 57 58 58 57 57 57 63 61 64 63 63 65 71 69 71 73 70 69 65 61 61 62 60 58 55 53 53 51 51 57 55 54 55 58 59 61 61 62 61 61 62 63
54 54 55 55 55 55 56 56 56 56 56 57 57 57 57 57 56 58 62 62 63 64 61 64 67 68 70 70 68 68 67 64 63 61 60 55 55 54 54 53 52 58 57 54 55 57 58 58 60 62 62 60 62 61
54 54 54 54 54 55 55 55 55 56 56 56 56 57 56 56 55 63 63 63 62 64 65 61 65 66 67 68 66 63 63 60 61 60 54 53 51 52 50 48 55 54 54 56 57 58 57 60 61 62 62 62 62 64
54 54 54 54 55 55 55 55 55 55 55 56 56 56 56 55 60 64 62 62 56 62 64 60 61 65 66 66 64 64 62 59 61 55 52 54 53 53 47 45 54 55 56 57 58 58 58 60 59 62 62 63 61 63
54 54 54 54 55 55 55 55 55 55 56 56 56 55 55 55 56 62 64 56 59 64 65 57 58 61 65 63 60 60 61 61 55 54 53 52 50 46 38 53 53 55 55 56 58 59 59 60 61 62 63 62 63 62
54 54 54 54 54 55 55 55 55 55 56 56 55 55 60 62 63 63 59 59 63 65 59 57 56 53 65 57 57 58 60 53 55 53 53 52 41 36 53 55 54 55 55 57 58 58 58 58 59 60 61 61 62 61
54 53 54 54 54 54 55 55 56 56 55 55 57 58 59 61 60 61 63 62 63 61 60 58 60 57 63 57 56 58 57 53 50 52 52 50 48 55 55 57 58 57 58 58 55 54 56 56 58 58 58 60 62 61
54 53 53 53 55 55 55 55 55 55 55 60 56 55 59 58 63 60 55 56 56 55 57 60 60 58 62 58 56 56 53 52 46 50 50 48 48 55 58 56 56 58 58 58 58 58 59 58 57 58 59 59 60 59
53 54 53 53 54 55 55 55 54 56 56 53 53 53 56 58 56 53 52 53 53 54 56 57 59 62 59 61 59 54 52 51 46 53 49 44 55 57 57 57 57 58 58 57 58 58 59 59 58 58 59 60 60 61
53 54 54 54 54 55 55 55 55 54 53 54 58 55 55 54 43 47 46 49 50 56 57 58 57 61 57 60 55 56 50 50 54 48 47 53 58 57 58 58 58 59 59 59 58 60 60 60 60 60 60 61 60 58
53 53 53 54 53 54 55 55 55 55 57 58 54 37 49 48 51 52 53 58 61 60 59 61 57 61 59 58 56 51 51 53 46 44 48 60 59 60 58 59 58 57 58 60 60 60 60 60 61 61 61 62 61 60
53 53 53 54 54 54 54 54 55 55 57 55 54 41 49 57 56 57 58 59 60 62 61 59 59 62 57 54 56 52 47 46 48 49 57 63 60 58 57 58 59 59 59 60 61 61 62 61 60 58 58 59 58 56
53 54 55 54 54 54 53 54 56 57 57 55 53 52 56 54 55 55 56 59 61 61 62 64 58 56 56 57 51 51 49 47 56 59 63 59 57 57 57 59 60 61 60 61 62 62 62 59 60 58 56 56 58 60
53 56 54 54 53 53 53 57 57 55 56 54 55 57 57 56 55 60 60 62 61 61 60 60 54 55 55 54 51 56 54 60 64 64 63 58 58 57 58 59 59 59 59 60 60 60 56 58 60 59 58 59 60 58
52 54 54 53 54 54 56 56 56 55 51 56 54 58 56 59 57 59 60 59 60 61 59 59 59 54 54 52 54 60 62 64 62 62 62 59 58 58 59 59 59 59 59 59 60 59 59 58 58 60 60 58 58 57
54 54 53 53 54 54 54 55 55 52 55 58 57 58 57 60 59 59 60 58 60 62 59 56 56 56 59 60 62 64 62 59 63 60 58 56 57 58 59 60 59 58 58 58 59 61 62 61 62 62 62 59 60 59
53 53 53 54 54 54 52 54 57 53 53 58 58 56 58 60 60 60 59 56 57 58 58 57 61 65 63 66 64 65 62 60 60 60 57 52 55 58 59 61 61 61 60 59 60 54 61 60 61 61 61 60 60 60
52 54 54 55 54 54 54 54 54 56 58 56 60 59 60 59 59 58 58 57 56 56 58 64 66 68 65 63 61 59 57 60 62 57 53 61 60 60 59 62 62 62 61 61 62 60 54 62 62 60 59 60 60 60
54 53 55 54 53 52 50 56 55 57 55 58 56 58 58 57 58 58 55 56 58 63 64 65 64 64 61 60 59 58 60 59 57 59 55 56 58 58 59 62 61 61 61 62 63 63 63 62 62 61 61 61 55 60
53 53 55 52 50 47 48 57 53 56 52 55 56 54 55 55 56 58 57 60 63 63 61 59 60 60 59 61 60 60 60 60 61 61 60 58 63 64 63 62 62 63 61 62 64 64 62 55 55 61 62 60 60 60
52 52 49 50 46 43 55 52 55 55 55 53 53 53 54 54 56 54 55 58 60 59 58 59 60 60 59 58 60 62 59 58 60 59 58 57 61 60 62 62 63 67 67 67 63 62 61 60 55 60 60 60 60 61
43 45 44 35 49 48 50 51 52 52 50 53 52 53 53 55 53 53 54 57 58 59 60 60 60 60 59 63 62 60 58 60 60 60 59 62 62 60 60 63 64 66 66 64 62 62 61 62 61 61 61 61 60 60
38 46 41 49 51 49 52 49 51 52 53 52 53 54 53 53 51 51 55 58 60 58 57 60 62 57 55 57 60 58 57 61 62 61 59 60 60 63 62 62 62 63 64 65 66 63 62 61 61 61 62 60 48 58
37 45 51 54 54 54 52 54 55 54 52 53 52 50 51 49 50 55 59 60 60 61 59 59 59 59 59 58 58 59 61 61 59 59 61 64 62 66 68 66 64 67 62 64 65 65 64 62 62 63 63 64 63 62
49 50 47 52 52 55 51 53 53 53 55 53 55 53 52 53 55 58 60 64 62 60 62 61 62 63 62 64 63 58 61 61 61 62 62 63 64 66 64 66 65 47 65 65 65 66 66 65 64 64 63 63 63 64
47 53 52 49 51 53 54 54 56 59 59 59 56 54 55 60 59 59 61 60 61 60 64 63 60 58 57 60 60 62 62 64 64 61 60 63 65 66 65 65 66 65 66 64 46 55 64 64 65 65 65 64 65 65
49 54 50 50 50 51 57 59 60 64 62 61 61 58 58 58 60 60 59 59 60 62 61 63 61 55 52 57 60 61 63 66 68 68 65 64 66 68 65 64 64 65 64 64 63 60 44 56 52 61 60 62 62 62
55 52 51 52 52 57 61 64 64 64 63 61 59 57 57 58 62 62 63 64 65 65 62 65 67 66 66 65 64 64 65 67 66 65 69 69 69 66 65 65 65 65 65 64 64 63 62 61 62 61 61 61 61 60
53 51 51 50 53 59 61 61 62 61 60 58 56 57 58 57 56 60 65 64 65 66 58 64 67 68 68 68 67 67 48 67 67 66 65 68 67 65 65 65 65 65 64 64 64 64 63 62 62 62 62 61 62 62
54 54 55 55 56 56 58 59 58 56 56 55 55 57 57 57 56 62 64 63 63 66 67 67 68 67 64 65 65 65 55 65 57 47 48 48 49 55 62 63 63 64 64 64 64 64 62 61 61 61 61 62 62 62

GFSWCAN_sfc_temp_108.txt.gz
Temp
56 56 56 56 56 56 56 57 57 57 57 58 58 58 59 59 58 63 76 75 72 76 76 77 78 74 74 75 69 70 70 71 72 64 63 60 59 60 59 62 59 60 57 59 61 53 51 68 70 62 65 71 72 74
56 56 56 56 56 56 56 56 56 57 57 57 58 58 59 58 58 58 74 76 74 73 76 79 79 80 79 79 78 74 70 69 73 69 66 67 60 63 59 56 64 58 63 60 59 59 64 68 67 71 71 69 70 72
55 55 55 55 56 56 56 56 56 57 57 57 58 58 59 58 58 58 75 76 74 77 77 79 77 80 86 83 85 73 76 73 72 72 74 72 59 68 58 61 61 63 66 63 61 64 65 67 72 72 71 69 71 74
55 55 55 55 56 56 56 56 56 56 56 57 58 58 59 58 57 56 74 76 74 78 72 73 82 77 81 84 81 81 77 76 76 76 72 70 65 67 65 61 61 67 65 62 62 65 66 68 69 70 71 71 70 70
54 54 54 55 55 55 56 56 56 56 56 57 57 57 58 58 57 62 75 77 76 72 73 72 80 79 82 81 79 80 78 76 76 71 70 68 70 65 69 66 63 68 65 61 62 65 66 65 68 70 71 70 70 69
54 54 54 55 55 55 55 56 56 56 56 56 57 57 57 57 56 73 70 76 78 78 74 67 77 74 77 78 77 74 76 75 77 72 70 68 62 63 60 57 65 66 65 66 67 67 66 68 69 70 70 70 70 71
54 54 54 55 55 55 55 55 55 56 56 56 56 57 56 56 67 71 69 69 63 75 74 69 68 74 75 76 78 76 75 75 73 72 68 69 65 62 59 51 65 65 66 65 67 67 65 67 68 69 70 71 66 72
54 54 54 54 55 55 55 55 55 55 56 56 56 56 56 56 57 68 73 61 66 75 75 68 67 68 76 72 69 77 73 73 70 70 67 65 63 62 45 61 64 65 65 65 66 68 68 69 69 69 71 71 70 70
54 54 54 54 55 55 55 55 55 55 56 56 56 56 65 67 71 72 59 59 75 73 70 70 65 62 75 73 74 70 73 65 69 65 66 63 50 38 59 64 64 64 64 66 67 67 67 66 67 67 68 69 69 71
54 54 54 54 54 55 55 56 56 56 56 56 62 66 66 71 58 62 68 69 71 73 72 68 77 65 72 69 68 68 70 67 59 63 65 59 57 64 66 67 67 67 67 68 63 62 64 63 65 66 66 68 70 71
54 54 54 54 54 55 55 56 56 55 54 64 63 65 71 60 71 70 64 64 66 62 70 71 71 66 75 65 66 70 66 66 54 60 59 59 58 66 68 66 67 68 68 68 67 67 67 66 65 66 66 67 68 69
54 54 54 54 53 54 55 55 55 60 64 57 63 63 69 68 65 59 60 63 61 61 67 66 68 74 69 74 68 65 62 62 53 64 59 52 64 68 67 67 66 67 68 66 66 65 65 65 66 66 66 67 68 68
54 54 54 54 53 54 54 55 55 54 54 56 57 59 55 56 47 52 51 57 60 66 66 66 64 69 67 71 68 64 56 58 66 57 54 62 67 68 68 68 66 68 68 67 66 66 66 65 66 67 66 68 67 67
53 53 53 54 54 53 54 55 55 56 53 56 54 41 53 54 58 62 63 67 70 71 70 70 67 68 70 65 67 57 63 63 54 50 54 68 68 68 68 69 67 66 67 66 66 66 66 66 66 67 68 68 68 66
53 53 54 54 53 54 54 55 55 59 58 58 59 47 57 66 70 69 72 69 70 74 71 69 69 71 66 62 65 62 54 51 56 57 67 73 70 68 66 67 68 67 67 67 68 67 67 68 68 67 69 69 68 67
53 53 56 54 54 54 54 56 59 58 59 62 61 59 67 64 65 66 66 68 72 72 73 72 66 63 61 65 58 56 55 53 63 68 74 72 67 66 66 68 68 69 68 68 68 68 68 68 68 68 68 68 66 67
53 56 54 54 54 54 54 62 64 59 58 60 63 69 66 66 64 66 70 72 74 70 66 68 59 59 68 61 58 65 61 68 74 76 77 71 67 66 67 67 68 68 67 68 68 68 69 70 68 66 64 66 68 66
52 54 54 54 55 58 63 62 60 61 57 64 62 68 67 68 70 70 71 71 70 70 70 65 71 60 60 57 62 68 72 75 76 74 74 69 67 66 67 66 67 67 67 68 68 68 67 64 63 65 67 67 67 66
54 53 53 53 56 60 60 61 63 57 61 67 67 68 68 69 71 71 73 71 73 76 73 69 63 63 65 70 69 72 74 74 72 72 69 65 64 61 64 68 68 67 67 67 67 68 69 67 70 71 70 69 68 69
52 53 53 54 55 60 57 62 66 61 61 67 67 66 67 69 72 70 70 70 68 66 64 63 66 70 71 74 76 75 75 76 71 66 57 63 65 62 66 68 69 68 68 68 68 62 70 69 71 71 72 69 69 67
55 58 55 59 61 60 61 63 60 63 66 64 70 67 67 69 67 67 67 68 65 65 65 70 72 75 77 77 74 69 69 66 65 67 65 63 69 71 70 70 71 71 70 69 68 67 62 69 71 71 69 69 70 70
62 54 61 60 59 59 58 65 62 65 63 66 66 67 65 65 65 67 68 64 66 70 72 73 74 75 75 71 72 70 72 68 69 67 56 60 70 70 69 70 70 70 71 71 71 71 70 72 73 71 70 69 63 69
53 56 60 58 53 50 52 66 57 63 58 62 65 61 63 65 68 67 63 69 71 76 75 74 71 69 69 71 69 70 69 67 68 69 68 66 71 72 71 70 72 71 70 71 73 73 72 61 64 69 70 68 68 68
52 55 54 55 52 48 61 56 61 60 62 60 60 58 62 65 65 61 61 68 74 74 70 67 70 70 71 66 69 72 70 69 70 68 68 64 65 62 70 72 73 74 74 74 74 72 72 70 62 69 69 68 67 66
43 47 50 39 56 54 55 56 58 59 55 59 57 59 60 61 58 60 60 68 71 70 72 72 67 65 67 69 74 71 65 68 66 64 68 65 66 69 70 72 72 74 77 74 72 72 71 71 69 69 68 68 66 66
39 52 44 55 57 54 57 53 56 57 58 56 58 61 61 59 56 56 61 64 64 69 69 69 70 70 63 67 65 62 62 61 60 61 66 67 69 70 68 67 69 71 77 75 74 71 70 70 69 68 68 66 52 66
43 51 58 63 60 61 59 61 62 57 55 55 59 57 57 54 54 59 67 72 66 72 72 71 71 71 66 69 66 68 71 67 61 59 67 70 70 73 70 68 68 75 77 74 74 74 71 70 70 69 69 70 69 68
54 57 52 58 58 61 55 57 56 56 57 59 59 55 55 57 56 61 63 70 71 72 73 74 73 73 71 65 63 64 65 68 65 68 69 71 73 73 68 71 73 48 69 70 72 73 74 73 71 70 70 69 69 71
54 61 59 54 57 59 58 57 57 64 65 58 55 59 61 65 65 68 70 71 74 74 74 71 67 66 61 61 57 58 62 66 66 63 65 68 69 71 75 75 73 74 74 71 46 57 71 72 71 72 71 71 71 72
56 62 57 56 55 56 61 66 63 71 73 73 70 65 63 67 69 73 73 72 72 71 71 70 64 60 64 70 70 70 73 78 77 75 71 70 71 75 74 74 74 74 75 74 71 68 46 63 60 70 68 70 70 70
65 60 56 57 57 63 67 71 73 73 73 72 71 64 63 67 69 73 73 73 75 74 74 74 75 75 75 76 75 72 70 76 75 74 76 80 77 75 75 75 75 74 74 73 72 70 68 67 69 68 68 67 68 65
60 56 56 54 59 66 69 67 67 67 68 64 63 67 65 65 63 70 73 75 75 72 60 69 74 73 76 76 76 76 47 76 77 76 74 76 76 75 74 75 75 74 72 71 72 70 69 68 69 68 68 66 66 66
60 61 60 60 61 60 65 65 64 64 63 61 62 65 66 67 61 69 74 72 72 75 75 75 76 75 72 73 74 73 62 71 54 43 47 50 52 60 74 76 75 73 71 72 71 70 68 67 67 66 66 66 66 67

GFSWCAN_sfc_temp_111.txt.gz
Temp
56 56 56 56 56 56 56 57 57 57 58 58 58 59 59 60 59 64 82 84 78 80 83 83 84 79 80 79 73 75 75 76 76 68 68 66 62 67 63 67 62 63 57 59 63 46 47 74 74 62 67 75 76 78
55 55 55 56 56 56 56 56 56 57 57 58 58 58 59 59 59 59 78 85 83 77 82 87 87 87 86 84 80 80 76 74 78 74 72 72 65 68 64 59 70 61 68 59 65 57 69 74 73 76 77 75 75 76
55 55 55 55 56 56 56 56 56 57 57 57 58 58 59 59 59 58 77 83 81 81 81 83 81 87 93 91 92 76 82 80 78 80 75 75 63 73 62 64 66 69 72 67 66 69 70 73 75 76 76 75 78 79
55 55 55 55 55 56 56 56 56 56 57 57 58 58 58 59 58 57 76 85 80 80 76 78 89 83 89 91 87 87 84 84 83 80 75 73 70 74 67 67 66 71 70 67 67 71 71 72 73 74 75 76 75 77
55 55 55 55 55 56 56 56 56 56 56 57 57 58 58 58 58 62 76 84 84 76 76 78 86 87 90 86 84 85 85 80 79 74 73 72 76 72 73 72 67 74 68 66 62 70 69 69 73 74 74 74 74 73
54 54 55 55 55 55 55 56 56 56 56 56 57 57 58 58 58 73 73 84 87 83 76 74 83 80 83 84 81 80 83 81 80 76 77 76 71 69 65 62 70 74 73 74 70 73 73 73 74 75 74 75 75 75
54 54 55 55 55 55 55 55 56 56 56 56 56 57 57 57 65 72 70 73 64 82 76 75 74 80 82 81 81 81 80 82 78 78 73 74 72 67 65 56 69 71 73 72 74 73 69 73 73 75 75 75 71 77
54 54 55 55 55 55 55 55 55 56 56 56 56 57 56 56 58 70 77 61 67 79 81 72 73 73 81 75 74 83 77 78 75 74 74 69 71 68 51 65 70 71 72 71 72 74 75 75 74 74 75 76 74 74
54 54 54 54 55 55 55 55 55 55 56 56 57 57 65 66 73 76 63 62 79 76 72 73 70 66 82 76 80 77 78 70 76 69 71 70 54 41 61 66 69 70 69 70 73 73 73 72 72 72 73 74 73 74
54 54 54 54 55 55 55 56 56 56 56 56 62 65 65 75 58 64 73 72 73 76 76 72 80 69 77 75 72 71 74 69 65 69 73 65 61 67 71 72 72 72 73 73 69 67 69 68 70 71 72 74 75 76
54 54 55 54 54 55 55 55 56 56 54 64 66 62 72 60 74 73 68 67 70 67 74 74 77 72 81 70 66 73 62 72 59 67 64 63 63 69 73 72 73 73 73 73 73 72 72 71 70 71 71 72 73 74
54 54 55 54 54 54 55 55 55 61 66 60 61 70 75 71 68 64 63 67 66 64 74 72 75 78 76 79 71 69 64 67 56 71 64 56 68 71 73 73 72 73 73 73 72 70 71 70 71 70 72 71 72 74
54 54 54 54 54 53 54 54 55 55 55 65 63 62 65 66 48 55 54 62 64 72 74 75 71 76 73 76 68 66 60 61 73 62 60 65 69 72 72 73 73 74 74 72 71 71 71 69 70 71 71 72 72 71
53 54 54 54 54 53 53 54 55 55 55 54 51 39 53 49 59 64 65 69 76 76 75 75 73 71 75 69 71 61 68 71 59 55 58 72 70 73 73 74 73 71 72 71 71 71 70 69 70 71 72 68 67 68
53 54 54 54 54 53 53 55 55 58 53 51 55 45 55 65 68 70 73 71 78 80 77 74 73 75 70 66 70 66 60 56 60 61 70 75 73 74 73 73 73 73 72 71 71 71 71 71 70 70 72 73 71 67
53 53 55 54 53 53 53 56 60 62 52 58 61 59 63 64 65 71 73 72 79 79 79 77 69 67 65 68 63 60 59 57 66 72 79 74 72 73 72 73 74 74 72 72 72 72 71 71 71 70 71 71 69 70
52 57 53 54 53 53 53 57 64 60 60 61 64 70 66 64 67 72 75 76 80 76 70 71 62 62 71 66 63 69 65 70 76 78 79 73 72 71 72 73 73 71 71 72 71 71 71 73 73 69 67 68 69 66
56 55 53 53 53 55 58 60 61 59 58 65 64 70 74 72 65 64 69 71 76 74 74 67 72 64 63 61 63 70 74 78 80 80 78 73 72 72 73 71 71 72 71 71 71 72 72 71 69 66 66 64 68 70
58 54 53 53 54 60 61 63 65 56 63 68 72 74 75 75 76 71 77 78 78 76 74 68 63 66 67 72 71 73 73 76 73 71 74 72 72 70 71 70 71 72 71 70 71 72 73 71 73 71 70 70 71 72
53 53 53 53 54 60 59 61 69 64 62 66 72 70 73 73 75 75 75 75 74 72 69 66 68 68 70 72 76 78 78 77 77 71 73 72 72 71 70 71 72 73 73 72 72 63 73 69 74 75 77 74 72 71
53 58 55 58 61 63 61 61 62 67 68 68 73 71 70 74 72 71 72 76 70 69 69 74 74 74 77 75 79 79 77 78 76 77 75 74 72 68 73 74 75 75 74 73 72 71 64 73 74 75 74 73 74 74
61 54 64 62 59 60 62 69 66 65 68 69 72 71 68 68 69 72 76 66 68 73 73 74 74 74 76 76 78 78 77 76 75 73 62 62 68 65 71 74 74 73 74 74 74 73 73 76 76 76 75 74 67 75
53 59 60 61 57 54 53 71 60 66 61 65 69 65 67 68 74 76 68 70 73 79 80 79 77 76 74 75 76 76 76 74 72 76 75 75 76 73 65 71 74 71 70 74 76 76 74 67 69 75 75 74 73 72
53 57 55 55 57 52 65 58 65 65 67 64 64 62 66 69 73 68 65 71 76 79 78 74 75 75 76 72 74 76 78 77 76 76 76 72 65 60 63 58 58 62 73 77 76 73 74 74 66 73 73 73 71 71
43 48 51 40 60 58 58 59 60 60 58 63 62 63 67 72 64 64 65 71 76 76 74 74 75 73 72 74 75 66 75 78 75 71 65 60 59 56 61 65 64 67 77 76 75 73 75 75 73 73 73 72 71 70
41 55 46 59 61 58 60 57 60 61 62 60 63 68 66 63 58 58 67 70 70 74 75 74 68 70 66 73 73 75 74 78 73 67 67 68 69 69 68 65 66 71 79 78 72 73 74 73 71 71 72 69 56 69
44 54 62 68 67 62 62 66 67 63 58 57 61 58 57 55 57 61 70 71 67 72 77 78 78 75 73 74 73 73 73 70 63 60 60 65 77 76 74 69 69 70 74 75 74 74 73 73 73 70 73 71 72 71
56 61 57 63 63 66 58 58 56 54 57 60 59 56 56 58 57 61 64 72 77 80 79 79 78 78 77 75 75 68 62 58 55 59 68 72 75 76 74 76 73 49 67 75 74 74 62 60 55 64 72 71 69 73
60 66 65 60 62 64 62 59 58 55 63 61 55 57 62 69 72 65 73 78 80 79 77 75 73 75 73 69 69 69 70 73 69 65 63 54 59 68 76 73 76 76 76 76 42 56 71 71 69 70 73 71 71 74
61 68 62 61 60 60 65 69 58 54 66 60 68 67 69 68 73 80 80 79 77 75 75 75 76 74 72 71 72 74 78 78 70 71 71 69 72 78 78 78 78 80 80 79 76 73 49 66 62 71 67 68 69 71
71 67 62 63 62 67 70 70 68 71 71 62 74 68 63 69 74 78 76 77 78 78 78 78 78 80 81 79 70 66 69 80 78 78 78 81 80 78 78 78 80 80 77 77 77 74 73 69 71 70 68 69 67 66
65 62 62 58 63 70 73 70 67 67 67 69 71 67 66 63 63 68 78 79 78 76 66 72 78 76 80 80 80 79 51 80 82 80 77 79 80 79 79 80 80 80 78 76 75 74 72 71 69 68 68 68 69 69
65 65 65 65 66 64 69 69 67 67 69 67 65 65 69 65 61 70 78 79 78 79 78 79 80 79 76 78 78 76 67 74 57 44 47 45 44 56 76 82 80 79 75 75 76 74 71 70 72 70 70 70 70 69

GFSWCAN_sfc_temp_114.txt.gz
Temp
56 56 56 56 57 57 57 57 57 57 58 58 58 59 59 60 60 62 74 83 77 76 82 86 86 81 80 79 73 75 75 77 75 67 68 66 65 65 64 66 56 46 45 57 60 56 50 65 58 49 65 72 74 75
56 56 56 56 56 56 56 57 57 57 57 58 58 59 59 59 60 60 69 86 84 75 80 90 90 90 88 86 81 80 76 74 77 71 72 71 66 68 65 58 71 61 66 61 52 53 69 75 71 76 75 75 75 74
55 55 55 55 56 56 56 57 57 57 57 57 58 58 59 59 59 59 67 74 81 77 80 83 81 89 95 92 94 76 80 82 79 81 74 73 64 71 62 64 67 72 74 66 66 69 71 73 76 77 75 75 78 79
55 55 55 55 55 56 56 56 57 57 57 57 58 58 59 59 59 58 68 78 80 78 73 80 93 85 92 93 89 89 85 85 83 81 74 72 68 75 68 68 66 71 70 67 67 71 71 73 75 75 76 77 77 77
55 55 55 55 55 55 56 56 56 56 57 57 57 58 58 59 58 61 69 75 82 75 64 73 86 89 91 89 86 86 84 80 79 75 73 70 76 72 73 72 68 74 69 65 62 70 68 68 74 76 75 75 76 75
55 55 55 55 55 55 56 56 56 56 56 57 57 58 58 58 59 66 70 81 85 84 74 62 80 83 87 86 83 81 82 80 79 76 75 77 75 70 64 62 72 75 77 76 70 74 74 74 75 76 75 76 77 76
55 55 55 55 55 55 55 56 56 56 56 57 57 57 58 57 61 65 66 70 60 78 73 71 74 82 84 83 82 81 82 79 78 75 74 73 71 70 65 57 70 73 75 75 75 75 70 74 72 77 76 77 73 78
55 55 55 55 55 55 55 55 55 56 56 56 57 57 57 57 57 66 78 61 64 75 78 70 70 74 83 76 74 83 77 79 77 74 75 70 70 68 54 66 70 73 74 73 73 75 75 75 76 75 76 77 75 74
55 55 55 55 55 55 55 56 56 55 56 57 57 57 62 62 68 73 64 64 77 75 70 72 67 65 82 77 78 77 79 68 77 70 71 71 55 42 61 65 69 71 70 71 74 75 74 73 73 74 74 74 73 74
55 55 55 55 54 55 55 56 56 56 56 57 61 64 64 73 62 65 71 71 72 75 75 70 79 65 78 75 71 71 74 69 58 69 73 65 62 67 69 71 73 73 73 75 70 68 70 70 71 72 72 74 74 75
55 55 55 55 54 54 55 55 55 55 54 60 63 62 73 62 72 71 66 65 68 65 72 73 76 69 82 71 70 73 68 65 59 66 64 62 63 69 72 72 74 74 74 75 74 74 73 73 72 72 73 74 73 74
55 55 55 55 54 54 54 54 55 56 62 56 55 58 70 69 66 63 62 66 66 62 73 71 73 75 77 79 70 70 64 66 58 72 64 58 68 71 72 73 73 74 74 74 75 72 73 73 72 72 72 73 73 74
55 55 55 55 55 54 54 53 53 55 56 63 57 56 59 63 46 53 53 60 62 71 74 75 71 75 75 77 71 68 61 62 74 63 59 65 69 71 72 73 73 75 75 74 73 73 73 72 72 72 71 73 73 73
54 54 54 54 55 54 53 53 54 55 57 55 53 39 53 54 59 62 64 67 72 75 77 76 75 73 75 69 70 61 68 70 60 56 60 70 68 71 73 75 74 72 74 73 72 72 71 70 70 72 73 71 68 66
54 54 54 54 55 54 53 53 54 54 52 50 51 42 51 62 65 70 73 72 76 74 77 75 75 75 71 66 69 66 61 57 61 61 70 73 71 71 72 74 74 74 73 72 72 71 71 70 71 70 71 68 67 66
53 53 57 54 54 53 53 54 52 53 50 49 50 52 60 61 63 66 68 69 76 69 79 77 71 67 65 68 64 62 60 58 66 73 73 73 71 73 73 75 75 75 74 73 72 72 71 71 70 69 70 71 67 66
52 55 53 54 54 53 53 53 57 51 50 51 55 64 62 54 57 68 72 63 62 62 70 72 64 62 71 65 63 69 65 70 76 77 76 72 71 72 74 74 75 74 73 72 72 72 71 72 73 69 67 66 70 64
58 53 53 53 54 55 54 54 53 56 51 56 55 65 70 62 53 54 63 65 64 72 76 69 73 66 63 61 65 71 74 76 75 72 71 73 73 73 75 73 74 73 72 72 72 72 71 70 70 67 65 65 67 64
53 54 53 53 54 52 52 54 59 52 59 63 66 70 72 71 70 65 65 60 61 76 76 68 66 62 68 72 71 72 75 76 75 73 75 74 74 73 73 74 73 72 72 71 71 72 73 71 72 69 71 70 69 69
53 53 53 53 52 56 55 52 65 59 59 64 69 68 71 72 68 64 59 62 69 74 70 67 68 73 71 73 71 75 74 73 74 66 73 75 73 73 72 73 72 72 72 71 72 64 73 72 73 73 75 71 68 71
52 57 54 53 54 59 59 55 59 66 65 64 70 70 70 74 72 71 72 74 70 68 66 73 74 74 71 77 69 59 73 68 74 75 73 73 68 74 74 73 74 75 71 67 69 68 63 72 71 72 70 72 70 74
54 55 60 55 54 60 61 66 54 64 64 57 64 67 68 68 70 71 76 71 70 70 74 75 75 76 77 72 70 67 76 77 76 75 63 65 75 74 72 72 73 69 67 68 69 70 71 73 73 75 75 74 67 74
54 59 60 60 56 49 52 69 57 64 59 61 61 58 64 68 72 78 70 73 74 78 78 77 75 75 74 74 70 72 77 75 75 77 77 75 66 68 71 67 59 58 53 59 68 71 72 65 70 74 75 73 72 69
51 57 55 56 57 51 64 59 64 63 65 64 62 62 66 69 75 70 66 71 76 79 78 75 77 76 77 75 76 77 78 77 71 68 73 74 67 60 62 57 56 57 56 59 66 71 72 73 67 73 73 72 72 71
44 48 51 41 59 58 55 55 59 59 56 61 62 64 67 71 63 62 65 71 75 76 74 75 73 67 70 71 69 60 61 61 59 56 65 70 63 61 59 56 62 64 67 64 63 67 74 74 74 73 73 72 71 71
40 53 45 58 60 58 59 55 58 56 59 59 58 66 66 63 60 60 67 65 73 75 73 70 67 69 64 70 66 58 65 75 75 72 68 72 68 68 66 64 59 62 66 70 69 71 71 73 73 71 71 70 59 70
41 52 62 68 65 66 62 67 65 56 49 52 60 55 60 57 58 62 68 64 71 76 77 78 68 66 64 66 72 74 72 71 69 66 61 59 57 58 61 62 64 64 65 70 72 71 69 70 68 64 58 59 71 71
57 59 54 61 62 67 61 59 57 56 60 64 64 58 57 57 54 60 62 55 57 72 79 79 79 78 77 74 75 74 72 70 65 68 69 69 72 77 75 76 74 55 71 68 68 71 67 66 60 59 54 54 55 70
59 64 64 60 62 64 64 61 57 57 64 63 57 51 51 58 68 67 71 75 78 75 72 72 73 76 76 75 75 75 73 72 68 64 64 68 70 71 77 79 78 77 76 73 48 57 67 69 66 64 60 56 56 64
62 70 64 63 61 60 63 62 60 64 68 61 56 59 68 71 74 78 76 75 70 71 74 77 77 77 75 74 73 75 78 78 80 74 69 70 72 77 77 78 79 79 79 77 76 69 50 65 58 67 61 58 59 65
71 70 65 65 64 68 69 65 62 64 58 56 65 65 65 70 75 78 78 78 79 79 78 78 79 81 78 76 75 75 76 79 79 79 78 80 81 79 78 78 79 79 77 75 75 75 74 71 70 69 68 67 67 65
68 66 65 60 64 71 73 70 69 62 52 51 51 67 66 61 62 71 78 77 78 76 69 73 79 77 81 81 81 79 55 78 75 75 74 78 79 80 79 81 80 79 77 76 75 75 73 71 71 71 70 68 68 67
65 68 68 68 66 66 70 68 67 66 65 59 59 59 55 61 61 71 80 81 79 80 79 80 80 80 78 79 79 77 70 74 59 44 46 43 42 55 76 79 79 78 76 75 76 75 72 71 71 70 68 68 69 68

GFSWCAN_sfc_temp_117.txt.gz
Temp
57 56 56 56 56 56 57 57 57 57 58 58 59 59 59 59 59 57 60 66 65 64 70 76 80 73 72 69 61 67 66 66 61 55 55 54 49 48 50 55 50 46 44 44 46 42 40 63 62 54 57 62 67 65
56 56 56 56 56 56 56 56 57 57 57 58 58 59 59 59 59 59 57 71 73 66 69 78 83 85 82 78 70 68 65 65 65 59 58 58 54 56 53 47 55 48 51 50 48 46 58 62 61 60 66 61 64 63
56 56 56 56 56 56 56 56 57 57 57 57 58 58 59 58 59 59 57 62 65 65 69 73 74 81 86 85 85 64 67 71 67 68 60 59 57 59 51 54 57 59 61 54 52 55 58 66 67 68 69 67 69 68
55 55 55 55 55 55 56 56 57 57 57 57 58 58 58 58 58 59 57 63 63 66 62 69 86 78 86 85 83 80 74 74 72 67 60 57 55 63 55 57 55 59 60 57 56 57 60 65 66 68 69 70 70 69
55 55 55 55 55 55 56 56 56 56 57 57 57 57 58 58 58 58 60 63 67 62 59 64 77 82 84 80 80 78 74 70 65 61 59 57 60 59 60 58 55 62 57 52 49 59 58 60 66 69 68 68 70 66
55 55 55 55 55 55 56 56 56 56 56 57 57 57 57 58 58 58 60 67 70 69 63 60 70 73 79 79 76 73 71 68 66 63 61 62 66 59 52 50 60 65 65 64 59 65 64 66 67 70 67 69 70 67
55 55 55 55 55 55 55 56 56 56 56 56 57 57 57 57 58 58 60 63 58 59 64 56 56 70 78 76 73 71 72 68 67 63 61 62 59 59 53 47 60 63 65 66 67 65 62 66 63 69 70 71 70 66
55 55 55 55 55 55 55 55 56 56 56 56 57 57 57 57 55 58 68 62 60 64 66 58 56 63 77 67 64 71 67 67 64 63 64 60 58 57 45 57 60 63 66 66 66 66 64 65 67 68 69 69 66 64
55 55 55 55 55 55 55 56 56 56 56 57 57 57 58 56 61 66 65 60 64 64 59 62 58 49 73 68 68 67 68 59 66 60 60 60 46 38 51 57 59 62 61 62 66 67 67 64 65 66 66 67 64 62
55 55 55 55 55 55 55 56 56 56 56 56 57 58 58 65 63 67 66 63 61 64 64 60 66 59 64 65 64 62 64 59 55 59 62 56 52 58 60 61 61 63 65 65 61 59 61 60 62 62 63 65 65 63
55 55 55 55 55 55 55 55 55 55 55 60 60 59 65 63 68 65 59 58 59 56 62 64 64 61 66 60 61 64 58 59 51 57 56 53 53 59 63 62 63 65 66 65 65 65 65 63 63 63 64 66 66 64
55 55 55 55 55 55 54 54 54 56 56 54 54 55 61 64 60 58 56 59 58 56 62 62 63 65 60 66 62 62 59 59 52 63 57 50 57 60 63 64 64 65 67 68 68 66 66 67 65 64 63 63 64 64
55 55 55 55 55 55 54 54 54 54 54 58 54 52 52 56 45 51 50 54 55 62 65 65 62 63 62 62 62 61 57 54 64 56 53 56 59 62 62 63 64 66 68 68 67 68 68 66 66 64 63 62 62 61
54 54 54 54 55 55 54 54 54 54 54 52 50 40 46 47 54 55 58 61 66 66 67 66 65 64 65 62 62 57 61 62 55 51 54 59 59 61 62 64 64 64 66 66 66 66 66 64 64 65 64 61 61 59
54 54 54 54 55 55 54 54 54 54 52 49 49 41 49 57 59 60 64 65 67 69 66 66 66 66 61 61 62 61 58 55 56 54 60 63 62 61 62 63 64 64 65 64 64 64 64 64 63 62 64 64 61 59
54 53 54 54 54 53 53 54 54 54 51 49 49 48 55 54 55 59 60 62 68 67 67 64 63 61 61 61 60 58 57 54 59 61 63 63 62 62 62 64 65 66 64 64 64 64 63 62 62 60 61 61 60 60
52 55 53 54 54 53 53 53 52 49 50 48 48 55 51 50 52 56 60 58 64 61 57 60 58 58 65 60 59 63 59 62 65 65 67 63 63 63 65 66 66 65 64 63 63 63 62 63 63 63 58 59 60 59
53 54 54 54 54 53 53 52 50 50 46 52 50 53 57 57 56 56 57 57 57 55 57 56 63 61 59 59 59 64 63 66 67 66 65 65 66 66 68 66 66 65 63 63 62 63 63 61 59 61 61 59 59 59
52 54 53 53 53 51 50 51 52 48 54 56 58 59 60 60 62 60 57 57 58 58 56 54 55 61 62 64 64 66 66 67 66 64 65 66 66 66 66 66 66 65 63 62 62 64 65 63 62 64 62 62 59 59
53 52 53 53 53 50 50 49 59 55 53 59 62 59 61 63 64 61 57 56 57 55 53 54 54 66 64 66 67 66 66 65 67 65 64 65 67 66 66 66 66 65 64 63 63 60 64 64 66 64 64 64 61 59
53 56 53 53 51 50 51 50 51 58 60 60 64 63 62 65 64 60 57 57 53 50 49 61 68 68 68 68 67 65 62 64 61 62 63 63 67 68 66 67 67 67 66 66 64 64 60 62 66 65 61 64 64 63
53 55 52 52 49 52 53 61 55 61 57 57 60 62 60 59 62 64 61 58 60 65 67 68 68 68 64 62 61 62 59 55 54 54 54 59 66 67 68 69 68 65 66 66 67 66 64 64 65 65 63 62 61 62
53 54 53 52 48 46 47 63 56 59 55 57 61 58 59 61 64 70 64 64 67 70 69 68 69 71 67 67 67 64 62 58 58 59 61 66 63 62 58 59 59 56 53 53 54 55 54 53 57 62 63 64 62 61
52 52 51 50 53 46 60 56 61 59 61 53 55 54 59 63 68 65 62 65 69 71 69 69 69 68 68 68 68 65 66 65 65 62 61 58 56 55 56 55 56 55 55 55 54 54 54 56 60 63 64 64 62 61
43 46 48 39 55 55 54 54 56 57 55 59 58 59 61 66 61 61 61 65 69 69 70 70 69 67 66 66 64 63 65 65 59 57 59 59 57 56 57 58 59 59 58 56 55 55 56 58 62 64 65 65 63 63
38 51 43 55 56 55 55 53 55 56 58 57 60 63 58 55 55 58 59 56 52 56 68 69 68 65 62 62 60 60 61 67 62 61 63 65 64 61 56 55 56 57 64 61 59 60 61 63 63 66 67 63 56 64
41 49 57 63 60 61 59 59 53 52 52 53 52 53 51 51 52 55 54 53 53 55 59 66 61 65 59 58 59 62 66 66 65 64 64 62 60 59 60 60 60 62 62 62 60 59 59 59 60 57 57 59 59 58
53 57 51 58 59 63 59 58 57 53 52 57 59 55 51 53 53 58 58 58 59 61 61 71 69 70 65 69 70 69 67 67 66 67 67 67 67 69 68 66 67 55 65 64 64 63 60 58 55 55 55 54 55 57
54 61 58 54 59 62 61 61 59 60 64 62 54 51 50 57 64 63 60 62 62 63 66 70 71 74 73 72 71 71 70 70 66 63 64 64 65 67 71 71 67 67 66 63 51 58 61 59 56 56 56 54 55 57
58 65 59 60 59 59 63 67 61 67 65 57 53 51 51 55 61 70 62 60 63 67 71 73 74 73 71 71 70 70 73 73 74 70 67 65 68 72 71 71 71 71 70 68 65 63 49 54 52 59 59 57 57 57
67 66 63 63 62 67 66 66 66 62 58 58 59 54 52 55 62 64 70 73 74 74 74 73 74 74 72 72 71 70 68 71 71 70 71 75 74 72 71 71 71 71 70 69 67 65 64 62 62 60 59 58 59 57
67 64 63 60 63 66 67 64 60 55 55 54 57 59 59 59 61 68 74 74 73 71 65 71 75 73 77 77 74 70 60 69 67 67 67 69 68 71 73 73 73 72 71 70 70 69 69 67 66 65 61 61 61 60
65 64 67 65 63 64 68 65 63 53 54 51 53 57 57 58 58 68 75 75 72 72 74 75 77 75 74 75 72 69 64 65 53 45 46 44 44 53 71 71 72 71 72 71 71 70 69 69 67 67 66 65 65 65

GFSWCAN_sfc_temp_123.txt.gz
Temp
57 57 57 56 56 56 56 56 56 57 57 57 58 58 59 59 58 55 50 53 52 50 54 62 67 60 59 56 55 60 59 58 50 47 45 43 43 44 42 45 43 43 40 38 38 36 38 57 56 49 51 53 57 58
56 56 56 56 56 56 56 56 56 56 56 57 58 58 58 58 58 57 49 54 57 50 54 62 68 72 68 68 60 55 59 54 55 49 45 45 44 42 41 41 46 44 47 44 43 42 51 53 53 55 55 57 56 56
56 56 56 56 55 56 56 56 56 56 57 57 58 58 58 58 58 57 53 49 49 50 54 56 63 68 67 69 70 61 57 59 55 54 46 45 47 45 41 43 46 49 49 46 48 49 52 56 59 59 59 59 60 59
56 56 56 55 55 55 56 56 56 57 57 57 57 58 58 57 57 57 52 49 48 50 47 54 68 65 72 70 70 68 65 59 56 53 49 47 48 50 44 48 47 51 52 47 46 49 53 58 58 60 61 62 62 60
55 55 55 55 55 55 56 56 56 56 56 57 57 57 57 57 57 56 53 50 52 49 48 50 59 64 65 68 70 67 63 57 54 53 49 49 47 49 45 46 46 52 50 47 45 53 53 55 60 62 60 60 61 60
55 55 55 55 55 55 55 55 55 56 56 56 56 56 57 57 56 52 45 50 54 53 49 46 58 60 65 63 66 64 61 55 53 52 49 49 52 49 44 41 52 52 54 54 55 55 56 58 61 63 61 61 62 60
55 54 54 55 55 55 55 55 55 55 56 55 56 56 56 56 53 46 49 49 52 52 50 48 49 58 62 60 59 59 57 54 54 49 49 50 49 47 42 41 54 55 57 57 56 59 55 59 59 63 63 63 61 60
54 54 54 54 55 55 55 55 55 55 56 55 55 55 55 55 52 48 54 55 52 50 53 48 48 53 58 54 57 54 54 52 53 50 48 49 47 44 39 49 50 54 56 56 59 58 59 59 59 61 60 59 58 57
54 54 54 54 54 54 55 55 55 55 55 55 56 56 51 47 44 51 61 59 56 54 50 49 46 46 57 53 54 54 52 50 50 50 49 50 39 38 49 50 52 55 56 58 57 58 59 59 58 58 58 58 55 55
54 54 54 54 54 54 54 54 55 55 55 55 50 48 46 49 59 59 55 52 51 52 50 48 50 49 54 50 51 52 50 49 45 50 49 45 43 49 52 54 58 56 57 57 54 52 52 53 56 58 59 58 57 56
54 54 54 54 54 54 54 54 54 54 55 50 47 49 54 58 54 51 49 47 47 46 48 51 51 50 55 52 50 51 50 52 43 48 49 42 42 50 54 54 53 55 56 57 59 59 58 58 56 57 58 58 57 56
54 54 54 54 54 54 54 54 54 53 52 50 50 50 50 52 49 47 46 48 47 47 50 49 53 54 52 53 50 49 53 52 44 48 46 41 46 52 53 54 55 54 56 58 59 58 58 59 58 57 56 56 56 56
53 54 54 54 54 54 54 54 54 53 53 52 50 51 48 48 40 44 42 43 43 50 50 50 50 50 50 51 49 48 50 49 50 45 44 46 50 53 52 53 55 55 58 58 58 59 59 59 58 57 57 56 56 56
53 54 54 54 54 54 54 54 54 53 51 49 48 38 44 43 44 45 46 47 51 52 51 50 49 50 48 48 48 46 49 49 45 40 44 48 51 54 51 54 55 55 57 58 58 58 58 57 57 57 57 55 54 54
53 53 53 53 54 54 54 53 54 51 50 47 47 40 43 48 48 49 51 50 53 52 51 50 50 50 46 47 48 49 46 47 46 45 47 51 54 52 52 53 55 55 55 55 56 56 56 57 55 55 54 53 54 53
53 53 50 54 54 54 53 52 50 51 50 48 47 45 48 44 45 47 51 50 52 52 52 51 49 47 49 49 47 48 48 45 49 49 52 51 51 51 53 54 56 57 56 55 54 55 55 55 54 53 52 52 52 53
53 48 54 54 53 53 53 49 50 48 48 47 45 49 44 44 44 45 48 50 53 53 51 52 47 50 50 49 47 50 49 51 52 53 53 51 52 52 53 55 55 55 55 54 53 54 56 55 53 51 50 51 51 51
49 51 54 53 52 52 50 50 49 48 45 46 40 45 45 46 45 47 50 51 51 52 52 51 49 47 47 48 48 52 51 52 52 53 54 52 51 53 57 58 56 56 55 54 54 56 53 52 52 54 55 53 51 49
52 52 53 53 53 50 48 49 49 44 47 48 44 45 51 47 50 54 53 53 54 55 54 49 50 46 49 50 49 49 50 52 54 52 52 53 53 56 57 56 56 55 55 54 53 56 57 58 59 57 57 53 54 52
53 53 53 53 53 49 47 47 52 46 45 49 47 50 49 51 55 54 55 52 52 52 50 49 49 50 49 50 50 51 50 52 53 53 53 53 54 55 55 56 56 55 54 53 52 52 53 51 51 53 57 57 56 53
51 52 53 52 50 49 47 47 47 48 47 45 51 52 51 51 51 51 51 53 50 50 48 50 52 52 54 52 52 52 51 53 54 56 55 54 55 56 56 56 56 53 53 52 52 51 53 59 62 56 56 58 59 57
50 54 50 50 48 49 48 48 48 51 49 51 49 50 49 50 49 50 52 50 50 52 52 50 50 50 53 56 56 55 54 54 52 51 50 52 53 53 55 54 54 54 52 52 51 52 52 54 53 54 53 52 52 52
51 52 50 49 46 44 43 52 48 50 46 50 51 48 48 49 51 54 49 52 52 54 56 53 52 54 54 56 57 58 55 54 54 51 50 51 52 51 52 52 52 50 49 50 52 52 52 49 51 54 54 53 53 53
51 49 47 46 45 42 51 47 49 49 50 50 50 48 48 49 51 49 48 49 52 55 57 55 54 53 54 55 54 56 57 54 52 52 52 51 50 50 51 53 51 51 52 53 54 52 52 51 50 54 54 53 53 52
42 42 43 37 47 45 46 49 48 48 49 50 46 45 47 48 49 51 49 48 49 49 52 56 54 53 53 54 55 56 55 54 53 52 52 52 50 49 50 50 50 50 51 50 50 50 50 51 53 54 54 54 54 53
38 44 39 47 47 45 48 47 48 49 47 49 49 48 47 48 48 47 47 49 49 50 51 53 53 53 53 52 51 51 53 54 54 53 52 53 53 52 50 49 50 50 51 50 50 51 52 51 53 56 56 54 48 55
37 41 46 49 51 52 49 51 51 48 46 46 46 46 45 44 45 47 49 49 49 50 52 52 55 54 52 52 52 52 54 55 55 54 54 53 53 53 53 51 50 52 52 52 52 54 52 52 52 52 52 51 50 52
45 45 43 47 48 50 47 48 49 47 48 48 47 46 47 47 46 50 51 52 52 54 54 55 55 55 54 53 52 53 52 52 53 53 53 52 52 52 53 52 52 47 52 54 53 53 53 52 51 51 51 51 50 52
41 45 46 44 48 49 49 51 49 50 51 50 48 48 47 48 51 51 51 53 57 55 54 54 53 54 53 52 52 53 53 54 54 51 49 49 50 55 53 53 53 51 52 52 45 50 54 52 51 51 51 50 50 50
45 48 46 48 48 49 51 53 51 50 49 50 50 49 48 49 51 54 55 56 56 54 55 54 54 54 52 53 52 52 52 53 53 54 52 52 53 56 55 55 54 53 52 52 51 51 46 49 46 50 49 48 48 48
49 48 48 48 50 53 52 52 52 52 53 53 51 49 49 50 52 54 53 55 55 56 56 58 59 56 55 53 53 53 53 54 52 54 54 53 54 55 56 56 55 54 52 52 52 51 50 49 49 48 49 49 49 47
48 48 48 48 48 53 54 53 54 51 51 51 49 52 51 50 51 54 58 56 54 54 54 56 59 55 55 55 54 53 49 52 52 52 52 54 54 54 55 54 54 54 54 54 53 52 52 52 50 50 50 50 49 49
49 50 50 51 49 50 54 54 52 51 51 49 51 51 50 49 53 55 57 56 58 56 56 57 58 56 56 56 55 53 49 52 47 45 45 45 46 49 53 53 55 57 57 55 54 54 54 54 52 53 52 52 51 50

GFSWCAN_sfc_temp_129.txt.gz
Temp
56 57 57 57 57 57 57 56 56 57 57 57 57 58 59 58 58 56 57 57 54 54 59 63 66 65 65 63 62 63 67 67 64 60 58 54 55 56 57 58 58 58 56 56 53 51 50 66 63 59 65 66 69 68
56 56 56 56 57 56 56 56 56 56 56 57 58 58 58 58 58 57 54 57 57 50 57 60 64 69 70 70 65 62 65 65 69 61 58 57 55 56 57 55 58 56 61 61 60 61 61 66 66 69 69 69 68 68
56 56 56 56 56 56 56 56 56 56 56 57 58 58 58 57 57 57 55 56 54 53 58 59 65 74 73 71 76 63 66 69 66 66 62 60 58 61 55 58 59 60 60 62 58 60 63 66 69 70 70 71 71 71
55 55 56 56 56 56 56 56 56 56 56 57 57 57 58 57 57 57 54 56 55 52 50 61 71 68 75 74 72 75 71 66 65 66 65 63 63 60 61 60 61 64 60 60 60 62 63 66 69 71 70 70 69 69
55 55 55 56 56 56 56 56 56 56 56 56 56 57 57 57 56 56 56 56 58 53 49 58 66 70 73 71 70 72 71 67 67 66 66 64 62 61 60 60 61 64 63 62 63 68 68 69 71 72 70 69 69 68
54 55 55 55 55 55 55 55 56 55 55 56 56 56 56 56 56 54 49 58 59 57 51 53 67 66 70 70 69 67 69 66 68 69 65 62 60 64 59 55 66 66 66 69 69 68 69 69 72 73 72 71 71 71
54 55 55 55 55 55 55 55 55 55 55 55 55 55 55 55 55 51 53 53 55 58 52 52 59 67 67 70 68 68 66 65 69 64 64 65 62 63 60 56 67 66 67 67 67 68 65 69 70 72 73 73 68 72
54 54 54 55 55 55 55 55 55 55 55 55 55 55 54 54 54 53 61 54 55 54 55 52 56 63 68 66 65 64 66 67 63 63 60 63 58 60 51 63 66 65 67 66 67 69 70 73 71 71 73 71 69 69
53 53 54 55 54 55 55 55 55 55 55 55 55 55 54 52 50 57 59 57 58 54 53 55 54 55 66 62 64 65 66 64 61 64 62 61 53 44 62 64 64 65 66 70 69 68 68 69 70 70 70 70 70 69
53 53 53 54 54 54 54 54 55 55 54 55 53 51 49 53 58 59 57 52 52 55 54 53 59 58 63 62 61 64 62 61 59 62 60 58 60 64 67 67 68 67 68 69 65 64 65 66 67 69 70 72 72 71
53 53 53 53 54 54 54 54 54 54 54 53 50 49 58 58 56 55 53 51 53 51 55 58 59 60 63 60 62 61 60 60 55 59 58 57 57 63 68 66 66 67 68 69 73 74 72 72 69 69 68 69 70 70
53 53 53 53 54 54 54 54 54 53 54 51 51 52 53 53 51 48 51 52 51 52 56 56 58 63 59 59 61 59 59 57 54 59 57 53 62 65 65 66 66 65 67 68 69 69 70 70 71 70 70 69 70 71
53 53 53 53 54 54 54 54 54 54 53 52 50 50 51 51 41 45 45 48 49 57 58 58 57 62 57 58 55 56 56 56 60 55 55 60 65 65 65 64 66 65 67 68 67 69 69 69 68 69 69 69 69 68
53 53 53 53 54 54 54 54 54 53 51 49 48 38 47 46 49 52 53 54 58 59 59 58 58 59 59 56 55 50 56 57 53 49 55 65 64 67 66 65 65 65 66 68 68 68 68 67 68 68 69 70 69 67
53 53 53 53 53 54 54 54 54 54 51 47 49 40 46 54 54 55 57 56 59 59 57 56 57 59 53 54 55 54 50 50 54 56 63 66 65 64 64 64 66 66 66 67 68 68 69 68 68 68 69 70 69 68
53 52 52 53 54 54 53 54 54 54 51 48 48 46 52 50 52 54 55 56 59 57 56 57 55 54 55 55 51 53 53 49 58 63 68 65 63 63 64 65 67 68 67 68 68 68 69 67 68 69 69 69 68 68
52 52 53 53 53 53 53 52 51 49 48 47 45 53 51 49 49 53 54 55 58 56 53 54 50 53 55 54 53 57 55 62 63 70 69 64 64 66 65 65 67 66 65 67 67 66 67 69 69 67 66 67 69 68
52 54 54 53 54 53 52 51 49 47 44 49 45 52 51 52 51 51 54 54 55 55 54 54 56 52 52 51 55 61 61 63 63 64 65 64 62 63 65 65 65 65 65 65 66 67 67 65 64 67 67 69 67 67
52 53 53 53 53 51 47 48 50 44 48 52 52 52 53 54 55 56 55 56 56 57 55 54 54 52 55 58 58 61 62 62 62 64 64 62 63 63 64 64 65 65 65 65 65 68 69 66 70 71 72 70 68 71
53 53 53 53 53 48 47 48 52 47 46 52 53 52 51 53 57 56 56 55 55 54 52 51 53 58 58 60 60 63 62 61 62 62 64 66 65 62 63 65 67 67 67 66 67 57 68 67 68 69 70 69 68 68
51 51 53 52 50 50 48 47 47 48 49 48 54 49 48 52 55 54 53 55 52 50 48 54 59 62 62 61 60 60 58 61 59 60 59 60 64 66 66 67 68 69 70 70 70 69 58 68 70 66 65 67 68 69
50 53 50 51 48 49 47 53 50 51 49 50 52 51 50 51 54 55 56 53 52 56 57 55 55 59 59 59 58 59 60 59 59 57 52 56 64 67 67 67 68 67 67 66 65 66 66 66 65 66 65 64 59 63
51 51 49 49 46 44 44 53 47 49 44 47 51 50 52 53 57 59 55 57 56 57 55 54 56 58 58 60 61 60 60 60 58 58 58 59 60 61 61 61 63 63 62 60 61 61 60 51 56 62 63 63 64 62
50 48 46 44 44 41 50 46 48 49 51 50 47 48 53 55 56 53 52 54 53 54 53 55 59 57 56 57 58 58 58 60 60 59 60 61 59 58 61 60 60 61 61 61 62 61 60 57 53 63 63 62 62 60
41 42 44 37 46 44 45 46 46 46 46 47 47 51 53 55 52 53 52 52 53 53 54 57 59 59 59 59 60 58 61 59 57 57 58 60 59 60 60 61 61 61 64 65 63 61 59 60 61 61 62 62 61 58
36 45 39 46 46 45 47 44 46 47 51 50 51 49 52 51 51 51 53 53 53 54 55 56 55 54 58 60 59 58 59 62 62 61 61 64 65 64 60 59 60 60 65 66 65 63 63 63 63 61 63 61 49 60
38 43 48 53 49 49 46 47 48 47 49 49 50 50 50 49 51 53 55 56 55 56 56 56 58 60 60 59 59 60 61 62 64 67 65 66 66 66 67 66 64 65 65 65 65 65 64 62 63 63 63 64 64 63
46 48 44 49 49 50 45 46 47 49 51 53 52 50 50 51 51 56 57 58 57 57 57 56 57 61 62 61 59 58 59 64 65 65 65 66 66 68 67 68 68 47 67 69 68 67 67 66 64 62 61 61 61 63
44 50 49 44 46 47 47 47 49 53 57 54 52 52 53 57 60 59 58 60 59 59 57 57 60 63 62 62 64 66 67 69 67 64 63 64 65 68 69 70 70 69 69 68 47 55 63 64 64 65 63 64 64 64
48 51 47 48 47 46 51 51 51 53 56 54 53 56 55 57 58 60 62 60 57 60 63 65 65 67 65 66 64 65 67 68 69 69 67 67 70 73 71 70 69 70 69 69 69 65 42 55 53 64 63 65 65 65
54 51 49 51 51 53 53 57 59 56 57 54 55 55 53 56 57 60 62 65 64 65 66 65 65 66 67 67 67 66 66 67 66 66 67 69 70 71 71 71 71 71 69 69 69 69 69 65 66 65 65 64 64 60
52 50 51 51 52 55 55 52 52 52 56 56 54 54 54 55 58 63 63 65 65 66 60 65 67 66 69 70 68 67 52 68 67 68 66 68 69 68 70 71 71 71 69 69 69 70 68 66 66 65 66 64 64 64
53 54 55 54 52 50 52 52 51 51 51 51 55 56 56 58 57 63 64 64 67 69 68 69 71 70 68 69 68 65 58 66 53 42 42 42 43 54 69 71 71 71 70 71 71 70 67 65 65 64 63 63 63 63

GFSWCAN_sfc_temp_132.txt.gz
Temp
56 57 57 57 57 57 57 57 57 57 57 57 58 58 59 59 58 60 61 62 59 63 70 72 75 72 73 72 70 74 71 73 74 68 69 66 64 65 65 68 65 64 63 64 64 59 55 75 72 66 71 75 76 75
56 56 56 57 57 57 57 57 57 57 57 57 57 58 58 58 58 58 56 62 61 52 64 70 72 75 75 75 73 73 73 74 79 73 73 74 66 68 66 60 70 63 69 67 66 66 71 76 74 77 78 76 75 75
55 55 56 56 56 56 56 57 57 57 57 57 57 58 58 58 58 58 59 59 56 54 66 69 71 79 83 80 82 69 75 77 77 78 79 77 66 74 65 66 68 71 72 69 66 72 72 75 77 78 79 78 79 79
55 55 55 56 56 56 56 56 56 56 56 57 57 58 58 57 57 58 56 60 57 58 59 71 81 75 84 84 81 80 79 78 81 78 77 75 70 74 72 71 69 73 70 70 69 71 72 74 77 78 78 79 78 78
55 55 55 55 55 56 56 56 56 56 56 56 56 57 57 57 57 57 57 59 61 56 54 65 75 81 83 82 79 79 79 77 76 75 75 73 77 73 76 73 71 74 72 69 69 75 74 75 78 80 77 76 77 76
54 55 55 55 55 55 55 55 56 56 56 56 56 56 56 56 55 57 51 62 61 59 58 60 77 74 77 79 77 76 78 77 78 78 78 78 73 73 69 65 74 78 79 80 76 79 80 79 81 81 79 78 79 78
54 55 55 55 55 55 55 55 55 55 55 55 55 56 55 55 55 55 53 59 57 60 58 60 69 74 76 77 77 77 79 78 78 79 76 78 74 71 70 63 74 77 78 78 78 77 74 77 78 81 81 80 75 80
54 54 54 55 55 55 55 55 55 55 55 55 55 55 54 54 54 56 66 56 58 56 63 58 66 69 76 74 71 79 75 76 76 79 76 74 71 72 60 70 74 77 78 77 77 78 81 82 81 81 82 80 77 77
53 54 54 54 55 55 55 55 55 55 55 55 55 55 54 53 52 62 59 57 63 60 58 62 61 63 76 75 76 75 78 70 75 72 73 73 66 49 67 71 74 75 74 77 79 78 78 78 78 79 79 78 77 77
53 53 53 54 54 54 54 55 55 55 55 55 55 54 49 60 57 59 57 59 58 63 61 58 70 64 72 72 71 72 75 70 65 71 72 67 66 71 74 77 77 78 78 80 74 71 74 75 77 78 78 79 79 79
53 53 53 53 54 54 54 55 55 55 54 56 52 50 59 58 60 62 58 59 61 58 64 65 67 63 75 67 68 74 68 70 61 68 66 65 65 72 77 76 77 79 80 80 80 80 80 79 77 78 78 79 79 80
53 53 53 53 54 54 54 54 54 57 58 55 54 51 55 52 52 54 57 61 59 59 66 63 66 69 71 72 70 69 66 67 60 70 65 60 71 74 76 76 77 77 78 79 80 79 80 80 80 79 78 78 79 79
53 53 53 53 53 54 54 54 54 54 54 53 51 49 53 50 41 47 49 56 59 65 68 67 63 68 65 66 67 66 61 61 72 63 60 67 74 76 75 75 76 77 77 78 78 79 79 78 79 79 78 79 79 78
53 53 53 53 53 54 54 54 54 53 51 47 50 41 51 51 55 57 61 64 67 70 68 69 67 65 69 61 66 59 64 66 58 56 60 71 74 75 77 77 77 75 75 77 77 77 77 76 76 77 79 78 77 76
53 53 53 53 53 54 54 54 54 58 51 47 50 45 54 64 65 66 69 67 68 73 67 64 66 67 62 60 63 59 54 53 59 61 71 76 74 74 74 75 76 76 76 77 78 77 77 77 77 76 78 79 78 76
53 52 54 54 54 54 53 54 57 59 53 50 51 51 59 58 60 63 64 62 71 71 67 66 63 60 60 62 57 57 56 53 61 71 76 77 72 73 72 75 77 78 77 78 78 78 78 77 77 77 78 78 78 77
52 53 54 54 54 53 53 56 56 52 51 51 49 61 57 57 58 64 65 60 68 61 57 58 55 57 68 60 58 64 61 67 71 77 77 71 70 70 73 75 76 76 76 77 77 77 77 78 79 77 74 75 78 76
52 59 54 53 54 53 54 55 51 50 46 51 49 59 60 62 61 61 64 63 62 62 60 59 61 56 57 57 60 68 72 75 75 74 74 73 71 71 74 73 74 75 75 76 76 77 77 76 75 76 75 77 77 76
57 55 53 53 54 53 50 49 53 45 48 57 58 61 61 62 64 64 65 65 65 63 59 59 57 58 59 66 67 70 73 73 72 73 74 73 71 71 71 72 73 74 75 75 75 78 79 77 79 81 82 80 78 80
52 53 53 53 53 50 47 50 56 53 53 57 60 58 60 60 63 64 63 63 63 57 55 56 60 66 67 70 72 71 71 71 72 72 74 74 75 71 71 74 76 75 76 76 77 62 79 78 80 80 81 80 79 78
51 52 53 53 51 50 50 48 47 49 55 52 56 57 51 55 57 59 61 65 60 58 58 64 66 69 71 71 71 71 70 71 71 70 69 72 71 76 74 75 76 79 79 79 79 76 65 79 81 83 79 77 78 77
51 53 51 54 49 50 51 60 56 57 54 55 53 54 49 49 53 58 59 57 59 63 66 67 67 68 67 67 68 68 69 67 67 68 56 61 73 75 76 78 78 78 79 78 79 79 77 77 75 78 76 77 67 75
52 52 51 51 49 48 49 59 50 55 48 48 53 50 51 57 61 64 58 63 66 70 69 66 63 63 61 65 67 67 68 68 67 67 71 72 72 73 75 76 78 75 72 71 74 73 70 55 64 74 74 75 75 75
52 50 47 45 46 42 52 48 49 49 51 50 51 51 55 57 62 59 57 60 60 61 55 55 54 55 59 62 63 64 67 67 66 70 71 71 71 70 73 73 73 73 73 74 74 72 71 70 58 73 71 71 71 70
41 43 46 37 47 44 45 47 48 46 45 50 47 50 57 61 55 57 57 57 57 56 55 58 61 60 61 63 63 62 66 67 62 63 66 71 70 69 70 68 71 72 76 72 68 68 68 71 70 71 70 70 69 67
37 46 41 47 49 46 48 45 45 46 49 49 54 60 60 57 56 55 57 57 56 55 55 58 62 61 62 65 61 61 61 66 65 59 59 63 69 69 67 66 67 69 77 76 74 71 71 71 70 69 71 66 49 67
39 44 51 58 48 47 46 48 48 45 49 53 54 55 57 53 55 57 60 63 65 62 57 57 60 64 64 68 63 63 66 69 64 66 70 74 77 77 76 73 71 72 76 75 75 74 71 71 71 70 70 71 71 71
50 50 46 50 51 53 48 46 48 51 56 60 58 54 54 55 54 62 64 64 65 62 59 59 63 71 68 65 70 70 71 73 73 74 74 75 77 77 77 77 77 48 75 77 77 76 76 74 72 70 69 69 70 72
51 56 55 50 49 47 47 47 50 58 61 61 56 57 58 65 67 67 63 62 62 62 60 66 68 71 71 72 73 74 75 75 71 68 67 69 71 73 78 78 77 77 78 76 46 56 69 72 73 74 72 73 74 74
52 56 48 47 46 45 49 51 51 60 65 64 62 62 63 66 67 70 70 68 66 67 71 72 73 73 71 72 71 73 78 79 79 76 72 71 74 79 78 78 79 79 79 78 77 72 44 60 59 71 69 73 74 74
63 59 51 50 52 50 56 58 60 59 61 55 65 61 59 62 65 71 65 59 64 72 74 74 75 77 75 75 74 73 71 76 75 75 75 80 82 80 79 79 80 81 79 78 78 77 77 73 75 73 73 72 71 67
57 53 53 53 52 53 55 53 56 59 60 57 58 57 59 61 63 64 72 75 74 73 64 72 74 74 77 77 77 75 61 76 76 76 74 78 80 78 79 79 80 81 79 76 77 78 76 73 74 72 72 70 69 69
59 61 59 58 50 50 52 54 56 55 54 54 59 61 62 65 61 69 71 74 77 77 76 77 78 78 77 77 76 74 68 73 55 40 43 42 41 54 78 80 80 78 76 78 78 75 73 71 70 69 69 68 68 67

GFSWCAN_sfc_temp_135.txt.gz
Temp
56 57 57 57 57 58 58 58 58 58 58 58 58 58 59 59 59 62 65 67 63 64 72 76 78 74 78 77 73 81 76 79 76 69 70 68 68 69 69 72 69 67 65 66 68 62 55 79 78 70 74 80 81 80
56 56 56 56 57 57 57 57 57 57 57 57 58 58 59 59 59 59 61 68 66 55 68 72 75 78 80 81 77 81 77 78 78 73 72 73 70 73 69 64 75 66 73 69 70 60 75 80 79 83 83 80 81 80
55 55 56 56 56 56 57 57 57 57 57 57 58 58 59 58 58 59 62 62 61 55 66 70 71 81 85 84 87 75 82 83 81 83 78 76 68 75 67 68 69 73 78 73 72 76 77 79 82 83 84 83 83 82
55 55 56 56 55 56 56 56 57 57 57 57 57 58 58 58 58 58 57 64 59 57 60 75 88 82 90 90 87 86 83 83 82 84 78 73 72 78 73 73 72 69 70 70 73 74 77 79 82 82 82 84 83 82
55 55 55 55 55 56 56 56 56 56 56 57 57 57 57 57 57 59 59 60 63 56 52 67 80 86 89 88 85 84 81 79 78 75 76 71 75 69 79 78 72 81 75 72 71 77 76 77 82 84 82 81 82 80
54 55 55 55 55 55 56 56 56 56 56 56 56 57 57 57 56 57 54 65 64 61 59 63 83 80 85 85 82 81 81 80 80 79 78 80 82 77 72 67 77 82 84 83 78 84 83 83 84 85 83 82 83 82
54 54 55 55 55 55 55 55 55 56 56 56 56 56 56 55 57 54 53 57 59 61 57 64 71 80 82 82 82 81 82 80 81 77 75 61 77 76 74 66 77 80 82 83 85 83 79 82 81 85 85 85 79 84
54 54 55 55 55 55 55 55 55 55 56 56 56 56 55 54 54 53 65 57 60 59 65 62 69 73 83 76 74 83 77 79 79 78 79 78 77 77 65 74 77 80 82 82 83 84 85 86 85 85 86 85 82 81
54 54 54 54 55 55 55 55 55 56 56 56 56 56 56 53 51 58 61 59 64 57 56 66 65 61 82 78 80 78 80 71 82 75 74 76 72 56 70 73 75 79 78 80 83 83 83 83 82 83 84 83 81 80
54 54 54 54 54 55 55 55 55 55 55 55 59 55 50 58 59 60 60 56 54 64 66 63 75 53 78 77 74 73 77 69 64 73 78 72 71 76 78 78 79 80 82 83 79 77 79 78 80 82 82 84 83 82
54 53 53 54 54 54 54 55 55 55 54 58 53 53 57 59 63 58 53 59 63 60 69 69 72 69 81 68 70 76 69 71 58 66 65 68 69 76 81 80 80 82 83 83 84 83 83 82 81 82 82 83 83 83
53 53 53 53 54 54 54 55 55 58 58 56 54 52 54 52 54 55 55 61 59 61 70 69 71 74 74 77 68 65 62 56 61 77 67 62 73 78 80 80 81 82 83 83 84 83 83 83 83 83 82 82 83 84
53 53 53 54 54 54 54 55 55 55 55 56 51 47 50 49 42 51 51 58 58 69 72 72 68 73 73 74 72 60 64 59 76 65 62 69 75 78 79 80 81 83 83 83 83 84 84 83 84 83 82 83 83 82
53 53 53 53 54 54 54 55 55 54 52 47 48 40 45 49 53 59 62 60 66 71 71 74 72 70 73 67 69 61 68 69 60 59 62 72 75 78 80 82 81 80 81 82 82 83 82 81 81 82 83 82 82 80
53 53 53 53 54 54 54 55 55 57 50 46 49 43 50 62 65 66 72 69 71 74 72 72 73 73 65 61 67 63 59 57 62 63 69 73 77 79 79 80 80 81 81 81 82 82 81 81 80 80 82 83 81 80
53 53 56 55 54 53 54 55 56 57 51 48 49 54 60 60 62 68 67 66 65 71 72 71 66 64 62 61 56 56 58 54 65 72 64 77 74 76 77 79 81 82 81 82 82 82 82 80 80 80 82 82 81 80
52 51 55 54 54 54 53 55 56 51 52 54 57 65 63 63 58 61 66 66 73 64 63 67 57 60 70 61 57 63 59 62 73 62 68 73 72 74 77 80 81 81 80 81 81 81 81 82 83 80 77 79 82 80
51 58 55 53 56 54 53 53 50 50 50 60 58 64 68 69 62 65 67 72 68 62 63 60 66 59 60 58 60 67 70 70 66 67 78 76 75 75 80 78 79 80 80 80 80 81 81 80 79 80 79 79 80 80
54 57 53 53 55 54 50 52 57 48 57 63 64 66 64 64 68 70 68 70 70 70 61 60 59 59 61 69 69 69 70 68 71 76 78 77 77 77 77 78 79 79 79 79 79 82 83 81 83 84 84 83 81 83
53 53 53 53 53 50 50 53 59 57 56 60 61 60 60 61 66 69 69 69 68 65 58 57 60 67 66 68 70 67 73 76 76 76 76 79 81 77 76 80 81 80 80 80 82 68 84 82 84 85 86 85 84 83
51 53 53 53 52 54 49 49 51 56 61 58 64 61 56 62 59 60 61 67 62 61 61 66 68 70 73 68 71 67 73 74 74 75 73 75 78 78 79 80 81 82 81 82 82 80 73 83 85 86 85 84 84 85
51 53 53 53 49 51 54 60 56 58 57 60 57 56 56 53 55 59 66 60 62 66 68 69 68 66 67 70 72 72 72 71 71 71 56 64 73 78 80 82 82 82 82 83 84 83 81 84 80 84 83 83 73 79
52 53 51 55 50 50 51 64 54 57 52 51 55 53 55 55 59 67 60 64 66 69 69 70 69 72 71 71 71 71 72 71 70 74 74 75 79 79 80 81 82 79 77 78 80 79 75 59 70 77 78 78 78 78
52 50 48 48 53 44 57 52 59 57 57 52 51 50 53 57 62 57 55 60 60 68 69 66 69 68 69 66 68 70 71 73 72 75 75 77 75 74 78 78 79 79 78 79 78 77 77 76 60 77 77 78 77 75
44 44 47 38 51 48 50 49 51 49 48 53 52 56 55 59 55 56 55 57 57 58 57 57 57 60 60 62 62 65 69 69 68 66 65 68 65 73 76 77 77 78 81 77 75 74 74 75 76 76 76 74 73 72
37 50 45 52 51 50 51 46 46 46 48 48 55 60 61 58 56 52 60 59 59 58 59 58 59 58 59 64 61 62 65 67 65 63 64 66 67 75 73 71 70 70 76 76 75 74 75 76 75 75 75 68 53 70
41 50 56 62 58 49 48 50 49 47 46 50 57 58 58 54 53 58 60 63 60 61 63 67 66 66 65 68 64 61 69 65 62 59 62 70 78 78 76 72 72 75 80 80 79 77 75 75 75 76 76 77 76 75
52 55 49 51 53 55 49 50 46 51 53 58 60 56 56 57 56 62 65 68 71 64 72 71 71 73 73 67 65 66 62 73 76 76 76 77 80 81 80 80 79 52 78 80 79 79 79 77 75 74 73 74 75 76
52 58 59 52 52 51 48 48 52 57 62 62 57 59 59 64 66 66 68 70 64 68 67 70 72 76 77 77 77 77 76 75 73 69 69 71 73 76 80 79 78 80 80 79 45 57 72 74 75 76 76 77 79 78
55 62 51 48 45 44 50 53 54 63 65 66 68 66 66 65 69 74 71 71 73 73 75 76 77 76 75 75 75 77 81 81 81 77 74 73 76 81 82 81 81 82 82 81 78 75 47 64 62 73 72 76 75 75
60 54 49 49 49 52 55 60 60 62 64 65 70 62 60 64 71 72 69 67 77 78 78 78 79 80 79 77 77 76 76 80 80 80 79 84 84 83 82 82 84 84 82 83 81 81 76 76 78 76 75 74 73 70
64 58 56 50 49 55 58 59 60 60 58 62 58 60 63 64 58 58 65 73 75 74 67 76 77 78 81 81 81 80 63 80 80 81 79 82 83 83 84 84 85 85 83 83 81 79 76 76 75 74 74 73 72 71
61 61 61 59 53 51 56 56 55 55 56 55 57 57 62 64 62 70 80 79 78 80 78 80 82 81 79 79 78 76 70 75 57 41 44 41 39 53 76 85 86 84 82 80 78 78 75 74 73 71 70 69 68 67

GFSWCAN_sfc_temp_138.txt.gz
Temp
56 56 57 57 57 58 58 58 58 58 59 59 59 59 59 59 59 61 67 69 63 62 68 73 76 70 72 74 68 75 73 78 77 70 69 67 67 70 68 71 69 67 64 65 66 62 56 77 78 67 74 81 82 80
56 56 56 56 57 57 57 57 57 58 58 58 58 58 58 59 59 59 61 68 68 57 64 71 72 75 74 75 70 74 74 75 78 72 73 71 67 72 68 63 77 66 73 67 67 66 72 77 76 73 83 81 81 80
56 56 56 56 56 56 56 57 57 57 57 58 58 58 58 58 59 58 61 65 64 59 64 69 69 77 82 82 83 69 81 85 82 86 78 74 63 70 63 65 70 75 77 71 71 73 76 80 83 84 85 84 84 83
55 55 56 56 56 56 56 56 56 56 57 57 58 58 58 58 58 57 58 63 61 58 56 73 88 81 87 85 84 83 81 85 85 83 77 72 67 71 65 71 71 68 74 69 68 73 78 80 82 83 83 84 84 83
55 55 55 55 56 56 56 56 56 56 56 57 57 57 58 58 57 59 62 64 64 55 49 60 73 83 88 87 83 84 81 80 79 77 74 72 74 72 75 71 65 78 71 67 66 67 71 68 82 84 82 82 83 81
54 54 55 55 56 56 56 56 56 56 55 56 56 57 57 57 56 57 55 65 64 61 52 58 78 78 84 85 83 81 81 80 79 76 74 77 79 75 65 62 71 79 82 81 72 75 76 72 83 85 83 83 84 83
54 54 55 55 55 56 56 56 56 56 56 56 56 56 56 56 59 54 54 55 59 61 52 58 68 79 83 83 82 81 82 78 78 76 76 75 72 73 70 65 75 80 81 82 85 84 79 83 81 85 85 85 80 85
54 54 55 55 55 56 56 56 56 55 56 56 56 56 56 55 54 55 65 57 61 55 59 58 65 68 81 75 73 81 75 77 77 76 77 69 67 59 58 71 78 80 81 81 83 85 85 85 85 85 86 85 81 81
54 54 54 55 55 55 56 56 56 56 56 56 56 56 58 54 52 56 61 60 64 56 49 63 60 54 70 77 79 77 79 69 79 72 73 74 61 46 60 73 76 77 77 79 83 84 84 82 83 83 84 83 81 80
54 54 54 54 54 55 55 56 56 56 56 56 57 56 56 57 59 60 57 52 52 57 57 59 69 52 61 70 71 73 76 68 65 71 67 65 61 69 77 78 78 78 81 83 78 77 79 79 81 82 82 84 83 82
54 54 54 54 54 54 54 55 56 56 54 56 53 55 58 58 58 54 50 52 58 57 66 68 68 57 68 58 56 70 69 65 59 64 65 65 64 72 80 80 79 80 82 83 83 83 84 83 81 81 82 84 84 83
54 54 54 54 54 54 54 54 56 56 54 53 58 56 53 54 52 50 53 61 60 60 71 68 70 73 58 68 68 61 64 63 53 64 61 59 71 78 79 81 81 81 82 83 84 83 84 83 83 83 83 83 84 84
53 53 54 54 54 54 54 54 55 55 54 57 52 47 47 50 41 48 51 55 60 68 73 73 69 74 67 75 56 57 56 57 64 60 57 67 72 77 79 81 82 83 83 82 83 84 84 83 84 83 82 84 84 83
53 53 54 54 54 54 54 54 55 56 54 47 46 38 44 45 51 60 61 61 67 73 71 74 71 71 74 69 65 47 55 57 55 53 59 73 70 74 79 81 81 81 83 83 82 83 83 82 82 83 84 84 83 81
53 53 53 54 54 54 54 54 55 57 50 46 47 42 48 60 57 60 69 65 73 74 72 72 68 71 66 64 69 63 56 52 61 62 67 72 74 77 78 80 81 81 82 81 83 82 83 83 81 81 83 83 82 81
53 52 56 56 55 54 53 54 55 55 50 47 51 52 59 54 52 56 58 64 69 68 69 70 65 61 60 52 61 58 58 57 63 65 66 67 66 76 77 80 81 82 82 82 82 83 83 81 80 81 82 82 81 80
52 54 55 55 54 53 53 53 52 49 50 53 56 63 59 57 54 57 54 60 64 67 62 62 57 56 68 61 59 66 60 66 62 67 58 58 60 72 78 80 81 81 80 81 81 81 80 82 82 80 77 79 81 79
55 57 55 54 54 54 53 51 50 51 49 58 55 61 63 62 56 61 66 70 65 64 65 59 61 58 60 59 61 69 73 75 72 69 62 61 61 76 79 79 80 80 80 80 80 81 81 80 79 79 78 79 80 79
52 52 54 54 54 55 49 50 52 45 55 63 65 65 66 67 67 68 69 67 68 69 63 62 60 61 63 67 67 68 65 71 66 59 57 58 58 74 78 79 79 79 80 79 79 80 81 80 82 83 82 81 79 81
52 52 53 54 54 50 49 51 60 56 57 63 66 65 65 67 70 70 70 70 66 64 61 58 61 67 69 72 64 57 56 57 63 61 58 60 72 77 76 79 79 79 80 80 81 71 82 81 83 84 85 80 79 78
52 55 53 53 51 50 49 51 54 59 61 57 61 59 60 64 64 64 65 69 64 62 60 65 67 72 74 71 69 67 65 63 63 64 63 71 75 79 80 80 81 82 81 80 79 79 72 81 83 85 84 85 85 85
56 54 52 52 48 51 52 61 57 59 57 60 58 60 59 58 60 63 67 62 62 64 67 67 69 70 69 69 63 63 61 63 71 71 61 67 74 74 71 81 81 81 81 80 81 82 81 78 79 82 81 77 77 81
52 52 51 55 48 47 49 64 53 58 54 55 61 56 57 57 61 66 58 63 65 70 71 72 70 71 71 72 71 70 71 71 72 73 74 76 78 64 59 73 80 79 72 61 61 73 70 58 68 78 77 77 78 77
51 50 47 48 50 48 60 54 58 57 58 55 54 53 56 58 61 58 57 61 62 70 68 67 69 69 70 70 65 67 69 72 69 74 76 73 71 67 69 70 70 76 78 78 76 76 76 74 61 76 75 75 75 74
43 43 44 39 53 51 52 53 53 54 51 54 52 53 56 60 54 55 54 52 63 65 66 66 67 68 67 68 69 70 70 66 67 68 67 70 64 65 65 66 76 77 79 77 75 76 75 76 75 74 74 73 72 73
37 49 44 52 52 52 52 48 47 46 47 49 55 58 57 53 52 47 54 61 56 60 59 58 60 62 63 64 62 62 63 65 65 65 68 70 63 59 56 64 70 71 78 77 75 73 74 74 74 74 72 69 54 69
42 50 58 64 55 56 53 53 51 51 47 51 53 53 55 51 51 57 61 62 60 65 69 64 64 64 65 65 66 66 66 66 66 67 70 69 61 60 60 68 71 74 79 78 77 77 75 74 74 75 75 76 76 75
54 57 51 54 53 56 51 49 51 50 53 58 57 52 53 55 54 60 61 64 71 69 65 65 66 68 67 67 69 66 66 72 67 66 71 72 69 72 75 76 73 54 73 74 77 78 78 76 75 74 73 74 75 76
55 58 58 54 53 54 53 52 54 53 53 55 52 56 58 63 64 65 67 75 76 71 65 66 59 66 75 75 65 59 60 60 61 58 59 61 70 75 78 78 78 79 79 77 47 64 75 76 77 77 76 76 77 77
56 60 54 53 50 47 55 63 61 63 65 63 58 59 61 64 66 72 61 66 59 61 72 71 68 61 67 74 75 75 79 80 80 77 73 72 74 79 79 79 79 81 80 79 77 75 49 66 64 74 72 74 75 70
58 52 50 47 46 52 58 64 64 65 66 63 65 59 62 63 71 76 75 74 76 78 78 76 77 79 78 78 78 77 77 81 81 81 82 84 84 82 82 82 83 83 83 79 78 76 76 74 76 73 73 72 71 70
56 51 52 46 49 59 63 60 61 60 61 60 60 62 65 65 64 71 73 75 76 76 69 76 76 76 82 82 81 79 64 79 76 77 74 78 82 83 84 85 85 84 82 81 81 79 77 76 76 74 73 71 70 70
60 60 58 53 56 55 60 58 56 58 59 56 60 62 63 63 58 68 79 81 79 79 78 80 81 80 79 79 78 75 69 72 55 43 45 43 44 59 79 83 84 83 81 81 81 78 76 74 73 72 71 71 70 70

GFSWCAN_sfc_temp_141.txt.gz
Temp
57 57 56 57 57 57 57 58 58 58 58 59 59 59 59 59 59 58 60 66 59 55 57 63 67 60 63 63 59 64 63 67 66 59 59 57 57 60 59 60 57 55 51 51 51 46 45 69 69 59 63 69 67 64
57 56 56 56 56 57 57 57 57 58 58 58 58 58 58 58 58 58 57 65 64 55 55 63 64 66 67 68 63 63 64 65 66 62 62 60 58 61 57 52 65 55 59 56 57 54 64 67 65 66 71 67 69 69
57 56 56 56 56 56 56 57 57 57 57 57 57 58 58 58 58 57 57 60 60 56 58 60 62 71 73 73 76 59 66 70 69 71 65 62 57 62 53 53 59 64 65 57 59 60 63 69 70 71 75 69 68 68
56 55 55 56 56 56 56 57 57 56 56 56 57 58 58 58 58 57 55 60 57 55 48 59 76 67 76 78 76 75 65 72 73 69 64 61 58 64 56 58 55 62 63 60 59 61 66 67 70 74 75 74 73 73
55 55 55 55 55 56 56 56 57 57 56 55 56 57 57 57 57 57 58 60 60 53 47 51 61 69 76 76 75 75 69 65 67 63 62 60 63 62 61 61 58 63 62 57 55 62 62 64 68 74 74 72 72 71
54 54 55 55 55 55 56 56 56 56 56 55 56 57 57 57 56 55 53 60 62 58 49 46 67 68 76 78 75 72 72 64 69 63 63 65 67 63 58 55 64 65 68 69 63 63 63 66 67 74 74 74 75 71
54 54 54 55 55 55 55 55 56 56 56 55 55 56 56 55 55 52 51 55 55 59 49 49 56 69 74 75 73 71 74 69 67 63 62 62 60 62 59 53 64 65 66 71 64 63 60 67 63 71 77 77 74 75
53 54 54 55 55 56 56 56 56 56 56 56 56 56 56 55 54 52 60 57 57 54 53 48 56 64 67 65 63 70 66 66 64 63 65 60 58 57 52 62 63 69 71 71 70 70 66 71 69 68 75 74 73 70
53 54 54 55 55 55 55 56 56 56 56 56 56 56 55 52 51 55 61 60 59 54 47 51 52 49 60 61 67 66 66 58 65 62 62 60 52 43 57 61 63 66 68 69 73 74 74 73 72 73 73 73 70 70
53 53 54 54 54 55 55 55 57 57 56 56 54 51 49 56 60 59 55 50 49 51 51 48 60 53 61 61 60 62 63 60 56 61 65 58 55 61 64 65 63 66 71 71 67 66 69 68 71 71 72 73 74 71
53 53 54 54 54 54 54 54 56 56 54 55 51 51 57 58 55 51 48 48 51 50 55 56 58 56 63 56 57 59 55 60 54 57 56 53 54 60 65 66 67 68 71 72 71 72 72 72 71 72 73 73 74 72
53 53 54 54 54 54 54 54 55 54 52 51 51 56 54 50 48 46 48 53 53 53 62 59 62 63 56 58 53 57 55 57 51 58 56 52 59 64 66 69 69 69 72 74 75 74 75 76 73 72 72 72 72 72
53 53 53 54 54 54 54 54 54 55 54 54 51 47 47 47 39 45 47 51 54 63 65 65 61 63 56 52 51 52 52 51 58 52 53 57 62 68 68 70 71 72 74 74 75 76 76 75 75 73 73 73 73 70
53 53 53 54 54 54 54 54 55 55 51 47 45 37 43 42 48 53 52 50 57 59 65 65 64 63 64 51 52 48 54 55 51 49 54 61 61 67 69 72 71 71 72 73 73 74 74 72 73 74 74 72 71 69
53 53 53 53 54 54 54 54 54 55 49 45 46 39 45 53 57 58 61 56 55 57 60 63 64 65 60 58 59 54 51 50 52 54 55 59 62 67 68 70 71 72 72 71 72 72 73 72 70 71 73 71 70 69
53 53 54 55 55 54 54 53 53 53 49 46 48 47 54 52 53 55 54 53 58 61 66 65 58 56 55 54 54 55 55 52 54 57 61 62 63 63 66 70 71 72 71 71 72 72 72 69 69 69 71 70 70 69
52 54 55 55 55 53 53 51 51 47 48 48 48 56 56 57 53 51 54 53 57 56 55 57 53 53 59 53 53 60 57 58 60 60 60 60 59 60 61 66 72 72 70 71 70 70 69 70 71 69 66 67 69 68
52 52 54 54 53 52 51 50 48 48 46 53 53 58 60 57 53 58 55 55 53 57 56 56 55 53 54 54 55 54 60 63 62 60 61 61 62 60 64 61 71 71 71 70 70 70 69 68 67 66 67 68 67 66
52 51 52 54 53 51 48 48 49 44 51 57 60 62 63 63 63 62 60 62 63 66 61 57 55 56 54 56 56 57 57 55 57 58 59 60 61 60 59 61 69 71 70 69 69 68 68 69 69 69 69 68 67 68
52 52 53 54 53 49 47 50 55 51 52 58 61 60 62 62 64 62 64 65 63 62 58 56 58 62 61 53 59 59 59 59 59 57 57 59 59 60 59 60 69 70 70 70 70 64 69 68 69 70 73 71 69 68
51 52 53 53 50 49 48 50 50 55 57 55 61 59 58 61 61 61 62 66 61 58 57 62 62 65 65 63 64 62 61 61 58 56 53 53 57 59 59 67 70 71 69 69 69 68 67 69 70 70 69 70 73 67
52 54 51 51 48 49 49 57 53 56 53 56 55 55 55 55 56 57 63 60 59 62 63 62 62 64 64 61 62 64 63 63 61 54 53 54 56 57 60 58 60 63 63 60 61 59 66 67 69 67 64 67 64 64
52 53 50 50 46 44 45 59 51 54 50 52 55 53 55 56 58 64 56 60 61 65 65 64 63 65 63 66 64 65 65 64 61 62 64 66 64 58 57 57 58 59 56 56 57 57 58 56 58 64 65 67 64 64
51 48 46 46 47 44 56 52 55 55 56 53 52 51 54 56 58 54 54 58 59 65 63 62 65 64 64 64 62 64 64 67 66 66 67 66 58 57 57 60 59 59 60 57 57 58 59 60 55 66 66 64 64 64
42 43 44 37 51 49 50 52 53 52 51 53 52 53 54 56 51 52 53 55 59 60 61 62 61 63 62 63 63 63 65 64 65 62 61 62 58 58 57 58 58 59 62 62 65 65 63 66 65 64 64 65 66 67
37 47 41 50 50 50 51 48 48 47 48 49 53 55 56 52 50 47 52 58 58 60 61 60 62 61 63 64 64 61 62 64 62 60 61 62 60 59 57 56 55 60 65 67 66 67 67 68 68 67 66 64 55 66
39 47 54 60 56 55 53 54 54 50 49 49 51 49 51 48 48 52 59 61 61 63 64 63 61 61 61 61 62 63 63 64 63 61 62 66 64 62 61 59 59 66 71 72 71 70 69 68 69 68 68 67 68 68
52 55 50 54 53 55 50 51 49 50 52 54 51 49 48 52 52 58 59 64 64 64 64 64 63 67 69 67 64 64 64 67 64 61 60 64 61 61 62 63 65 53 66 66 71 71 70 68 67 68 68 67 66 69
53 57 58 52 53 53 53 53 53 55 51 49 49 50 51 57 59 60 60 65 62 61 58 58 64 69 68 65 60 61 61 64 64 60 60 59 62 66 69 71 71 71 70 68 49 58 66 67 68 69 69 68 68 67
55 58 54 53 51 50 55 60 58 61 55 54 54 54 56 58 59 66 65 64 59 58 61 61 64 64 59 59 58 62 65 69 72 69 65 66 68 72 71 72 72 72 71 70 70 67 56 66 62 69 68 65 65 66
58 55 51 50 47 52 57 61 64 65 62 58 59 56 56 58 60 60 60 62 61 62 70 68 69 69 66 67 66 65 66 69 70 71 71 76 76 74 73 73 75 75 73 73 72 70 70 67 68 67 66 65 64 64
52 49 47 46 49 59 62 57 58 58 59 56 57 57 59 60 62 68 71 71 71 70 65 73 73 73 75 75 73 69 59 69 67 69 69 71 71 74 76 76 77 75 75 72 72 72 72 70 69 68 67 66 66 66
54 53 51 51 54 56 57 57 56 57 56 57 57 60 61 61 61 67 74 76 72 74 74 75 76 74 71 72 70 67 63 64 50 43 46 47 49 58 73 75 76 76 76 75 74 73 72 70 68 68 67 66 65 64

GFSWCAN_sfc_temp_144.txt.gz
Temp
56 57 57 57 56 56 56 57 57 58 58 58 59 59 59 58 58 54 51 58 56 48 53 56 60 55 57 58 53 58 60 63 62 58 55 53 52 57 56 59 57 52 48 46 45 42 43 66 66 58 58 58 62 63
57 56 56 56 56 56 56 56 57 57 58 58 58 58 58 58 58 57 49 58 59 53 51 60 61 63 62 61 57 58 57 58 62 58 54 57 55 54 54 51 59 53 54 51 52 51 58 63 64 61 63 63 62 62
56 56 55 55 55 56 56 56 57 57 57 57 57 57 58 58 58 56 50 51 53 51 53 53 55 61 64 63 68 54 56 62 60 65 59 54 53 54 49 51 55 57 58 54 56 60 61 65 67 66 67 65 64 63
54 55 55 55 55 55 56 56 56 56 56 57 56 56 57 57 57 57 51 53 52 51 45 48 65 60 68 65 65 68 63 63 62 62 59 58 56 58 52 55 54 57 59 56 55 57 62 63 67 67 69 68 68 67
54 54 54 54 55 55 56 56 56 56 57 57 56 56 57 57 56 53 51 52 54 50 45 46 56 61 62 61 65 67 65 58 58 58 54 57 56 57 52 54 53 59 58 54 53 59 59 60 64 68 69 69 69 68
53 54 54 54 54 55 55 55 56 56 56 56 56 56 56 56 56 49 48 55 57 56 47 43 53 54 62 63 65 64 65 58 60 55 55 57 60 54 51 49 60 62 62 63 63 60 62 65 66 68 68 69 69 68
53 53 54 54 54 55 55 55 55 56 56 56 55 55 55 55 50 48 48 52 54 55 48 44 44 56 63 62 61 60 63 60 61 58 57 56 54 55 52 50 60 63 64 64 64 63 60 63 65 69 70 71 68 70
53 53 54 54 55 55 55 55 55 56 56 55 55 55 55 54 52 47 52 55 55 53 51 44 45 51 59 56 56 60 58 59 59 59 59 57 54 51 49 58 61 64 64 61 62 65 66 66 65 67 69 68 67 67
53 53 54 54 55 55 55 55 55 56 55 55 55 55 51 49 47 50 61 58 57 52 45 47 44 45 56 55 56 60 59 52 57 54 54 57 47 40 54 59 62 65 64 65 64 65 66 64 66 68 67 67 68 66
53 53 53 54 54 54 54 55 55 56 55 55 51 49 45 52 60 59 54 49 48 50 48 45 50 45 55 55 57 54 54 52 49 53 55 52 48 54 58 62 63 63 64 65 61 61 62 61 63 66 65 69 69 68
52 53 53 54 54 54 54 54 54 55 54 48 46 47 52 57 52 50 47 45 47 45 47 47 50 48 56 51 50 56 50 51 45 49 50 48 49 56 62 61 61 61 63 65 66 66 66 66 66 65 65 68 67 67
52 52 53 54 53 54 54 54 54 52 51 50 49 51 52 49 47 44 45 48 45 45 50 50 49 53 51 53 51 52 49 49 45 53 49 45 53 60 62 63 64 62 64 66 68 68 68 69 67 68 67 66 66 67
52 52 53 53 53 54 54 54 54 54 53 51 48 46 46 45 38 41 42 44 44 52 54 52 52 51 51 50 48 49 47 48 53 47 49 51 54 62 61 62 65 65 65 68 68 69 69 69 68 67 67 68 66 66
52 52 53 53 54 54 54 54 54 53 49 46 44 36 42 41 44 46 47 49 53 52 53 52 54 52 49 47 49 44 50 51 47 43 48 51 54 57 61 65 63 63 66 67 67 68 68 67 68 68 68 66 65 63
52 52 53 52 53 54 54 54 54 52 48 44 45 38 43 48 50 52 53 52 54 54 52 50 53 56 51 49 49 48 45 45 47 48 50 53 56 58 61 63 62 63 64 64 65 66 66 66 66 66 66 65 64 63
52 52 50 53 54 54 53 53 52 50 48 45 45 43 47 44 47 50 50 48 53 52 51 50 49 48 51 49 48 48 47 45 49 50 54 55 56 58 57 59 63 65 65 65 65 65 65 64 65 65 63 64 63 64
52 48 54 54 54 53 53 50 49 46 45 46 42 47 47 46 45 49 49 49 53 50 48 50 48 47 50 46 46 52 48 50 52 53 53 56 57 57 57 58 60 64 64 64 63 63 63 65 63 62 62 61 63 62
48 51 52 54 52 52 50 49 47 47 44 45 42 47 49 49 47 51 53 53 51 48 51 51 49 46 48 46 45 49 51 51 52 52 53 54 55 55 57 56 59 60 62 64 63 62 61 63 63 62 62 60 60 60
51 51 52 53 52 49 45 46 47 43 47 47 48 51 50 52 53 54 53 54 55 54 50 49 48 46 47 49 52 53 52 51 51 52 53 55 55 56 56 58 60 63 61 62 61 62 64 64 65 63 62 61 61 59
52 53 52 53 53 47 46 46 51 46 43 46 48 48 49 50 53 52 52 52 51 50 49 48 48 50 51 50 52 54 53 53 52 51 52 54 54 55 56 57 57 56 60 60 61 59 61 60 61 63 63 62 61 61
51 51 53 52 49 48 46 46 47 47 46 45 48 48 47 49 49 49 49 53 50 49 48 51 52 53 58 55 54 54 54 52 51 51 51 51 54 55 56 56 57 58 59 60 61 60 59 60 60 63 62 61 60 60
50 54 50 50 47 48 45 47 45 47 45 46 46 47 45 45 46 49 51 48 48 51 51 52 53 54 53 55 56 55 54 55 53 51 50 52 55 54 55 54 56 55 55 55 56 57 57 57 59 62 61 59 60 61
51 51 49 49 45 43 41 50 45 47 44 46 49 47 47 47 49 52 47 48 50 55 55 55 56 57 56 59 59 58 57 55 52 52 53 55 55 55 55 55 55 54 54 55 56 57 56 53 56 59 60 59 60 58
52 47 45 44 44 40 49 45 48 47 48 47 47 48 51 49 49 46 45 48 50 54 54 55 57 55 54 55 54 55 56 56 55 55 56 54 53 53 55 56 57 57 55 55 56 56 57 58 55 59 60 60 60 59
40 41 42 36 44 44 45 47 48 46 44 47 46 46 47 49 45 45 47 49 51 52 53 54 54 54 54 55 55 55 57 56 55 55 55 57 55 54 54 55 55 56 58 56 56 57 58 59 60 60 60 61 62 61
36 44 39 45 45 44 46 46 45 43 43 44 46 49 50 47 47 45 47 52 53 54 55 55 56 53 52 54 53 54 55 58 57 55 55 56 56 54 53 54 55 57 60 60 59 60 60 60 60 63 62 61 55 62
37 42 45 49 48 48 46 47 47 44 44 46 47 48 48 46 46 48 53 54 53 55 57 55 55 54 54 54 56 57 58 58 58 59 60 58 57 58 57 55 56 60 62 63 63 64 63 62 62 63 62 61 62 62
45 48 46 48 47 48 46 46 45 47 49 48 48 47 44 48 48 54 53 56 56 57 57 56 56 57 56 56 56 56 56 57 57 58 58 58 58 58 59 60 62 50 63 65 65 63 63 62 62 61 62 61 60 61
45 52 50 46 48 47 47 47 49 49 49 48 46 48 50 54 56 56 57 58 56 56 54 55 55 57 56 56 56 56 57 60 59 55 54 52 54 58 60 60 61 59 61 59 50 58 64 62 63 62 62 60 59 60
47 51 47 49 47 46 49 52 52 52 51 52 53 53 53 54 56 59 58 57 56 55 56 56 56 54 53 56 53 54 57 58 60 59 55 54 56 59 59 60 60 59 60 60 59 57 52 58 55 59 58 57 56 56
52 50 47 47 46 49 53 54 55 56 53 53 54 52 52 53 56 59 58 58 57 56 59 60 58 57 57 56 55 55 54 58 58 62 62 61 62 62 61 61 61 61 62 62 61 60 60 59 57 58 57 56 57 55
49 48 47 45 47 54 56 54 53 52 53 52 53 53 54 53 55 56 61 60 59 59 57 58 58 58 58 60 59 58 53 58 57 58 62 62 63 63 64 64 65 63 64 65 63 62 62 60 58 59 58 58 57 56
50 49 49 49 48 51 52 53 53 52 53 53 54 54 55 53 55 60 65 67 69 65 62 62 60 59 59 60 58 56 52 52 47 45 47 48 50 55 65 65 66 70 69 67 63 66 63 61 59 58 57 56 56 55

GFSWCAN_sfc_temp_147.txt.gz
Temp
57 56 56 57 56 56 57 57 57 57 58 58 59 59 59 58 58 52 50 54 53 50 49 55 59 54 55 54 50 57 58 60 53 50 51 52 52 55 55 56 52 50 47 45 42 41 43 64 63 57 58 55 61 60
57 56 56 55 55 55 56 56 56 57 57 58 58 58 58 57 57 56 49 53 57 51 49 58 60 62 62 63 53 54 55 56 57 52 52 53 54 54 51 49 56 49 53 50 51 49 57 59 62 60 59 61 61 60
55 56 55 55 55 55 55 56 56 57 57 57 57 57 58 57 57 56 51 49 49 48 50 50 52 59 63 61 64 50 55 61 59 62 59 55 52 54 50 52 55 55 56 51 53 54 57 61 62 63 64 63 62 62
54 54 54 55 55 55 55 56 56 56 57 57 57 57 56 57 57 57 51 53 52 49 45 47 61 57 64 61 60 62 61 59 59 60 56 53 53 57 51 54 54 56 57 53 52 54 60 62 63 64 65 65 65 65
53 54 54 54 54 55 55 55 55 56 56 57 57 57 57 56 56 54 52 50 51 49 43 47 55 58 59 59 60 60 59 54 54 52 52 54 57 59 54 55 51 57 55 52 51 58 59 59 63 65 64 65 66 64
53 53 53 54 54 54 55 55 55 56 56 57 56 56 56 56 55 50 47 54 55 53 48 43 52 51 58 59 58 58 57 53 55 55 52 54 58 54 52 48 58 61 59 59 60 61 60 62 64 66 64 65 65 65
53 53 53 54 54 54 55 55 55 55 56 57 56 55 55 55 50 47 46 52 53 53 48 44 43 53 61 58 57 56 57 55 55 52 52 55 53 54 48 48 61 62 60 62 65 64 60 62 62 67 66 67 64 67
53 53 53 53 54 55 55 55 55 55 56 56 55 55 55 54 53 48 50 53 55 51 51 44 44 47 57 53 53 56 52 53 55 55 54 56 55 49 46 57 59 61 63 63 64 65 63 64 62 64 66 64 63 63
53 53 53 53 54 55 55 55 55 55 55 55 55 55 50 49 47 48 59 58 56 52 45 46 42 42 54 52 52 53 55 49 53 51 52 57 46 42 54 57 59 61 64 67 64 63 62 62 62 62 65 64 62 60
52 52 53 53 54 54 54 54 55 55 55 55 49 48 46 49 58 58 53 49 49 49 48 44 49 42 51 52 52 52 53 50 47 51 53 49 49 59 59 58 60 62 64 65 61 58 57 59 61 62 62 68 67 65
52 52 52 53 54 54 54 54 54 54 54 46 45 46 52 56 52 49 46 45 47 44 47 46 44 44 54 49 49 52 49 48 45 48 49 46 48 58 61 59 59 60 62 63 65 64 64 64 62 62 62 64 66 64
52 52 52 53 53 53 54 54 54 52 50 49 49 50 51 48 46 43 44 46 44 44 50 49 49 48 48 51 50 51 49 49 45 49 46 43 50 57 64 65 65 59 62 63 64 64 65 66 64 63 63 62 65 66
52 52 52 52 53 53 53 53 53 53 53 51 48 45 44 45 38 41 42 42 44 50 53 51 49 50 49 49 48 47 49 45 50 45 45 48 52 55 57 62 64 61 62 63 64 65 66 66 64 64 64 63 65 64
52 52 52 52 53 54 53 54 53 53 49 45 44 35 41 41 43 46 46 46 51 52 52 51 49 49 49 47 47 45 46 47 44 41 45 48 51 53 55 59 60 61 61 64 64 65 66 66 63 64 64 63 62 62
52 52 52 52 53 54 54 54 53 51 48 44 45 37 42 49 50 51 51 50 52 52 51 50 50 52 49 48 47 46 44 42 46 47 48 51 53 54 54 55 58 60 60 60 62 63 64 64 63 63 63 62 61 60
52 52 49 52 53 53 53 52 51 50 48 45 44 42 46 45 45 48 48 48 51 50 50 51 49 48 49 48 47 45 44 44 48 47 50 53 55 54 53 55 57 59 60 61 62 62 62 61 62 64 61 60 60 60
52 48 52 53 53 53 52 50 48 46 45 45 44 44 45 44 44 46 48 48 50 49 49 49 46 48 47 45 46 48 46 48 48 50 51 53 54 55 55 56 59 58 60 61 60 60 61 61 59 58 59 58 59 60
48 51 52 53 51 52 50 48 46 46 42 45 40 42 44 46 46 49 49 51 49 47 46 47 49 44 45 45 45 48 48 49 49 49 51 52 53 55 57 57 58 57 58 59 60 60 58 58 59 61 60 58 58 58
50 50 52 52 52 49 45 45 46 41 46 44 44 46 46 48 50 54 53 53 53 54 51 48 49 44 45 47 48 49 49 50 50 49 50 51 52 54 56 56 56 57 57 58 58 60 58 60 65 59 59 60 61 58
52 52 53 53 52 47 45 45 50 44 42 46 45 45 46 47 51 51 50 48 49 51 46 45 46 48 48 49 49 52 53 52 51 51 50 50 52 54 54 54 55 57 59 59 60 53 57 58 58 62 65 60 60 58
51 50 53 51 48 47 46 45 45 46 45 43 47 46 45 45 47 47 47 47 46 45 46 48 49 52 53 53 53 52 52 51 50 50 49 49 52 53 54 54 55 55 55 55 55 55 56 59 60 58 57 57 56 57
48 53 50 50 47 47 46 46 43 45 44 44 44 45 43 42 44 45 47 44 45 49 50 49 51 52 52 53 54 53 53 53 52 49 48 50 52 52 52 53 54 54 54 55 56 56 54 54 56 58 57 56 57 57
50 50 49 47 44 42 41 47 43 44 41 43 46 44 44 44 46 48 44 45 47 50 51 51 53 53 53 55 54 54 54 54 52 50 51 52 52 52 52 54 55 55 55 54 57 57 55 51 55 58 57 57 57 56
50 47 44 43 43 39 47 44 45 45 46 46 46 46 49 47 47 45 43 45 48 49 49 51 51 50 49 51 51 53 54 54 53 52 52 52 52 52 54 54 54 54 55 55 55 57 58 57 53 58 59 59 59 57
38 38 40 36 45 42 42 44 45 44 45 47 46 44 45 49 47 43 43 45 48 49 51 51 48 50 51 50 51 52 54 54 53 53 53 54 53 52 53 53 54 55 55 55 55 55 55 56 58 60 59 59 60 58
35 43 38 44 43 42 43 44 44 44 43 42 44 46 48 48 47 44 46 50 51 51 52 52 52 50 49 51 52 51 53 54 54 54 53 55 54 54 52 52 52 54 58 58 57 58 59 59 59 61 60 58 52 60
37 40 43 47 47 46 44 46 46 43 42 44 46 47 47 44 46 49 51 52 51 53 55 54 54 51 51 51 52 54 55 56 56 55 57 56 55 55 58 55 55 58 61 60 59 61 61 60 61 60 60 59 60 61
44 46 43 46 44 46 45 47 46 46 48 48 47 44 42 44 48 52 53 56 57 57 56 53 53 54 53 53 53 54 54 57 58 58 57 57 57 58 59 60 60 48 61 61 63 62 61 61 60 59 59 57 57 58
42 46 46 44 46 46 46 46 48 48 49 48 45 44 48 53 55 55 55 55 54 53 52 53 52 53 54 53 54 54 53 56 56 55 55 53 54 58 59 59 58 58 60 58 49 57 62 61 60 60 59 57 56 56
43 47 45 46 46 44 48 51 50 51 51 51 52 52 52 53 55 57 56 55 54 53 53 52 52 52 51 52 55 57 58 56 59 56 54 54 55 56 55 56 56 55 58 59 57 55 49 57 55 57 55 53 53 53
49 48 46 45 44 47 51 53 53 53 52 51 53 51 51 53 55 57 55 55 55 55 55 53 53 53 53 53 53 53 54 56 57 58 57 58 56 57 57 57 57 56 57 58 57 56 56 56 55 54 54 53 53 52
49 48 47 45 46 52 54 51 51 51 52 52 51 52 53 53 54 56 60 59 58 57 53 54 54 54 54 55 55 55 49 54 55 57 60 58 58 59 59 58 58 59 59 62 58 57 57 56 54 54 55 54 53 53
48 48 48 47 48 49 51 51 50 51 52 51 51 52 53 53 53 56 58 58 58 56 55 54 54 54 56 56 56 55 50 48 45 45 49 51 52 54 57 58 59 60 61 60 61 61 59 59 56 55 55 53 53 52